<?xml version="1.0" encoding="UTF-8" standalone="no" ?>
<gpx xmlns="http://www.topografix.com/GPX/1/1" xmlns:xsi="http://www.w3.org/2001/XMLSchema-instance" xsi:schemaLocation="http://www.topografix.com/GPX/1/1 http://www.topografix.com/GPX/1/1/gpx.xsd" version="1.1" creator="VisuGPX - https://www.visugpx.com">
  <metadata>
    <name>curienne  coche</name>
    <desc><![CDATA[curienne  coche]]></desc>
  </metadata>
  <trk>
    <name><![CDATA[14-MARS-14 20:50:42]]></name>
    <trkseg>
      <trkpt lat="45.56438" lon="5.93932">
        <ele>290.94</ele>
        <time>2014-03-12T13:18:34Z</time>
      </trkpt>
      <trkpt lat="45.56438" lon="5.93932">
        <ele>290.94</ele>
        <time>2014-03-12T13:18:44Z</time>
      </trkpt>
      <trkpt lat="45.56438" lon="5.93932">
        <ele>290.94</ele>
        <time>2014-03-12T13:18:49Z</time>
      </trkpt>
      <trkpt lat="45.5642" lon="5.9395">
        <ele>291.9</ele>
        <time>2014-03-12T13:19:00Z</time>
      </trkpt>
      <trkpt lat="45.564" lon="5.93951">
        <ele>291.42</ele>
        <time>2014-03-12T13:19:10Z</time>
      </trkpt>
      <trkpt lat="45.56362" lon="5.93987">
        <ele>291.9</ele>
        <time>2014-03-12T13:19:26Z</time>
      </trkpt>
      <trkpt lat="45.56302" lon="5.94053">
        <ele>291.9</ele>
        <time>2014-03-12T13:19:37Z</time>
      </trkpt>
      <trkpt lat="45.56253" lon="5.94074">
        <ele>291.9</ele>
        <time>2014-03-12T13:19:49Z</time>
      </trkpt>
      <trkpt lat="45.56249" lon="5.94074">
        <ele>292.38</ele>
        <time>2014-03-12T13:19:50Z</time>
      </trkpt>
      <trkpt lat="45.56244" lon="5.94075">
        <ele>292.38</ele>
        <time>2014-03-12T13:19:51Z</time>
      </trkpt>
      <trkpt lat="45.56213" lon="5.94071">
        <ele>292.38</ele>
        <time>2014-03-12T13:19:58Z</time>
      </trkpt>
      <trkpt lat="45.56209" lon="5.94069">
        <ele>292.38</ele>
        <time>2014-03-12T13:19:59Z</time>
      </trkpt>
      <trkpt lat="45.56205" lon="5.94067">
        <ele>292.38</ele>
        <time>2014-03-12T13:20:00Z</time>
      </trkpt>
      <trkpt lat="45.56202" lon="5.94063">
        <ele>291.9</ele>
        <time>2014-03-12T13:20:01Z</time>
      </trkpt>
      <trkpt lat="45.56198" lon="5.9406">
        <ele>292.38</ele>
        <time>2014-03-12T13:20:02Z</time>
      </trkpt>
      <trkpt lat="45.56194" lon="5.94057">
        <ele>291.9</ele>
        <time>2014-03-12T13:20:03Z</time>
      </trkpt>
      <trkpt lat="45.5619" lon="5.94057">
        <ele>292.86</ele>
        <time>2014-03-12T13:20:04Z</time>
      </trkpt>
      <trkpt lat="45.56187" lon="5.94058">
        <ele>292.86</ele>
        <time>2014-03-12T13:20:05Z</time>
      </trkpt>
      <trkpt lat="45.56184" lon="5.9406">
        <ele>292.86</ele>
        <time>2014-03-12T13:20:06Z</time>
      </trkpt>
      <trkpt lat="45.56181" lon="5.94062">
        <ele>292.86</ele>
        <time>2014-03-12T13:20:07Z</time>
      </trkpt>
      <trkpt lat="45.56178" lon="5.94062">
        <ele>292.86</ele>
        <time>2014-03-12T13:20:08Z</time>
      </trkpt>
      <trkpt lat="45.56163" lon="5.94073">
        <ele>292.86</ele>
        <time>2014-03-12T13:20:12Z</time>
      </trkpt>
      <trkpt lat="45.56159" lon="5.94081">
        <ele>292.86</ele>
        <time>2014-03-12T13:20:13Z</time>
      </trkpt>
      <trkpt lat="45.56123" lon="5.94143">
        <ele>294.78</ele>
        <time>2014-03-12T13:20:26Z</time>
      </trkpt>
      <trkpt lat="45.56119" lon="5.94186">
        <ele>293.82</ele>
        <time>2014-03-12T13:20:34Z</time>
      </trkpt>
      <trkpt lat="45.56119" lon="5.94193">
        <ele>293.34</ele>
        <time>2014-03-12T13:20:35Z</time>
      </trkpt>
      <trkpt lat="45.56115" lon="5.94232">
        <ele>292.86</ele>
        <time>2014-03-12T13:20:42Z</time>
      </trkpt>
      <trkpt lat="45.56115" lon="5.94238">
        <ele>293.34</ele>
        <time>2014-03-12T13:20:43Z</time>
      </trkpt>
      <trkpt lat="45.56116" lon="5.94245">
        <ele>293.34</ele>
        <time>2014-03-12T13:20:44Z</time>
      </trkpt>
      <trkpt lat="45.56118" lon="5.94259">
        <ele>293.34</ele>
        <time>2014-03-12T13:20:46Z</time>
      </trkpt>
      <trkpt lat="45.56118" lon="5.94266">
        <ele>293.34</ele>
        <time>2014-03-12T13:20:47Z</time>
      </trkpt>
      <trkpt lat="45.56117" lon="5.94273">
        <ele>293.34</ele>
        <time>2014-03-12T13:20:48Z</time>
      </trkpt>
      <trkpt lat="45.56117" lon="5.9428">
        <ele>293.34</ele>
        <time>2014-03-12T13:20:49Z</time>
      </trkpt>
      <trkpt lat="45.56115" lon="5.94287">
        <ele>293.34</ele>
        <time>2014-03-12T13:20:50Z</time>
      </trkpt>
      <trkpt lat="45.56105" lon="5.94391">
        <ele>293.34</ele>
        <time>2014-03-12T13:21:05Z</time>
      </trkpt>
      <trkpt lat="45.56104" lon="5.94398">
        <ele>293.82</ele>
        <time>2014-03-12T13:21:06Z</time>
      </trkpt>
      <trkpt lat="45.56071" lon="5.9452">
        <ele>293.82</ele>
        <time>2014-03-12T13:21:24Z</time>
      </trkpt>
      <trkpt lat="45.56068" lon="5.94526">
        <ele>293.82</ele>
        <time>2014-03-12T13:21:25Z</time>
      </trkpt>
      <trkpt lat="45.56064" lon="5.94531">
        <ele>294.3</ele>
        <time>2014-03-12T13:21:26Z</time>
      </trkpt>
      <trkpt lat="45.5606" lon="5.94535">
        <ele>293.82</ele>
        <time>2014-03-12T13:21:27Z</time>
      </trkpt>
      <trkpt lat="45.56056" lon="5.94538">
        <ele>294.3</ele>
        <time>2014-03-12T13:21:28Z</time>
      </trkpt>
      <trkpt lat="45.56051" lon="5.9454">
        <ele>293.82</ele>
        <time>2014-03-12T13:21:29Z</time>
      </trkpt>
      <trkpt lat="45.56046" lon="5.94542">
        <ele>293.82</ele>
        <time>2014-03-12T13:21:30Z</time>
      </trkpt>
      <trkpt lat="45.56036" lon="5.94544">
        <ele>293.82</ele>
        <time>2014-03-12T13:21:32Z</time>
      </trkpt>
      <trkpt lat="45.5603" lon="5.94545">
        <ele>293.82</ele>
        <time>2014-03-12T13:21:33Z</time>
      </trkpt>
      <trkpt lat="45.55969" lon="5.94559">
        <ele>293.82</ele>
        <time>2014-03-12T13:21:45Z</time>
      </trkpt>
      <trkpt lat="45.55965" lon="5.94562">
        <ele>293.82</ele>
        <time>2014-03-12T13:21:46Z</time>
      </trkpt>
      <trkpt lat="45.5596" lon="5.94565">
        <ele>293.82</ele>
        <time>2014-03-12T13:21:47Z</time>
      </trkpt>
      <trkpt lat="45.55951" lon="5.94572">
        <ele>293.82</ele>
        <time>2014-03-12T13:21:49Z</time>
      </trkpt>
      <trkpt lat="45.55947" lon="5.94577">
        <ele>294.3</ele>
        <time>2014-03-12T13:21:50Z</time>
      </trkpt>
      <trkpt lat="45.55944" lon="5.94582">
        <ele>293.82</ele>
        <time>2014-03-12T13:21:51Z</time>
      </trkpt>
      <trkpt lat="45.55941" lon="5.94587">
        <ele>293.82</ele>
        <time>2014-03-12T13:21:52Z</time>
      </trkpt>
      <trkpt lat="45.55938" lon="5.94594">
        <ele>294.3</ele>
        <time>2014-03-12T13:21:53Z</time>
      </trkpt>
      <trkpt lat="45.55914" lon="5.94646">
        <ele>294.78</ele>
        <time>2014-03-12T13:22:02Z</time>
      </trkpt>
      <trkpt lat="45.55882" lon="5.94719">
        <ele>294.78</ele>
        <time>2014-03-12T13:22:13Z</time>
      </trkpt>
      <trkpt lat="45.5588" lon="5.94726">
        <ele>294.78</ele>
        <time>2014-03-12T13:22:14Z</time>
      </trkpt>
      <trkpt lat="45.5587" lon="5.94778">
        <ele>295.26</ele>
        <time>2014-03-12T13:22:21Z</time>
      </trkpt>
      <trkpt lat="45.55868" lon="5.94783">
        <ele>295.74</ele>
        <time>2014-03-12T13:22:22Z</time>
      </trkpt>
      <trkpt lat="45.55866" lon="5.94787">
        <ele>295.74</ele>
        <time>2014-03-12T13:22:23Z</time>
      </trkpt>
      <trkpt lat="45.55862" lon="5.9479">
        <ele>295.74</ele>
        <time>2014-03-12T13:22:24Z</time>
      </trkpt>
      <trkpt lat="45.55859" lon="5.94792">
        <ele>296.22</ele>
        <time>2014-03-12T13:22:25Z</time>
      </trkpt>
      <trkpt lat="45.55855" lon="5.94795">
        <ele>296.22</ele>
        <time>2014-03-12T13:22:26Z</time>
      </trkpt>
      <trkpt lat="45.55783" lon="5.94836">
        <ele>296.7</ele>
        <time>2014-03-12T13:22:42Z</time>
      </trkpt>
      <trkpt lat="45.55766" lon="5.94847">
        <ele>296.22</ele>
        <time>2014-03-12T13:22:46Z</time>
      </trkpt>
      <trkpt lat="45.55763" lon="5.94851">
        <ele>296.7</ele>
        <time>2014-03-12T13:22:47Z</time>
      </trkpt>
      <trkpt lat="45.55762" lon="5.94856">
        <ele>297.18</ele>
        <time>2014-03-12T13:22:48Z</time>
      </trkpt>
      <trkpt lat="45.55764" lon="5.94868">
        <ele>296.7</ele>
        <time>2014-03-12T13:22:50Z</time>
      </trkpt>
      <trkpt lat="45.55765" lon="5.94874">
        <ele>296.22</ele>
        <time>2014-03-12T13:22:51Z</time>
      </trkpt>
      <trkpt lat="45.55763" lon="5.94881">
        <ele>296.22</ele>
        <time>2014-03-12T13:22:52Z</time>
      </trkpt>
      <trkpt lat="45.55759" lon="5.94886">
        <ele>296.22</ele>
        <time>2014-03-12T13:22:53Z</time>
      </trkpt>
      <trkpt lat="45.55755" lon="5.9489">
        <ele>296.22</ele>
        <time>2014-03-12T13:22:54Z</time>
      </trkpt>
      <trkpt lat="45.55732" lon="5.94909">
        <ele>296.22</ele>
        <time>2014-03-12T13:22:59Z</time>
      </trkpt>
      <trkpt lat="45.55728" lon="5.94913">
        <ele>296.22</ele>
        <time>2014-03-12T13:23:00Z</time>
      </trkpt>
      <trkpt lat="45.55684" lon="5.9498">
        <ele>297.18</ele>
        <time>2014-03-12T13:23:13Z</time>
      </trkpt>
      <trkpt lat="45.55664" lon="5.95004">
        <ele>296.7</ele>
        <time>2014-03-12T13:23:18Z</time>
      </trkpt>
      <trkpt lat="45.55591" lon="5.9509">
        <ele>296.22</ele>
        <time>2014-03-12T13:23:36Z</time>
      </trkpt>
      <trkpt lat="45.55533" lon="5.95169">
        <ele>296.22</ele>
        <time>2014-03-12T13:23:51Z</time>
      </trkpt>
      <trkpt lat="45.55462" lon="5.95257">
        <ele>296.22</ele>
        <time>2014-03-12T13:24:09Z</time>
      </trkpt>
      <trkpt lat="45.55393" lon="5.95342">
        <ele>296.7</ele>
        <time>2014-03-12T13:24:27Z</time>
      </trkpt>
      <trkpt lat="45.55351" lon="5.95392">
        <ele>299.11</ele>
        <time>2014-03-12T13:24:41Z</time>
      </trkpt>
      <trkpt lat="45.55349" lon="5.95398">
        <ele>299.11</ele>
        <time>2014-03-12T13:24:42Z</time>
      </trkpt>
      <trkpt lat="45.55349" lon="5.95404">
        <ele>299.11</ele>
        <time>2014-03-12T13:24:43Z</time>
      </trkpt>
      <trkpt lat="45.5535" lon="5.9541">
        <ele>299.11</ele>
        <time>2014-03-12T13:24:44Z</time>
      </trkpt>
      <trkpt lat="45.55353" lon="5.95415">
        <ele>299.11</ele>
        <time>2014-03-12T13:24:45Z</time>
      </trkpt>
      <trkpt lat="45.55356" lon="5.9542">
        <ele>298.63</ele>
        <time>2014-03-12T13:24:46Z</time>
      </trkpt>
      <trkpt lat="45.5536" lon="5.95424">
        <ele>298.63</ele>
        <time>2014-03-12T13:24:47Z</time>
      </trkpt>
      <trkpt lat="45.55371" lon="5.95434">
        <ele>298.63</ele>
        <time>2014-03-12T13:24:50Z</time>
      </trkpt>
      <trkpt lat="45.55375" lon="5.95434">
        <ele>298.15</ele>
        <time>2014-03-12T13:24:51Z</time>
      </trkpt>
      <trkpt lat="45.55379" lon="5.9543">
        <ele>297.67</ele>
        <time>2014-03-12T13:24:52Z</time>
      </trkpt>
      <trkpt lat="45.55383" lon="5.95424">
        <ele>297.18</ele>
        <time>2014-03-12T13:24:53Z</time>
      </trkpt>
      <trkpt lat="45.55386" lon="5.95418">
        <ele>297.18</ele>
        <time>2014-03-12T13:24:54Z</time>
      </trkpt>
      <trkpt lat="45.5539" lon="5.95412">
        <ele>297.18</ele>
        <time>2014-03-12T13:24:55Z</time>
      </trkpt>
      <trkpt lat="45.55395" lon="5.95411">
        <ele>296.7</ele>
        <time>2014-03-12T13:24:56Z</time>
      </trkpt>
      <trkpt lat="45.554" lon="5.95413">
        <ele>297.18</ele>
        <time>2014-03-12T13:24:57Z</time>
      </trkpt>
      <trkpt lat="45.55414" lon="5.95422">
        <ele>297.18</ele>
        <time>2014-03-12T13:25:00Z</time>
      </trkpt>
      <trkpt lat="45.55423" lon="5.95427">
        <ele>296.7</ele>
        <time>2014-03-12T13:25:02Z</time>
      </trkpt>
      <trkpt lat="45.55428" lon="5.95428">
        <ele>296.7</ele>
        <time>2014-03-12T13:25:03Z</time>
      </trkpt>
      <trkpt lat="45.55433" lon="5.95427">
        <ele>296.7</ele>
        <time>2014-03-12T13:25:04Z</time>
      </trkpt>
      <trkpt lat="45.55438" lon="5.95425">
        <ele>296.7</ele>
        <time>2014-03-12T13:25:05Z</time>
      </trkpt>
      <trkpt lat="45.55442" lon="5.95422">
        <ele>296.7</ele>
        <time>2014-03-12T13:25:06Z</time>
      </trkpt>
      <trkpt lat="45.55447" lon="5.95418">
        <ele>296.7</ele>
        <time>2014-03-12T13:25:07Z</time>
      </trkpt>
      <trkpt lat="45.55459" lon="5.95406">
        <ele>297.18</ele>
        <time>2014-03-12T13:25:10Z</time>
      </trkpt>
      <trkpt lat="45.55463" lon="5.95401">
        <ele>296.22</ele>
        <time>2014-03-12T13:25:11Z</time>
      </trkpt>
      <trkpt lat="45.55465" lon="5.95394">
        <ele>295.74</ele>
        <time>2014-03-12T13:25:12Z</time>
      </trkpt>
      <trkpt lat="45.55468" lon="5.95386">
        <ele>295.74</ele>
        <time>2014-03-12T13:25:13Z</time>
      </trkpt>
      <trkpt lat="45.5547" lon="5.95379">
        <ele>295.26</ele>
        <time>2014-03-12T13:25:14Z</time>
      </trkpt>
      <trkpt lat="45.55474" lon="5.95374">
        <ele>295.74</ele>
        <time>2014-03-12T13:25:15Z</time>
      </trkpt>
      <trkpt lat="45.55479" lon="5.95372">
        <ele>295.74</ele>
        <time>2014-03-12T13:25:16Z</time>
      </trkpt>
      <trkpt lat="45.55484" lon="5.95375">
        <ele>295.26</ele>
        <time>2014-03-12T13:25:17Z</time>
      </trkpt>
      <trkpt lat="45.55488" lon="5.9538">
        <ele>295.74</ele>
        <time>2014-03-12T13:25:18Z</time>
      </trkpt>
      <trkpt lat="45.55492" lon="5.95386">
        <ele>295.26</ele>
        <time>2014-03-12T13:25:19Z</time>
      </trkpt>
      <trkpt lat="45.55495" lon="5.95393">
        <ele>295.74</ele>
        <time>2014-03-12T13:25:20Z</time>
      </trkpt>
      <trkpt lat="45.55516" lon="5.9544">
        <ele>296.22</ele>
        <time>2014-03-12T13:25:27Z</time>
      </trkpt>
      <trkpt lat="45.55524" lon="5.95454">
        <ele>297.18</ele>
        <time>2014-03-12T13:25:30Z</time>
      </trkpt>
      <trkpt lat="45.55545" lon="5.95499">
        <ele>298.63</ele>
        <time>2014-03-12T13:25:40Z</time>
      </trkpt>
      <trkpt lat="45.55569" lon="5.9554">
        <ele>299.59</ele>
        <time>2014-03-12T13:25:49Z</time>
      </trkpt>
      <trkpt lat="45.55587" lon="5.95566">
        <ele>300.07</ele>
        <time>2014-03-12T13:25:55Z</time>
      </trkpt>
      <trkpt lat="45.55593" lon="5.95576">
        <ele>300.07</ele>
        <time>2014-03-12T13:25:57Z</time>
      </trkpt>
      <trkpt lat="45.55646" lon="5.95639">
        <ele>299.59</ele>
        <time>2014-03-12T13:26:12Z</time>
      </trkpt>
      <trkpt lat="45.55713" lon="5.95713">
        <ele>301.99</ele>
        <time>2014-03-12T13:26:31Z</time>
      </trkpt>
      <trkpt lat="45.55767" lon="5.95773">
        <ele>302.95</ele>
        <time>2014-03-12T13:26:48Z</time>
      </trkpt>
      <trkpt lat="45.55798" lon="5.95806">
        <ele>301.51</ele>
        <time>2014-03-12T13:26:59Z</time>
      </trkpt>
      <trkpt lat="45.55806" lon="5.95815">
        <ele>301.03</ele>
        <time>2014-03-12T13:27:02Z</time>
      </trkpt>
      <trkpt lat="45.55812" lon="5.95826">
        <ele>301.51</ele>
        <time>2014-03-12T13:27:04Z</time>
      </trkpt>
      <trkpt lat="45.55881" lon="5.95905">
        <ele>300.07</ele>
        <time>2014-03-12T13:27:20Z</time>
      </trkpt>
      <trkpt lat="45.5598" lon="5.95985">
        <ele>301.03</ele>
        <time>2014-03-12T13:27:41Z</time>
      </trkpt>
      <trkpt lat="45.56011" lon="5.96009">
        <ele>301.03</ele>
        <time>2014-03-12T13:27:48Z</time>
      </trkpt>
      <trkpt lat="45.5602" lon="5.96013">
        <ele>301.51</ele>
        <time>2014-03-12T13:27:50Z</time>
      </trkpt>
      <trkpt lat="45.56025" lon="5.96017">
        <ele>301.51</ele>
        <time>2014-03-12T13:27:51Z</time>
      </trkpt>
      <trkpt lat="45.56029" lon="5.96021">
        <ele>301.03</ele>
        <time>2014-03-12T13:27:52Z</time>
      </trkpt>
      <trkpt lat="45.56034" lon="5.96024">
        <ele>301.51</ele>
        <time>2014-03-12T13:27:53Z</time>
      </trkpt>
      <trkpt lat="45.56038" lon="5.96027">
        <ele>301.51</ele>
        <time>2014-03-12T13:27:54Z</time>
      </trkpt>
      <trkpt lat="45.56043" lon="5.9603">
        <ele>301.51</ele>
        <time>2014-03-12T13:27:55Z</time>
      </trkpt>
      <trkpt lat="45.56047" lon="5.96034">
        <ele>301.51</ele>
        <time>2014-03-12T13:27:56Z</time>
      </trkpt>
      <trkpt lat="45.56052" lon="5.96039">
        <ele>301.51</ele>
        <time>2014-03-12T13:27:57Z</time>
      </trkpt>
      <trkpt lat="45.56065" lon="5.96052">
        <ele>301.03</ele>
        <time>2014-03-12T13:28:00Z</time>
      </trkpt>
      <trkpt lat="45.5607" lon="5.96055">
        <ele>301.51</ele>
        <time>2014-03-12T13:28:01Z</time>
      </trkpt>
      <trkpt lat="45.56152" lon="5.96109">
        <ele>301.51</ele>
        <time>2014-03-12T13:28:18Z</time>
      </trkpt>
      <trkpt lat="45.56229" lon="5.96197">
        <ele>302.47</ele>
        <time>2014-03-12T13:28:37Z</time>
      </trkpt>
      <trkpt lat="45.56281" lon="5.96318">
        <ele>303.43</ele>
        <time>2014-03-12T13:28:56Z</time>
      </trkpt>
      <trkpt lat="45.56335" lon="5.96441">
        <ele>303.91</ele>
        <time>2014-03-12T13:29:16Z</time>
      </trkpt>
      <trkpt lat="45.56336" lon="5.96447">
        <ele>303.91</ele>
        <time>2014-03-12T13:29:17Z</time>
      </trkpt>
      <trkpt lat="45.56339" lon="5.96461">
        <ele>304.39</ele>
        <time>2014-03-12T13:29:19Z</time>
      </trkpt>
      <trkpt lat="45.56341" lon="5.96467">
        <ele>303.91</ele>
        <time>2014-03-12T13:29:20Z</time>
      </trkpt>
      <trkpt lat="45.56345" lon="5.96472">
        <ele>304.39</ele>
        <time>2014-03-12T13:29:21Z</time>
      </trkpt>
      <trkpt lat="45.56349" lon="5.96475">
        <ele>304.39</ele>
        <time>2014-03-12T13:29:22Z</time>
      </trkpt>
      <trkpt lat="45.56354" lon="5.96477">
        <ele>303.91</ele>
        <time>2014-03-12T13:29:23Z</time>
      </trkpt>
      <trkpt lat="45.56359" lon="5.96477">
        <ele>304.39</ele>
        <time>2014-03-12T13:29:24Z</time>
      </trkpt>
      <trkpt lat="45.56369" lon="5.96479">
        <ele>303.91</ele>
        <time>2014-03-12T13:29:26Z</time>
      </trkpt>
      <trkpt lat="45.56374" lon="5.96482">
        <ele>304.39</ele>
        <time>2014-03-12T13:29:27Z</time>
      </trkpt>
      <trkpt lat="45.56378" lon="5.96485">
        <ele>304.39</ele>
        <time>2014-03-12T13:29:28Z</time>
      </trkpt>
      <trkpt lat="45.56444" lon="5.96573">
        <ele>304.88</ele>
        <time>2014-03-12T13:29:47Z</time>
      </trkpt>
      <trkpt lat="45.56488" lon="5.96673">
        <ele>305.36</ele>
        <time>2014-03-12T13:30:06Z</time>
      </trkpt>
      <trkpt lat="45.56532" lon="5.96764">
        <ele>306.32</ele>
        <time>2014-03-12T13:30:22Z</time>
      </trkpt>
      <trkpt lat="45.56586" lon="5.96875">
        <ele>308.24</ele>
        <time>2014-03-12T13:30:42Z</time>
      </trkpt>
      <trkpt lat="45.56636" lon="5.96976">
        <ele>309.2</ele>
        <time>2014-03-12T13:31:00Z</time>
      </trkpt>
      <trkpt lat="45.5669" lon="5.97089">
        <ele>309.68</ele>
        <time>2014-03-12T13:31:20Z</time>
      </trkpt>
      <trkpt lat="45.56736" lon="5.97182">
        <ele>311.12</ele>
        <time>2014-03-12T13:31:37Z</time>
      </trkpt>
      <trkpt lat="45.5678" lon="5.97275">
        <ele>311.6</ele>
        <time>2014-03-12T13:31:53Z</time>
      </trkpt>
      <trkpt lat="45.56838" lon="5.97394">
        <ele>312.57</ele>
        <time>2014-03-12T13:32:14Z</time>
      </trkpt>
      <trkpt lat="45.56897" lon="5.97512">
        <ele>313.05</ele>
        <time>2014-03-12T13:32:35Z</time>
      </trkpt>
      <trkpt lat="45.56931" lon="5.97586">
        <ele>313.05</ele>
        <time>2014-03-12T13:32:48Z</time>
      </trkpt>
      <trkpt lat="45.56932" lon="5.97593">
        <ele>313.05</ele>
        <time>2014-03-12T13:32:49Z</time>
      </trkpt>
      <trkpt lat="45.56933" lon="5.976">
        <ele>313.53</ele>
        <time>2014-03-12T13:32:50Z</time>
      </trkpt>
      <trkpt lat="45.56934" lon="5.97606">
        <ele>313.53</ele>
        <time>2014-03-12T13:32:51Z</time>
      </trkpt>
      <trkpt lat="45.56937" lon="5.97612">
        <ele>313.53</ele>
        <time>2014-03-12T13:32:52Z</time>
      </trkpt>
      <trkpt lat="45.5694" lon="5.97617">
        <ele>313.53</ele>
        <time>2014-03-12T13:32:53Z</time>
      </trkpt>
      <trkpt lat="45.56944" lon="5.9762">
        <ele>313.05</ele>
        <time>2014-03-12T13:32:54Z</time>
      </trkpt>
      <trkpt lat="45.56951" lon="5.97629">
        <ele>313.05</ele>
        <time>2014-03-12T13:32:56Z</time>
      </trkpt>
      <trkpt lat="45.57012" lon="5.97746">
        <ele>314.01</ele>
        <time>2014-03-12T13:33:17Z</time>
      </trkpt>
      <trkpt lat="45.5703" lon="5.97786">
        <ele>313.53</ele>
        <time>2014-03-12T13:33:24Z</time>
      </trkpt>
      <trkpt lat="45.57031" lon="5.97793">
        <ele>313.53</ele>
        <time>2014-03-12T13:33:25Z</time>
      </trkpt>
      <trkpt lat="45.57031" lon="5.978">
        <ele>313.53</ele>
        <time>2014-03-12T13:33:26Z</time>
      </trkpt>
      <trkpt lat="45.57029" lon="5.97806">
        <ele>314.01</ele>
        <time>2014-03-12T13:33:27Z</time>
      </trkpt>
      <trkpt lat="45.57027" lon="5.97812">
        <ele>314.01</ele>
        <time>2014-03-12T13:33:28Z</time>
      </trkpt>
      <trkpt lat="45.57025" lon="5.97818">
        <ele>313.53</ele>
        <time>2014-03-12T13:33:29Z</time>
      </trkpt>
      <trkpt lat="45.57022" lon="5.97823">
        <ele>313.53</ele>
        <time>2014-03-12T13:33:30Z</time>
      </trkpt>
      <trkpt lat="45.56979" lon="5.97895">
        <ele>312.57</ele>
        <time>2014-03-12T13:33:42Z</time>
      </trkpt>
      <trkpt lat="45.56976" lon="5.97901">
        <ele>313.05</ele>
        <time>2014-03-12T13:33:43Z</time>
      </trkpt>
      <trkpt lat="45.56944" lon="5.97945">
        <ele>312.09</ele>
        <time>2014-03-12T13:33:51Z</time>
      </trkpt>
      <trkpt lat="45.56942" lon="5.97952">
        <ele>312.09</ele>
        <time>2014-03-12T13:33:52Z</time>
      </trkpt>
      <trkpt lat="45.56942" lon="5.9796">
        <ele>311.6</ele>
        <time>2014-03-12T13:33:53Z</time>
      </trkpt>
      <trkpt lat="45.56944" lon="5.97967">
        <ele>311.6</ele>
        <time>2014-03-12T13:33:54Z</time>
      </trkpt>
      <trkpt lat="45.56946" lon="5.97975">
        <ele>311.6</ele>
        <time>2014-03-12T13:33:55Z</time>
      </trkpt>
      <trkpt lat="45.56986" lon="5.98099">
        <ele>312.57</ele>
        <time>2014-03-12T13:34:13Z</time>
      </trkpt>
      <trkpt lat="45.5701" lon="5.98181">
        <ele>313.53</ele>
        <time>2014-03-12T13:34:26Z</time>
      </trkpt>
      <trkpt lat="45.5701" lon="5.98187">
        <ele>314.01</ele>
        <time>2014-03-12T13:34:27Z</time>
      </trkpt>
      <trkpt lat="45.57009" lon="5.98193">
        <ele>314.01</ele>
        <time>2014-03-12T13:34:28Z</time>
      </trkpt>
      <trkpt lat="45.57009" lon="5.98199">
        <ele>313.05</ele>
        <time>2014-03-12T13:34:29Z</time>
      </trkpt>
      <trkpt lat="45.57008" lon="5.98206">
        <ele>313.53</ele>
        <time>2014-03-12T13:34:30Z</time>
      </trkpt>
      <trkpt lat="45.57008" lon="5.98211">
        <ele>314.01</ele>
        <time>2014-03-12T13:34:31Z</time>
      </trkpt>
      <trkpt lat="45.57008" lon="5.98217">
        <ele>314.01</ele>
        <time>2014-03-12T13:34:32Z</time>
      </trkpt>
      <trkpt lat="45.57" lon="5.98274">
        <ele>315.93</ele>
        <time>2014-03-12T13:34:46Z</time>
      </trkpt>
      <trkpt lat="45.56984" lon="5.98314">
        <ele>318.81</ele>
        <time>2014-03-12T13:35:00Z</time>
      </trkpt>
      <trkpt lat="45.56974" lon="5.9834">
        <ele>321.7</ele>
        <time>2014-03-12T13:35:11Z</time>
      </trkpt>
      <trkpt lat="45.56975" lon="5.98343">
        <ele>321.7</ele>
        <time>2014-03-12T13:35:12Z</time>
      </trkpt>
      <trkpt lat="45.56976" lon="5.98345">
        <ele>321.7</ele>
        <time>2014-03-12T13:35:13Z</time>
      </trkpt>
      <trkpt lat="45.56978" lon="5.98346">
        <ele>321.7</ele>
        <time>2014-03-12T13:35:14Z</time>
      </trkpt>
      <trkpt lat="45.5698" lon="5.98348">
        <ele>322.18</ele>
        <time>2014-03-12T13:35:15Z</time>
      </trkpt>
      <trkpt lat="45.56981" lon="5.98349">
        <ele>322.18</ele>
        <time>2014-03-12T13:35:16Z</time>
      </trkpt>
      <trkpt lat="45.56984" lon="5.9835">
        <ele>322.66</ele>
        <time>2014-03-12T13:35:17Z</time>
      </trkpt>
      <trkpt lat="45.57009" lon="5.98355">
        <ele>325.54</ele>
        <time>2014-03-12T13:35:30Z</time>
      </trkpt>
      <trkpt lat="45.57039" lon="5.98347">
        <ele>328.43</ele>
        <time>2014-03-12T13:35:45Z</time>
      </trkpt>
      <trkpt lat="45.57064" lon="5.98339">
        <ele>331.79</ele>
        <time>2014-03-12T13:35:58Z</time>
      </trkpt>
      <trkpt lat="45.57092" lon="5.98338">
        <ele>334.68</ele>
        <time>2014-03-12T13:36:13Z</time>
      </trkpt>
      <trkpt lat="45.57114" lon="5.98345">
        <ele>338.04</ele>
        <time>2014-03-12T13:36:26Z</time>
      </trkpt>
      <trkpt lat="45.57142" lon="5.98361">
        <ele>340.92</ele>
        <time>2014-03-12T13:36:43Z</time>
      </trkpt>
      <trkpt lat="45.57165" lon="5.98368">
        <ele>344.29</ele>
        <time>2014-03-12T13:36:57Z</time>
      </trkpt>
      <trkpt lat="45.57189" lon="5.98381">
        <ele>347.17</ele>
        <time>2014-03-12T13:37:12Z</time>
      </trkpt>
      <trkpt lat="45.57205" lon="5.98364">
        <ele>349.58</ele>
        <time>2014-03-12T13:37:25Z</time>
      </trkpt>
      <trkpt lat="45.57214" lon="5.98347">
        <ele>351.98</ele>
        <time>2014-03-12T13:37:33Z</time>
      </trkpt>
      <trkpt lat="45.57236" lon="5.98349">
        <ele>355.34</ele>
        <time>2014-03-12T13:37:47Z</time>
      </trkpt>
      <trkpt lat="45.57262" lon="5.98333">
        <ele>357.75</ele>
        <time>2014-03-12T13:38:03Z</time>
      </trkpt>
      <trkpt lat="45.57286" lon="5.98331">
        <ele>361.11</ele>
        <time>2014-03-12T13:38:17Z</time>
      </trkpt>
      <trkpt lat="45.57294" lon="5.98363">
        <ele>363.52</ele>
        <time>2014-03-12T13:38:31Z</time>
      </trkpt>
      <trkpt lat="45.57272" lon="5.98382">
        <ele>366.4</ele>
        <time>2014-03-12T13:38:46Z</time>
      </trkpt>
      <trkpt lat="45.57238" lon="5.98405">
        <ele>369.76</ele>
        <time>2014-03-12T13:39:05Z</time>
      </trkpt>
      <trkpt lat="45.57257" lon="5.98418">
        <ele>371.21</ele>
        <time>2014-03-12T13:39:16Z</time>
      </trkpt>
      <trkpt lat="45.57288" lon="5.98423">
        <ele>374.57</ele>
        <time>2014-03-12T13:39:32Z</time>
      </trkpt>
      <trkpt lat="45.57314" lon="5.98426">
        <ele>377.45</ele>
        <time>2014-03-12T13:39:46Z</time>
      </trkpt>
      <trkpt lat="45.5734" lon="5.98419">
        <ele>380.82</ele>
        <time>2014-03-12T13:40:00Z</time>
      </trkpt>
      <trkpt lat="45.57359" lon="5.98406">
        <ele>383.22</ele>
        <time>2014-03-12T13:40:11Z</time>
      </trkpt>
      <trkpt lat="45.5736" lon="5.98407">
        <ele>383.22</ele>
        <time>2014-03-12T13:40:12Z</time>
      </trkpt>
      <trkpt lat="45.57362" lon="5.98408">
        <ele>383.22</ele>
        <time>2014-03-12T13:40:13Z</time>
      </trkpt>
      <trkpt lat="45.57364" lon="5.98409">
        <ele>383.7</ele>
        <time>2014-03-12T13:40:14Z</time>
      </trkpt>
      <trkpt lat="45.57366" lon="5.9841">
        <ele>384.18</ele>
        <time>2014-03-12T13:40:15Z</time>
      </trkpt>
      <trkpt lat="45.57368" lon="5.98411">
        <ele>384.18</ele>
        <time>2014-03-12T13:40:16Z</time>
      </trkpt>
      <trkpt lat="45.5737" lon="5.98411">
        <ele>384.66</ele>
        <time>2014-03-12T13:40:17Z</time>
      </trkpt>
      <trkpt lat="45.57372" lon="5.98412">
        <ele>384.66</ele>
        <time>2014-03-12T13:40:18Z</time>
      </trkpt>
      <trkpt lat="45.57374" lon="5.98413">
        <ele>384.66</ele>
        <time>2014-03-12T13:40:19Z</time>
      </trkpt>
      <trkpt lat="45.57375" lon="5.98414">
        <ele>385.15</ele>
        <time>2014-03-12T13:40:20Z</time>
      </trkpt>
      <trkpt lat="45.57402" lon="5.9843">
        <ele>388.03</ele>
        <time>2014-03-12T13:40:35Z</time>
      </trkpt>
      <trkpt lat="45.57431" lon="5.98442">
        <ele>391.39</ele>
        <time>2014-03-12T13:40:51Z</time>
      </trkpt>
      <trkpt lat="45.57462" lon="5.98443">
        <ele>394.76</ele>
        <time>2014-03-12T13:41:07Z</time>
      </trkpt>
      <trkpt lat="45.57495" lon="5.9844">
        <ele>398.12</ele>
        <time>2014-03-12T13:41:24Z</time>
      </trkpt>
      <trkpt lat="45.57523" lon="5.98429">
        <ele>401.49</ele>
        <time>2014-03-12T13:41:39Z</time>
      </trkpt>
      <trkpt lat="45.57546" lon="5.98405">
        <ele>404.37</ele>
        <time>2014-03-12T13:41:53Z</time>
      </trkpt>
      <trkpt lat="45.57579" lon="5.98388">
        <ele>407.74</ele>
        <time>2014-03-12T13:42:11Z</time>
      </trkpt>
      <trkpt lat="45.57604" lon="5.98375">
        <ele>408.22</ele>
        <time>2014-03-12T13:42:27Z</time>
      </trkpt>
      <trkpt lat="45.57604" lon="5.98375">
        <ele>408.22</ele>
        <time>2014-03-12T13:42:58Z</time>
      </trkpt>
      <trkpt lat="45.57603" lon="5.98377">
        <ele>408.22</ele>
        <time>2014-03-12T13:43:30Z</time>
      </trkpt>
      <trkpt lat="45.57603" lon="5.98377">
        <ele>408.7</ele>
        <time>2014-03-12T13:43:57Z</time>
      </trkpt>
      <trkpt lat="45.57603" lon="5.98377">
        <ele>408.7</ele>
        <time>2014-03-12T13:44:30Z</time>
      </trkpt>
      <trkpt lat="45.57604" lon="5.98373">
        <ele>408.22</ele>
        <time>2014-03-12T13:44:40Z</time>
      </trkpt>
      <trkpt lat="45.57606" lon="5.98371">
        <ele>408.7</ele>
        <time>2014-03-12T13:44:41Z</time>
      </trkpt>
      <trkpt lat="45.57607" lon="5.98369">
        <ele>408.7</ele>
        <time>2014-03-12T13:44:42Z</time>
      </trkpt>
      <trkpt lat="45.57608" lon="5.98366">
        <ele>408.7</ele>
        <time>2014-03-12T13:44:43Z</time>
      </trkpt>
      <trkpt lat="45.5761" lon="5.98364">
        <ele>408.7</ele>
        <time>2014-03-12T13:44:44Z</time>
      </trkpt>
      <trkpt lat="45.57613" lon="5.98361">
        <ele>408.7</ele>
        <time>2014-03-12T13:44:45Z</time>
      </trkpt>
      <trkpt lat="45.57615" lon="5.9836">
        <ele>408.7</ele>
        <time>2014-03-12T13:44:46Z</time>
      </trkpt>
      <trkpt lat="45.57617" lon="5.98358">
        <ele>409.18</ele>
        <time>2014-03-12T13:44:47Z</time>
      </trkpt>
      <trkpt lat="45.57619" lon="5.98357">
        <ele>409.18</ele>
        <time>2014-03-12T13:44:48Z</time>
      </trkpt>
      <trkpt lat="45.57643" lon="5.98325">
        <ele>410.62</ele>
        <time>2014-03-12T13:45:01Z</time>
      </trkpt>
      <trkpt lat="45.5767" lon="5.98295">
        <ele>412.06</ele>
        <time>2014-03-12T13:45:15Z</time>
      </trkpt>
      <trkpt lat="45.57687" lon="5.98259">
        <ele>415.43</ele>
        <time>2014-03-12T13:45:27Z</time>
      </trkpt>
      <trkpt lat="45.57706" lon="5.98248">
        <ele>417.35</ele>
        <time>2014-03-12T13:45:38Z</time>
      </trkpt>
      <trkpt lat="45.57707" lon="5.98251">
        <ele>416.87</ele>
        <time>2014-03-12T13:45:39Z</time>
      </trkpt>
      <trkpt lat="45.5771" lon="5.98294">
        <ele>420.23</ele>
        <time>2014-03-12T13:45:53Z</time>
      </trkpt>
      <trkpt lat="45.57712" lon="5.98332">
        <ele>423.12</ele>
        <time>2014-03-12T13:46:06Z</time>
      </trkpt>
      <trkpt lat="45.57719" lon="5.98369">
        <ele>426.48</ele>
        <time>2014-03-12T13:46:20Z</time>
      </trkpt>
      <trkpt lat="45.57738" lon="5.98404">
        <ele>429.37</ele>
        <time>2014-03-12T13:46:36Z</time>
      </trkpt>
      <trkpt lat="45.57753" lon="5.98432">
        <ele>432.73</ele>
        <time>2014-03-12T13:46:49Z</time>
      </trkpt>
      <trkpt lat="45.57754" lon="5.98471">
        <ele>435.61</ele>
        <time>2014-03-12T13:47:04Z</time>
      </trkpt>
      <trkpt lat="45.57739" lon="5.98503">
        <ele>438.98</ele>
        <time>2014-03-12T13:47:18Z</time>
      </trkpt>
      <trkpt lat="45.57726" lon="5.98539">
        <ele>441.86</ele>
        <time>2014-03-12T13:47:33Z</time>
      </trkpt>
      <trkpt lat="45.57743" lon="5.98561">
        <ele>443.79</ele>
        <time>2014-03-12T13:47:46Z</time>
      </trkpt>
      <trkpt lat="45.57778" lon="5.98549">
        <ele>446.19</ele>
        <time>2014-03-12T13:48:03Z</time>
      </trkpt>
      <trkpt lat="45.57803" lon="5.98572">
        <ele>448.59</ele>
        <time>2014-03-12T13:48:18Z</time>
      </trkpt>
      <trkpt lat="45.57794" lon="5.98612">
        <ele>450.52</ele>
        <time>2014-03-12T13:48:32Z</time>
      </trkpt>
      <trkpt lat="45.57767" lon="5.98631">
        <ele>453.88</ele>
        <time>2014-03-12T13:48:46Z</time>
      </trkpt>
      <trkpt lat="45.57735" lon="5.98642">
        <ele>456.28</ele>
        <time>2014-03-12T13:49:02Z</time>
      </trkpt>
      <trkpt lat="45.57704" lon="5.98679">
        <ele>458.69</ele>
        <time>2014-03-12T13:49:20Z</time>
      </trkpt>
      <trkpt lat="45.57683" lon="5.98718">
        <ele>461.57</ele>
        <time>2014-03-12T13:49:36Z</time>
      </trkpt>
      <trkpt lat="45.57663" lon="5.98763">
        <ele>464.45</ele>
        <time>2014-03-12T13:49:54Z</time>
      </trkpt>
      <trkpt lat="45.57653" lon="5.98796">
        <ele>467.34</ele>
        <time>2014-03-12T13:50:08Z</time>
      </trkpt>
      <trkpt lat="45.5765" lon="5.98821">
        <ele>469.74</ele>
        <time>2014-03-12T13:50:20Z</time>
      </trkpt>
      <trkpt lat="45.57648" lon="5.98831">
        <ele>470.22</ele>
        <time>2014-03-12T13:50:25Z</time>
      </trkpt>
      <trkpt lat="45.57647" lon="5.98834">
        <ele>471.18</ele>
        <time>2014-03-12T13:50:27Z</time>
      </trkpt>
      <trkpt lat="45.57646" lon="5.98836">
        <ele>471.66</ele>
        <time>2014-03-12T13:50:28Z</time>
      </trkpt>
      <trkpt lat="45.57646" lon="5.98838">
        <ele>471.66</ele>
        <time>2014-03-12T13:50:29Z</time>
      </trkpt>
      <trkpt lat="45.57646" lon="5.98839">
        <ele>472.14</ele>
        <time>2014-03-12T13:50:30Z</time>
      </trkpt>
      <trkpt lat="45.57646" lon="5.98841">
        <ele>472.63</ele>
        <time>2014-03-12T13:50:31Z</time>
      </trkpt>
      <trkpt lat="45.57645" lon="5.98843">
        <ele>472.63</ele>
        <time>2014-03-12T13:50:32Z</time>
      </trkpt>
      <trkpt lat="45.57644" lon="5.98843">
        <ele>472.63</ele>
        <time>2014-03-12T13:50:33Z</time>
      </trkpt>
      <trkpt lat="45.57643" lon="5.98844">
        <ele>473.11</ele>
        <time>2014-03-12T13:50:34Z</time>
      </trkpt>
      <trkpt lat="45.57641" lon="5.98845">
        <ele>472.63</ele>
        <time>2014-03-12T13:50:35Z</time>
      </trkpt>
      <trkpt lat="45.57639" lon="5.98846">
        <ele>473.11</ele>
        <time>2014-03-12T13:50:36Z</time>
      </trkpt>
      <trkpt lat="45.57638" lon="5.98846">
        <ele>473.59</ele>
        <time>2014-03-12T13:50:37Z</time>
      </trkpt>
      <trkpt lat="45.57637" lon="5.98847">
        <ele>473.59</ele>
        <time>2014-03-12T13:50:38Z</time>
      </trkpt>
      <trkpt lat="45.57636" lon="5.98849">
        <ele>473.59</ele>
        <time>2014-03-12T13:50:39Z</time>
      </trkpt>
      <trkpt lat="45.57634" lon="5.9885">
        <ele>474.07</ele>
        <time>2014-03-12T13:50:40Z</time>
      </trkpt>
      <trkpt lat="45.57633" lon="5.98851">
        <ele>473.59</ele>
        <time>2014-03-12T13:50:41Z</time>
      </trkpt>
      <trkpt lat="45.57632" lon="5.98852">
        <ele>474.55</ele>
        <time>2014-03-12T13:50:42Z</time>
      </trkpt>
      <trkpt lat="45.57631" lon="5.98853">
        <ele>474.07</ele>
        <time>2014-03-12T13:50:43Z</time>
      </trkpt>
      <trkpt lat="45.5763" lon="5.98854">
        <ele>474.55</ele>
        <time>2014-03-12T13:50:44Z</time>
      </trkpt>
      <trkpt lat="45.57628" lon="5.98855">
        <ele>475.03</ele>
        <time>2014-03-12T13:50:45Z</time>
      </trkpt>
      <trkpt lat="45.57627" lon="5.98856">
        <ele>475.03</ele>
        <time>2014-03-12T13:50:46Z</time>
      </trkpt>
      <trkpt lat="45.57626" lon="5.98858">
        <ele>475.51</ele>
        <time>2014-03-12T13:50:47Z</time>
      </trkpt>
      <trkpt lat="45.57624" lon="5.98859">
        <ele>475.51</ele>
        <time>2014-03-12T13:50:48Z</time>
      </trkpt>
      <trkpt lat="45.57623" lon="5.98859">
        <ele>475.51</ele>
        <time>2014-03-12T13:50:49Z</time>
      </trkpt>
      <trkpt lat="45.57621" lon="5.9886">
        <ele>475.51</ele>
        <time>2014-03-12T13:50:50Z</time>
      </trkpt>
      <trkpt lat="45.5762" lon="5.98861">
        <ele>475.51</ele>
        <time>2014-03-12T13:50:51Z</time>
      </trkpt>
      <trkpt lat="45.57619" lon="5.98862">
        <ele>475.99</ele>
        <time>2014-03-12T13:50:52Z</time>
      </trkpt>
      <trkpt lat="45.57604" lon="5.98882">
        <ele>477.43</ele>
        <time>2014-03-12T13:51:06Z</time>
      </trkpt>
      <trkpt lat="45.57604" lon="5.98884">
        <ele>477.91</ele>
        <time>2014-03-12T13:51:07Z</time>
      </trkpt>
      <trkpt lat="45.57607" lon="5.98919">
        <ele>480.32</ele>
        <time>2014-03-12T13:51:23Z</time>
      </trkpt>
      <trkpt lat="45.57612" lon="5.98948">
        <ele>483.68</ele>
        <time>2014-03-12T13:51:37Z</time>
      </trkpt>
      <trkpt lat="45.57616" lon="5.98978">
        <ele>486.56</ele>
        <time>2014-03-12T13:51:52Z</time>
      </trkpt>
      <trkpt lat="45.57612" lon="5.99006">
        <ele>488.97</ele>
        <time>2014-03-12T13:52:06Z</time>
      </trkpt>
      <trkpt lat="45.5761" lon="5.9903">
        <ele>490.89</ele>
        <time>2014-03-12T13:52:19Z</time>
      </trkpt>
      <trkpt lat="45.57609" lon="5.99048">
        <ele>493.29</ele>
        <time>2014-03-12T13:52:30Z</time>
      </trkpt>
      <trkpt lat="45.57612" lon="5.99071">
        <ele>496.66</ele>
        <time>2014-03-12T13:52:45Z</time>
      </trkpt>
      <trkpt lat="45.57608" lon="5.99093">
        <ele>499.54</ele>
        <time>2014-03-12T13:53:00Z</time>
      </trkpt>
      <trkpt lat="45.57607" lon="5.99096">
        <ele>500.02</ele>
        <time>2014-03-12T13:53:02Z</time>
      </trkpt>
      <trkpt lat="45.57607" lon="5.99106">
        <ele>501.46</ele>
        <time>2014-03-12T13:53:08Z</time>
      </trkpt>
      <trkpt lat="45.5761" lon="5.99139">
        <ele>503.39</ele>
        <time>2014-03-12T13:53:25Z</time>
      </trkpt>
      <trkpt lat="45.5761" lon="5.99141">
        <ele>503.87</ele>
        <time>2014-03-12T13:53:26Z</time>
      </trkpt>
      <trkpt lat="45.5761" lon="5.99145">
        <ele>503.87</ele>
        <time>2014-03-12T13:53:28Z</time>
      </trkpt>
      <trkpt lat="45.57608" lon="5.99149">
        <ele>503.87</ele>
        <time>2014-03-12T13:53:40Z</time>
      </trkpt>
      <trkpt lat="45.576" lon="5.99151">
        <ele>506.75</ele>
        <time>2014-03-12T13:53:55Z</time>
      </trkpt>
      <trkpt lat="45.57602" lon="5.99156">
        <ele>509.64</ele>
        <time>2014-03-12T13:54:09Z</time>
      </trkpt>
      <trkpt lat="45.5761" lon="5.99161">
        <ele>510.6</ele>
        <time>2014-03-12T13:54:22Z</time>
      </trkpt>
      <trkpt lat="45.57611" lon="5.99162">
        <ele>510.12</ele>
        <time>2014-03-12T13:54:23Z</time>
      </trkpt>
      <trkpt lat="45.57612" lon="5.99166">
        <ele>511.08</ele>
        <time>2014-03-12T13:54:36Z</time>
      </trkpt>
      <trkpt lat="45.57621" lon="5.99205">
        <ele>513</ele>
        <time>2014-03-12T13:54:52Z</time>
      </trkpt>
      <trkpt lat="45.57634" lon="5.99234">
        <ele>513.48</ele>
        <time>2014-03-12T13:55:04Z</time>
      </trkpt>
      <trkpt lat="45.57645" lon="5.99267">
        <ele>514.92</ele>
        <time>2014-03-12T13:55:17Z</time>
      </trkpt>
      <trkpt lat="45.57655" lon="5.9931">
        <ele>517.33</ele>
        <time>2014-03-12T13:55:33Z</time>
      </trkpt>
      <trkpt lat="45.57659" lon="5.9935">
        <ele>518.29</ele>
        <time>2014-03-12T13:55:48Z</time>
      </trkpt>
      <trkpt lat="45.57667" lon="5.99394">
        <ele>518.29</ele>
        <time>2014-03-12T13:56:01Z</time>
      </trkpt>
      <trkpt lat="45.57674" lon="5.99415">
        <ele>517.33</ele>
        <time>2014-03-12T13:56:06Z</time>
      </trkpt>
      <trkpt lat="45.57673" lon="5.99451">
        <ele>519.73</ele>
        <time>2014-03-12T13:56:19Z</time>
      </trkpt>
      <trkpt lat="45.57674" lon="5.99453">
        <ele>520.21</ele>
        <time>2014-03-12T13:56:20Z</time>
      </trkpt>
      <trkpt lat="45.57674" lon="5.99465">
        <ele>520.69</ele>
        <time>2014-03-12T13:56:25Z</time>
      </trkpt>
      <trkpt lat="45.57677" lon="5.99503">
        <ele>523.09</ele>
        <time>2014-03-12T13:56:41Z</time>
      </trkpt>
      <trkpt lat="45.57683" lon="5.9953">
        <ele>525.02</ele>
        <time>2014-03-12T13:56:55Z</time>
      </trkpt>
      <trkpt lat="45.57684" lon="5.99541">
        <ele>526.94</ele>
        <time>2014-03-12T13:57:01Z</time>
      </trkpt>
      <trkpt lat="45.57685" lon="5.99556">
        <ele>528.38</ele>
        <time>2014-03-12T13:57:09Z</time>
      </trkpt>
      <trkpt lat="45.57686" lon="5.99563">
        <ele>528.86</ele>
        <time>2014-03-12T13:57:13Z</time>
      </trkpt>
      <trkpt lat="45.57686" lon="5.99589">
        <ele>531.27</ele>
        <time>2014-03-12T13:57:28Z</time>
      </trkpt>
      <trkpt lat="45.57683" lon="5.99613">
        <ele>534.15</ele>
        <time>2014-03-12T13:57:42Z</time>
      </trkpt>
      <trkpt lat="45.57682" lon="5.99619">
        <ele>534.63</ele>
        <time>2014-03-12T13:57:47Z</time>
      </trkpt>
      <trkpt lat="45.57676" lon="5.99647">
        <ele>537.51</ele>
        <time>2014-03-12T13:58:05Z</time>
      </trkpt>
      <trkpt lat="45.57674" lon="5.9965">
        <ele>538.48</ele>
        <time>2014-03-12T13:58:07Z</time>
      </trkpt>
      <trkpt lat="45.57675" lon="5.99661">
        <ele>539.44</ele>
        <time>2014-03-12T13:58:14Z</time>
      </trkpt>
      <trkpt lat="45.57671" lon="5.99677">
        <ele>541.36</ele>
        <time>2014-03-12T13:58:23Z</time>
      </trkpt>
      <trkpt lat="45.57666" lon="5.99696">
        <ele>543.76</ele>
        <time>2014-03-12T13:58:37Z</time>
      </trkpt>
      <trkpt lat="45.57667" lon="5.99714">
        <ele>546.17</ele>
        <time>2014-03-12T13:58:51Z</time>
      </trkpt>
      <trkpt lat="45.57665" lon="5.99724">
        <ele>547.13</ele>
        <time>2014-03-12T13:58:58Z</time>
      </trkpt>
      <trkpt lat="45.57665" lon="5.99726">
        <ele>547.13</ele>
        <time>2014-03-12T13:59:00Z</time>
      </trkpt>
      <trkpt lat="45.57663" lon="5.99728">
        <ele>547.61</ele>
        <time>2014-03-12T13:59:19Z</time>
      </trkpt>
      <trkpt lat="45.57661" lon="5.99733">
        <ele>548.57</ele>
        <time>2014-03-12T13:59:29Z</time>
      </trkpt>
      <trkpt lat="45.57661" lon="5.99738">
        <ele>549.53</ele>
        <time>2014-03-12T13:59:46Z</time>
      </trkpt>
      <trkpt lat="45.5766" lon="5.99748">
        <ele>550.49</ele>
        <time>2014-03-12T13:59:56Z</time>
      </trkpt>
      <trkpt lat="45.57658" lon="5.99766">
        <ele>552.41</ele>
        <time>2014-03-12T14:00:06Z</time>
      </trkpt>
      <trkpt lat="45.57657" lon="5.99776">
        <ele>552.9</ele>
        <time>2014-03-12T14:00:12Z</time>
      </trkpt>
      <trkpt lat="45.57657" lon="5.9979">
        <ele>554.34</ele>
        <time>2014-03-12T14:00:18Z</time>
      </trkpt>
      <trkpt lat="45.57655" lon="5.99824">
        <ele>554.82</ele>
        <time>2014-03-12T14:00:31Z</time>
      </trkpt>
      <trkpt lat="45.57654" lon="5.99834">
        <ele>555.78</ele>
        <time>2014-03-12T14:00:35Z</time>
      </trkpt>
      <trkpt lat="45.57649" lon="5.99863">
        <ele>558.66</ele>
        <time>2014-03-12T14:00:50Z</time>
      </trkpt>
      <trkpt lat="45.57642" lon="5.99887">
        <ele>561.55</ele>
        <time>2014-03-12T14:01:04Z</time>
      </trkpt>
      <trkpt lat="45.57638" lon="5.99897">
        <ele>563.95</ele>
        <time>2014-03-12T14:01:10Z</time>
      </trkpt>
      <trkpt lat="45.57637" lon="5.99903">
        <ele>564.43</ele>
        <time>2014-03-12T14:01:14Z</time>
      </trkpt>
      <trkpt lat="45.57637" lon="5.99915">
        <ele>564.43</ele>
        <time>2014-03-12T14:01:20Z</time>
      </trkpt>
      <trkpt lat="45.57641" lon="5.99951">
        <ele>564.91</ele>
        <time>2014-03-12T14:01:35Z</time>
      </trkpt>
      <trkpt lat="45.57641" lon="5.9999">
        <ele>565.39</ele>
        <time>2014-03-12T14:01:48Z</time>
      </trkpt>
      <trkpt lat="45.5764" lon="6.00028">
        <ele>565.39</ele>
        <time>2014-03-12T14:02:01Z</time>
      </trkpt>
      <trkpt lat="45.57641" lon="6.00064">
        <ele>566.35</ele>
        <time>2014-03-12T14:02:12Z</time>
      </trkpt>
      <trkpt lat="45.57643" lon="6.00111">
        <ele>566.83</ele>
        <time>2014-03-12T14:02:25Z</time>
      </trkpt>
      <trkpt lat="45.57643" lon="6.00165">
        <ele>567.32</ele>
        <time>2014-03-12T14:02:39Z</time>
      </trkpt>
      <trkpt lat="45.5765" lon="6.00214">
        <ele>567.8</ele>
        <time>2014-03-12T14:02:52Z</time>
      </trkpt>
      <trkpt lat="45.57649" lon="6.0026">
        <ele>569.24</ele>
        <time>2014-03-12T14:03:05Z</time>
      </trkpt>
      <trkpt lat="45.57648" lon="6.00299">
        <ele>569.72</ele>
        <time>2014-03-12T14:03:17Z</time>
      </trkpt>
      <trkpt lat="45.57649" lon="6.00349">
        <ele>570.68</ele>
        <time>2014-03-12T14:03:30Z</time>
      </trkpt>
      <trkpt lat="45.57648" lon="6.00385">
        <ele>571.64</ele>
        <time>2014-03-12T14:03:42Z</time>
      </trkpt>
      <trkpt lat="45.57641" lon="6.00424">
        <ele>573.56</ele>
        <time>2014-03-12T14:03:56Z</time>
      </trkpt>
      <trkpt lat="45.57639" lon="6.00423">
        <ele>574.04</ele>
        <time>2014-03-12T14:03:57Z</time>
      </trkpt>
      <trkpt lat="45.57629" lon="6.00392">
        <ele>575.01</ele>
        <time>2014-03-12T14:04:11Z</time>
      </trkpt>
      <trkpt lat="45.57615" lon="6.00373">
        <ele>578.37</ele>
        <time>2014-03-12T14:04:22Z</time>
      </trkpt>
      <trkpt lat="45.57604" lon="6.00359">
        <ele>581.73</ele>
        <time>2014-03-12T14:04:34Z</time>
      </trkpt>
      <trkpt lat="45.57602" lon="6.00357">
        <ele>582.22</ele>
        <time>2014-03-12T14:04:45Z</time>
      </trkpt>
      <trkpt lat="45.57599" lon="6.00345">
        <ele>583.66</ele>
        <time>2014-03-12T14:04:58Z</time>
      </trkpt>
      <trkpt lat="45.57598" lon="6.00339">
        <ele>584.62</ele>
        <time>2014-03-12T14:05:12Z</time>
      </trkpt>
      <trkpt lat="45.57596" lon="6.00329">
        <ele>585.58</ele>
        <time>2014-03-12T14:05:32Z</time>
      </trkpt>
      <trkpt lat="45.57584" lon="6.00306">
        <ele>588.95</ele>
        <time>2014-03-12T14:05:44Z</time>
      </trkpt>
      <trkpt lat="45.57573" lon="6.00289">
        <ele>592.31</ele>
        <time>2014-03-12T14:05:56Z</time>
      </trkpt>
      <trkpt lat="45.57568" lon="6.00273">
        <ele>595.19</ele>
        <time>2014-03-12T14:06:06Z</time>
      </trkpt>
      <trkpt lat="45.57566" lon="6.00267">
        <ele>596.64</ele>
        <time>2014-03-12T14:06:10Z</time>
      </trkpt>
      <trkpt lat="45.57563" lon="6.00256">
        <ele>598.08</ele>
        <time>2014-03-12T14:06:18Z</time>
      </trkpt>
      <trkpt lat="45.57565" lon="6.00222">
        <ele>597.6</ele>
        <time>2014-03-12T14:06:34Z</time>
      </trkpt>
      <trkpt lat="45.57567" lon="6.00209">
        <ele>597.6</ele>
        <time>2014-03-12T14:06:47Z</time>
      </trkpt>
      <trkpt lat="45.57567" lon="6.002">
        <ele>597.12</ele>
        <time>2014-03-12T14:07:00Z</time>
      </trkpt>
      <trkpt lat="45.57568" lon="6.00198">
        <ele>597.12</ele>
        <time>2014-03-12T14:07:01Z</time>
      </trkpt>
      <trkpt lat="45.57567" lon="6.00168">
        <ele>597.6</ele>
        <time>2014-03-12T14:07:13Z</time>
      </trkpt>
      <trkpt lat="45.57567" lon="6.00121">
        <ele>596.15</ele>
        <time>2014-03-12T14:07:26Z</time>
      </trkpt>
      <trkpt lat="45.57563" lon="6.00062">
        <ele>596.64</ele>
        <time>2014-03-12T14:07:39Z</time>
      </trkpt>
      <trkpt lat="45.57561" lon="6.00023">
        <ele>600</ele>
        <time>2014-03-12T14:07:52Z</time>
      </trkpt>
      <trkpt lat="45.57552" lon="5.99983">
        <ele>602.4</ele>
        <time>2014-03-12T14:08:07Z</time>
      </trkpt>
      <trkpt lat="45.57544" lon="5.99946">
        <ele>604.33</ele>
        <time>2014-03-12T14:08:21Z</time>
      </trkpt>
      <trkpt lat="45.57534" lon="5.99927">
        <ele>606.25</ele>
        <time>2014-03-12T14:08:32Z</time>
      </trkpt>
      <trkpt lat="45.57529" lon="5.99918">
        <ele>607.69</ele>
        <time>2014-03-12T14:08:38Z</time>
      </trkpt>
      <trkpt lat="45.57526" lon="5.99914">
        <ele>608.17</ele>
        <time>2014-03-12T14:08:40Z</time>
      </trkpt>
      <trkpt lat="45.57524" lon="5.99908">
        <ele>609.13</ele>
        <time>2014-03-12T14:08:44Z</time>
      </trkpt>
      <trkpt lat="45.5752" lon="5.9989">
        <ele>611.06</ele>
        <time>2014-03-12T14:08:55Z</time>
      </trkpt>
      <trkpt lat="45.57516" lon="5.9988">
        <ele>612.02</ele>
        <time>2014-03-12T14:09:00Z</time>
      </trkpt>
      <trkpt lat="45.57514" lon="5.99856">
        <ele>612.98</ele>
        <time>2014-03-12T14:09:12Z</time>
      </trkpt>
      <trkpt lat="45.5751" lon="5.99852">
        <ele>613.94</ele>
        <time>2014-03-12T14:09:15Z</time>
      </trkpt>
      <trkpt lat="45.57509" lon="5.99848">
        <ele>614.9</ele>
        <time>2014-03-12T14:09:18Z</time>
      </trkpt>
      <trkpt lat="45.57507" lon="5.99834">
        <ele>615.86</ele>
        <time>2014-03-12T14:09:26Z</time>
      </trkpt>
      <trkpt lat="45.57495" lon="5.99813">
        <ele>618.75</ele>
        <time>2014-03-12T14:09:38Z</time>
      </trkpt>
      <trkpt lat="45.57493" lon="5.99811">
        <ele>618.75</ele>
        <time>2014-03-12T14:09:40Z</time>
      </trkpt>
      <trkpt lat="45.57489" lon="5.99802">
        <ele>618.75</ele>
        <time>2014-03-12T14:09:45Z</time>
      </trkpt>
      <trkpt lat="45.57479" lon="5.99797">
        <ele>620.19</ele>
        <time>2014-03-12T14:09:55Z</time>
      </trkpt>
      <trkpt lat="45.57477" lon="5.9979">
        <ele>620.19</ele>
        <time>2014-03-12T14:09:59Z</time>
      </trkpt>
      <trkpt lat="45.57473" lon="5.99781">
        <ele>620.19</ele>
        <time>2014-03-12T14:10:04Z</time>
      </trkpt>
      <trkpt lat="45.57467" lon="5.99765">
        <ele>620.19</ele>
        <time>2014-03-12T14:10:17Z</time>
      </trkpt>
      <trkpt lat="45.57467" lon="5.99767">
        <ele>620.19</ele>
        <time>2014-03-12T14:10:18Z</time>
      </trkpt>
      <trkpt lat="45.57468" lon="5.99776">
        <ele>620.67</ele>
        <time>2014-03-12T14:10:22Z</time>
      </trkpt>
      <trkpt lat="45.57468" lon="5.99805">
        <ele>621.63</ele>
        <time>2014-03-12T14:10:34Z</time>
      </trkpt>
      <trkpt lat="45.57467" lon="5.99811">
        <ele>622.11</ele>
        <time>2014-03-12T14:10:37Z</time>
      </trkpt>
      <trkpt lat="45.57473" lon="5.99845">
        <ele>623.55</ele>
        <time>2014-03-12T14:10:51Z</time>
      </trkpt>
      <trkpt lat="45.57474" lon="5.99854">
        <ele>624.03</ele>
        <time>2014-03-12T14:10:54Z</time>
      </trkpt>
      <trkpt lat="45.57477" lon="5.99884">
        <ele>624.03</ele>
        <time>2014-03-12T14:11:04Z</time>
      </trkpt>
      <trkpt lat="45.57471" lon="5.99921">
        <ele>625.47</ele>
        <time>2014-03-12T14:11:18Z</time>
      </trkpt>
      <trkpt lat="45.57469" lon="5.99929">
        <ele>626.44</ele>
        <time>2014-03-12T14:11:22Z</time>
      </trkpt>
      <trkpt lat="45.57467" lon="5.99939">
        <ele>627.4</ele>
        <time>2014-03-12T14:11:26Z</time>
      </trkpt>
      <trkpt lat="45.57458" lon="5.9997">
        <ele>630.76</ele>
        <time>2014-03-12T14:11:40Z</time>
      </trkpt>
      <trkpt lat="45.57454" lon="5.99981">
        <ele>631.72</ele>
        <time>2014-03-12T14:11:56Z</time>
      </trkpt>
      <trkpt lat="45.57454" lon="5.99981">
        <ele>632.68</ele>
        <time>2014-03-12T14:12:33Z</time>
      </trkpt>
      <trkpt lat="45.57454" lon="5.99981">
        <ele>632.68</ele>
        <time>2014-03-12T14:13:06Z</time>
      </trkpt>
      <trkpt lat="45.57452" lon="5.99984">
        <ele>632.2</ele>
        <time>2014-03-12T14:13:15Z</time>
      </trkpt>
      <trkpt lat="45.57438" lon="6.00003">
        <ele>633.65</ele>
        <time>2014-03-12T14:13:27Z</time>
      </trkpt>
      <trkpt lat="45.57437" lon="6.00007">
        <ele>634.13</ele>
        <time>2014-03-12T14:13:29Z</time>
      </trkpt>
      <trkpt lat="45.57439" lon="6.00019">
        <ele>635.09</ele>
        <time>2014-03-12T14:13:38Z</time>
      </trkpt>
      <trkpt lat="45.5743" lon="6.0005">
        <ele>637.01</ele>
        <time>2014-03-12T14:13:52Z</time>
      </trkpt>
      <trkpt lat="45.57422" lon="6.00101">
        <ele>639.89</ele>
        <time>2014-03-12T14:14:10Z</time>
      </trkpt>
      <trkpt lat="45.57413" lon="6.00146">
        <ele>643.26</ele>
        <time>2014-03-12T14:14:26Z</time>
      </trkpt>
      <trkpt lat="45.57405" lon="6.00189">
        <ele>646.14</ele>
        <time>2014-03-12T14:14:42Z</time>
      </trkpt>
      <trkpt lat="45.57398" lon="6.00225">
        <ele>649.03</ele>
        <time>2014-03-12T14:14:56Z</time>
      </trkpt>
      <trkpt lat="45.57392" lon="6.00265">
        <ele>652.39</ele>
        <time>2014-03-12T14:15:11Z</time>
      </trkpt>
      <trkpt lat="45.57383" lon="6.00306">
        <ele>655.76</ele>
        <time>2014-03-12T14:15:27Z</time>
      </trkpt>
      <trkpt lat="45.57375" lon="6.00342">
        <ele>658.64</ele>
        <time>2014-03-12T14:15:42Z</time>
      </trkpt>
      <trkpt lat="45.5737" lon="6.00343">
        <ele>658.16</ele>
        <time>2014-03-12T14:15:45Z</time>
      </trkpt>
      <trkpt lat="45.57369" lon="6.00331">
        <ele>660.08</ele>
        <time>2014-03-12T14:15:49Z</time>
      </trkpt>
      <trkpt lat="45.57367" lon="6.00283">
        <ele>662.49</ele>
        <time>2014-03-12T14:16:05Z</time>
      </trkpt>
      <trkpt lat="45.57365" lon="6.00235">
        <ele>663.93</ele>
        <time>2014-03-12T14:16:20Z</time>
      </trkpt>
      <trkpt lat="45.57363" lon="6.00177">
        <ele>663.93</ele>
        <time>2014-03-12T14:16:34Z</time>
      </trkpt>
      <trkpt lat="45.57364" lon="6.00106">
        <ele>662.49</ele>
        <time>2014-03-12T14:16:46Z</time>
      </trkpt>
      <trkpt lat="45.57364" lon="6.001">
        <ele>662.01</ele>
        <time>2014-03-12T14:16:47Z</time>
      </trkpt>
      <trkpt lat="45.57364" lon="6.00024">
        <ele>662.49</ele>
        <time>2014-03-12T14:17:02Z</time>
      </trkpt>
      <trkpt lat="45.5736" lon="5.99979">
        <ele>663.93</ele>
        <time>2014-03-12T14:17:14Z</time>
      </trkpt>
      <trkpt lat="45.57357" lon="5.99929">
        <ele>664.89</ele>
        <time>2014-03-12T14:17:28Z</time>
      </trkpt>
      <trkpt lat="45.57349" lon="5.99872">
        <ele>665.85</ele>
        <time>2014-03-12T14:17:43Z</time>
      </trkpt>
      <trkpt lat="45.57343" lon="5.99805">
        <ele>665.37</ele>
        <time>2014-03-12T14:18:00Z</time>
      </trkpt>
      <trkpt lat="45.57334" lon="5.99743">
        <ele>662.01</ele>
        <time>2014-03-12T14:18:11Z</time>
      </trkpt>
      <trkpt lat="45.57319" lon="5.99673">
        <ele>663.93</ele>
        <time>2014-03-12T14:18:25Z</time>
      </trkpt>
      <trkpt lat="45.57309" lon="5.99621">
        <ele>662.01</ele>
        <time>2014-03-12T14:18:34Z</time>
      </trkpt>
      <trkpt lat="45.57289" lon="5.99563">
        <ele>661.04</ele>
        <time>2014-03-12T14:18:47Z</time>
      </trkpt>
      <trkpt lat="45.57287" lon="5.99558">
        <ele>661.04</ele>
        <time>2014-03-12T14:18:59Z</time>
      </trkpt>
      <trkpt lat="45.57283" lon="5.99547">
        <ele>662.49</ele>
        <time>2014-03-12T14:19:05Z</time>
      </trkpt>
      <trkpt lat="45.57265" lon="5.99493">
        <ele>661.52</ele>
        <time>2014-03-12T14:19:19Z</time>
      </trkpt>
      <trkpt lat="45.57244" lon="5.99458">
        <ele>662.49</ele>
        <time>2014-03-12T14:19:32Z</time>
      </trkpt>
      <trkpt lat="45.57241" lon="5.99451">
        <ele>662.01</ele>
        <time>2014-03-12T14:19:35Z</time>
      </trkpt>
      <trkpt lat="45.57217" lon="5.99405">
        <ele>661.04</ele>
        <time>2014-03-12T14:19:50Z</time>
      </trkpt>
      <trkpt lat="45.57194" lon="5.99373">
        <ele>657.68</ele>
        <time>2014-03-12T14:20:02Z</time>
      </trkpt>
      <trkpt lat="45.57167" lon="5.99346">
        <ele>654.8</ele>
        <time>2014-03-12T14:20:14Z</time>
      </trkpt>
      <trkpt lat="45.57134" lon="5.9933">
        <ele>653.83</ele>
        <time>2014-03-12T14:20:26Z</time>
      </trkpt>
      <trkpt lat="45.57094" lon="5.99332">
        <ele>652.87</ele>
        <time>2014-03-12T14:20:38Z</time>
      </trkpt>
      <trkpt lat="45.57053" lon="5.99344">
        <ele>653.35</ele>
        <time>2014-03-12T14:20:49Z</time>
      </trkpt>
      <trkpt lat="45.57023" lon="5.99317">
        <ele>653.35</ele>
        <time>2014-03-12T14:21:01Z</time>
      </trkpt>
      <trkpt lat="45.5699" lon="5.99283">
        <ele>654.31</ele>
        <time>2014-03-12T14:21:14Z</time>
      </trkpt>
      <trkpt lat="45.56961" lon="5.99268">
        <ele>656.24</ele>
        <time>2014-03-12T14:21:25Z</time>
      </trkpt>
      <trkpt lat="45.56959" lon="5.99266">
        <ele>656.72</ele>
        <time>2014-03-12T14:21:26Z</time>
      </trkpt>
      <trkpt lat="45.56926" lon="5.99268">
        <ele>657.2</ele>
        <time>2014-03-12T14:21:39Z</time>
      </trkpt>
      <trkpt lat="45.56913" lon="5.99281">
        <ele>654.8</ele>
        <time>2014-03-12T14:21:45Z</time>
      </trkpt>
      <trkpt lat="45.56876" lon="5.99326">
        <ele>654.31</ele>
        <time>2014-03-12T14:21:59Z</time>
      </trkpt>
      <trkpt lat="45.56876" lon="5.99324">
        <ele>653.83</ele>
        <time>2014-03-12T14:22:04Z</time>
      </trkpt>
      <trkpt lat="45.56873" lon="5.99328">
        <ele>654.31</ele>
        <time>2014-03-12T14:22:14Z</time>
      </trkpt>
      <trkpt lat="45.56871" lon="5.99329">
        <ele>654.31</ele>
        <time>2014-03-12T14:22:15Z</time>
      </trkpt>
      <trkpt lat="45.56868" lon="5.99329">
        <ele>653.83</ele>
        <time>2014-03-12T14:22:16Z</time>
      </trkpt>
      <trkpt lat="45.56822" lon="5.99346">
        <ele>652.87</ele>
        <time>2014-03-12T14:22:30Z</time>
      </trkpt>
      <trkpt lat="45.56772" lon="5.99349">
        <ele>654.31</ele>
        <time>2014-03-12T14:22:43Z</time>
      </trkpt>
      <trkpt lat="45.56737" lon="5.99349">
        <ele>655.76</ele>
        <time>2014-03-12T14:22:57Z</time>
      </trkpt>
      <trkpt lat="45.56703" lon="5.9935">
        <ele>656.72</ele>
        <time>2014-03-12T14:23:10Z</time>
      </trkpt>
      <trkpt lat="45.5667" lon="5.99348">
        <ele>659.6</ele>
        <time>2014-03-12T14:23:25Z</time>
      </trkpt>
      <trkpt lat="45.56641" lon="5.99346">
        <ele>662.01</ele>
        <time>2014-03-12T14:23:39Z</time>
      </trkpt>
      <trkpt lat="45.56614" lon="5.99344">
        <ele>664.41</ele>
        <time>2014-03-12T14:23:52Z</time>
      </trkpt>
      <trkpt lat="45.56577" lon="5.99339">
        <ele>666.81</ele>
        <time>2014-03-12T14:24:09Z</time>
      </trkpt>
      <trkpt lat="45.56548" lon="5.99335">
        <ele>668.73</ele>
        <time>2014-03-12T14:24:22Z</time>
      </trkpt>
      <trkpt lat="45.56524" lon="5.99328">
        <ele>671.14</ele>
        <time>2014-03-12T14:24:35Z</time>
      </trkpt>
      <trkpt lat="45.56496" lon="5.99338">
        <ele>673.06</ele>
        <time>2014-03-12T14:24:49Z</time>
      </trkpt>
      <trkpt lat="45.5648" lon="5.99343">
        <ele>671.62</ele>
        <time>2014-03-12T14:24:54Z</time>
      </trkpt>
      <trkpt lat="45.56477" lon="5.99345">
        <ele>671.14</ele>
        <time>2014-03-12T14:24:55Z</time>
      </trkpt>
      <trkpt lat="45.56443" lon="5.99371">
        <ele>672.58</ele>
        <time>2014-03-12T14:25:06Z</time>
      </trkpt>
      <trkpt lat="45.56411" lon="5.99385">
        <ele>674.02</ele>
        <time>2014-03-12T14:25:20Z</time>
      </trkpt>
      <trkpt lat="45.56406" lon="5.99386">
        <ele>673.06</ele>
        <time>2014-03-12T14:25:21Z</time>
      </trkpt>
      <trkpt lat="45.56402" lon="5.99387">
        <ele>672.1</ele>
        <time>2014-03-12T14:25:22Z</time>
      </trkpt>
      <trkpt lat="45.56398" lon="5.99389">
        <ele>672.58</ele>
        <time>2014-03-12T14:25:23Z</time>
      </trkpt>
      <trkpt lat="45.56393" lon="5.99392">
        <ele>672.1</ele>
        <time>2014-03-12T14:25:24Z</time>
      </trkpt>
      <trkpt lat="45.56389" lon="5.99396">
        <ele>672.58</ele>
        <time>2014-03-12T14:25:25Z</time>
      </trkpt>
      <trkpt lat="45.56353" lon="5.99418">
        <ele>672.1</ele>
        <time>2014-03-12T14:25:37Z</time>
      </trkpt>
      <trkpt lat="45.56314" lon="5.9945">
        <ele>668.73</ele>
        <time>2014-03-12T14:25:48Z</time>
      </trkpt>
      <trkpt lat="45.56299" lon="5.99456">
        <ele>666.33</ele>
        <time>2014-03-12T14:25:52Z</time>
      </trkpt>
      <trkpt lat="45.56277" lon="5.99461">
        <ele>662.97</ele>
        <time>2014-03-12T14:25:59Z</time>
      </trkpt>
      <trkpt lat="45.56239" lon="5.99482">
        <ele>660.08</ele>
        <time>2014-03-12T14:26:06Z</time>
      </trkpt>
      <trkpt lat="45.56211" lon="5.99503">
        <ele>657.2</ele>
        <time>2014-03-12T14:26:13Z</time>
      </trkpt>
      <trkpt lat="45.56204" lon="5.99509">
        <ele>655.76</ele>
        <time>2014-03-12T14:26:15Z</time>
      </trkpt>
      <trkpt lat="45.56195" lon="5.99517">
        <ele>653.83</ele>
        <time>2014-03-12T14:26:19Z</time>
      </trkpt>
      <trkpt lat="45.56192" lon="5.99521">
        <ele>652.39</ele>
        <time>2014-03-12T14:26:31Z</time>
      </trkpt>
      <trkpt lat="45.56193" lon="5.99523">
        <ele>651.91</ele>
        <time>2014-03-12T14:26:54Z</time>
      </trkpt>
      <trkpt lat="45.56194" lon="5.99524">
        <ele>651.43</ele>
        <time>2014-03-12T14:27:07Z</time>
      </trkpt>
      <trkpt lat="45.56194" lon="5.99524">
        <ele>652.39</ele>
        <time>2014-03-12T14:27:39Z</time>
      </trkpt>
      <trkpt lat="45.56194" lon="5.99528">
        <ele>651.91</ele>
        <time>2014-03-12T14:27:42Z</time>
      </trkpt>
      <trkpt lat="45.56194" lon="5.9953">
        <ele>650.95</ele>
        <time>2014-03-12T14:27:43Z</time>
      </trkpt>
      <trkpt lat="45.56195" lon="5.99533">
        <ele>650.47</ele>
        <time>2014-03-12T14:27:44Z</time>
      </trkpt>
      <trkpt lat="45.56196" lon="5.99536">
        <ele>649.51</ele>
        <time>2014-03-12T14:27:45Z</time>
      </trkpt>
      <trkpt lat="45.56197" lon="5.9954">
        <ele>648.55</ele>
        <time>2014-03-12T14:27:46Z</time>
      </trkpt>
      <trkpt lat="45.56199" lon="5.99543">
        <ele>647.59</ele>
        <time>2014-03-12T14:27:47Z</time>
      </trkpt>
      <trkpt lat="45.56201" lon="5.99549">
        <ele>646.62</ele>
        <time>2014-03-12T14:27:49Z</time>
      </trkpt>
      <trkpt lat="45.56207" lon="5.99567">
        <ele>643.26</ele>
        <time>2014-03-12T14:27:58Z</time>
      </trkpt>
      <trkpt lat="45.56197" lon="5.99605">
        <ele>640.86</ele>
        <time>2014-03-12T14:28:00Z</time>
      </trkpt>
      <trkpt lat="45.56188" lon="5.99644">
        <ele>637.97</ele>
        <time>2014-03-12T14:28:06Z</time>
      </trkpt>
      <trkpt lat="45.56189" lon="5.9965">
        <ele>634.61</ele>
        <time>2014-03-12T14:28:08Z</time>
      </trkpt>
      <trkpt lat="45.56189" lon="5.99655">
        <ele>631.24</ele>
        <time>2014-03-12T14:28:11Z</time>
      </trkpt>
      <trkpt lat="45.56186" lon="5.99659">
        <ele>628.36</ele>
        <time>2014-03-12T14:28:14Z</time>
      </trkpt>
      <trkpt lat="45.56173" lon="5.99693">
        <ele>624.51</ele>
        <time>2014-03-12T14:28:18Z</time>
      </trkpt>
      <trkpt lat="45.56168" lon="5.99701">
        <ele>622.11</ele>
        <time>2014-03-12T14:28:21Z</time>
      </trkpt>
      <trkpt lat="45.56145" lon="5.99725">
        <ele>620.19</ele>
        <time>2014-03-12T14:28:30Z</time>
      </trkpt>
      <trkpt lat="45.56081" lon="5.99708">
        <ele>622.11</ele>
        <time>2014-03-12T14:28:34Z</time>
      </trkpt>
      <trkpt lat="45.56078" lon="5.99705">
        <ele>622.59</ele>
        <time>2014-03-12T14:28:36Z</time>
      </trkpt>
      <trkpt lat="45.56073" lon="5.99704">
        <ele>623.07</ele>
        <time>2014-03-12T14:28:39Z</time>
      </trkpt>
      <trkpt lat="45.56057" lon="5.99701">
        <ele>626.44</ele>
        <time>2014-03-12T14:28:49Z</time>
      </trkpt>
      <trkpt lat="45.56056" lon="5.99701">
        <ele>626.44</ele>
        <time>2014-03-12T14:28:50Z</time>
      </trkpt>
      <trkpt lat="45.5605" lon="5.99707">
        <ele>625.47</ele>
        <time>2014-03-12T14:28:54Z</time>
      </trkpt>
      <trkpt lat="45.5603" lon="5.99745">
        <ele>624.99</ele>
        <time>2014-03-12T14:29:05Z</time>
      </trkpt>
      <trkpt lat="45.56015" lon="5.99752">
        <ele>622.59</ele>
        <time>2014-03-12T14:29:10Z</time>
      </trkpt>
      <trkpt lat="45.56002" lon="5.99751">
        <ele>620.67</ele>
        <time>2014-03-12T14:29:15Z</time>
      </trkpt>
      <trkpt lat="45.55993" lon="5.99751">
        <ele>620.67</ele>
        <time>2014-03-12T14:29:19Z</time>
      </trkpt>
      <trkpt lat="45.55962" lon="5.99754">
        <ele>618.75</ele>
        <time>2014-03-12T14:29:29Z</time>
      </trkpt>
      <trkpt lat="45.55921" lon="5.99746">
        <ele>615.86</ele>
        <time>2014-03-12T14:29:42Z</time>
      </trkpt>
      <trkpt lat="45.55894" lon="5.99732">
        <ele>612.5</ele>
        <time>2014-03-12T14:29:50Z</time>
      </trkpt>
      <trkpt lat="45.55856" lon="5.99731">
        <ele>612.02</ele>
        <time>2014-03-12T14:30:01Z</time>
      </trkpt>
      <trkpt lat="45.55817" lon="5.99734">
        <ele>613.94</ele>
        <time>2014-03-12T14:30:14Z</time>
      </trkpt>
      <trkpt lat="45.55783" lon="5.99737">
        <ele>615.38</ele>
        <time>2014-03-12T14:30:26Z</time>
      </trkpt>
      <trkpt lat="45.55756" lon="5.9975">
        <ele>617.3</ele>
        <time>2014-03-12T14:30:38Z</time>
      </trkpt>
      <trkpt lat="45.55748" lon="5.99774">
        <ele>619.23</ele>
        <time>2014-03-12T14:30:49Z</time>
      </trkpt>
      <trkpt lat="45.5575" lon="5.99777">
        <ele>620.19</ele>
        <time>2014-03-12T14:30:54Z</time>
      </trkpt>
      <trkpt lat="45.55753" lon="5.99779">
        <ele>621.15</ele>
        <time>2014-03-12T14:30:58Z</time>
      </trkpt>
      <trkpt lat="45.5576" lon="5.9979">
        <ele>622.11</ele>
        <time>2014-03-12T14:31:04Z</time>
      </trkpt>
      <trkpt lat="45.55749" lon="5.99821">
        <ele>624.51</ele>
        <time>2014-03-12T14:31:18Z</time>
      </trkpt>
      <trkpt lat="45.55731" lon="5.99844">
        <ele>626.92</ele>
        <time>2014-03-12T14:31:32Z</time>
      </trkpt>
      <trkpt lat="45.55706" lon="5.9985">
        <ele>628.84</ele>
        <time>2014-03-12T14:31:46Z</time>
      </trkpt>
      <trkpt lat="45.55678" lon="5.99846">
        <ele>631.24</ele>
        <time>2014-03-12T14:32:00Z</time>
      </trkpt>
      <trkpt lat="45.55656" lon="5.99835">
        <ele>633.17</ele>
        <time>2014-03-12T14:32:12Z</time>
      </trkpt>
      <trkpt lat="45.55651" lon="5.9984">
        <ele>633.65</ele>
        <time>2014-03-12T14:32:16Z</time>
      </trkpt>
      <trkpt lat="45.55656" lon="5.99847">
        <ele>635.57</ele>
        <time>2014-03-12T14:32:31Z</time>
      </trkpt>
      <trkpt lat="45.55666" lon="5.99857">
        <ele>638.93</ele>
        <time>2014-03-12T14:32:45Z</time>
      </trkpt>
      <trkpt lat="45.55676" lon="5.99865">
        <ele>639.89</ele>
        <time>2014-03-12T14:32:52Z</time>
      </trkpt>
      <trkpt lat="45.55701" lon="5.99882">
        <ele>642.78</ele>
        <time>2014-03-12T14:33:08Z</time>
      </trkpt>
      <trkpt lat="45.55715" lon="5.99896">
        <ele>644.22</ele>
        <time>2014-03-12T14:33:18Z</time>
      </trkpt>
      <trkpt lat="45.55717" lon="5.99898">
        <ele>643.74</ele>
        <time>2014-03-12T14:33:20Z</time>
      </trkpt>
      <trkpt lat="45.55724" lon="5.99906">
        <ele>646.62</ele>
        <time>2014-03-12T14:33:34Z</time>
      </trkpt>
      <trkpt lat="45.55724" lon="5.99906">
        <ele>647.1</ele>
        <time>2014-03-12T14:33:35Z</time>
      </trkpt>
      <trkpt lat="45.55739" lon="5.99911">
        <ele>649.99</ele>
        <time>2014-03-12T14:33:50Z</time>
      </trkpt>
      <trkpt lat="45.55766" lon="5.99915">
        <ele>650.95</ele>
        <time>2014-03-12T14:34:04Z</time>
      </trkpt>
      <trkpt lat="45.55797" lon="5.99921">
        <ele>653.83</ele>
        <time>2014-03-12T14:34:20Z</time>
      </trkpt>
      <trkpt lat="45.55814" lon="5.99931">
        <ele>655.28</ele>
        <time>2014-03-12T14:34:30Z</time>
      </trkpt>
      <trkpt lat="45.5583" lon="5.99934">
        <ele>655.76</ele>
        <time>2014-03-12T14:34:34Z</time>
      </trkpt>
      <trkpt lat="45.55862" lon="5.99941">
        <ele>658.16</ele>
        <time>2014-03-12T14:34:48Z</time>
      </trkpt>
      <trkpt lat="45.5588" lon="5.99951">
        <ele>660.56</ele>
        <time>2014-03-12T14:35:02Z</time>
      </trkpt>
      <trkpt lat="45.55907" lon="5.99956">
        <ele>662.97</ele>
        <time>2014-03-12T14:35:16Z</time>
      </trkpt>
      <trkpt lat="45.55924" lon="5.99961">
        <ele>664.89</ele>
        <time>2014-03-12T14:35:27Z</time>
      </trkpt>
      <trkpt lat="45.55949" lon="5.99962">
        <ele>667.77</ele>
        <time>2014-03-12T14:35:42Z</time>
      </trkpt>
      <trkpt lat="45.55976" lon="5.9996">
        <ele>670.66</ele>
        <time>2014-03-12T14:35:57Z</time>
      </trkpt>
      <trkpt lat="45.56003" lon="5.99956">
        <ele>673.54</ele>
        <time>2014-03-12T14:36:13Z</time>
      </trkpt>
      <trkpt lat="45.56027" lon="5.99948">
        <ele>676.91</ele>
        <time>2014-03-12T14:36:27Z</time>
      </trkpt>
      <trkpt lat="45.56055" lon="5.99938">
        <ele>679.31</ele>
        <time>2014-03-12T14:36:43Z</time>
      </trkpt>
      <trkpt lat="45.56079" lon="5.99929">
        <ele>682.19</ele>
        <time>2014-03-12T14:36:58Z</time>
      </trkpt>
      <trkpt lat="45.56072" lon="5.99942">
        <ele>683.63</ele>
        <time>2014-03-12T14:37:08Z</time>
      </trkpt>
      <trkpt lat="45.56048" lon="5.99971">
        <ele>686.04</ele>
        <time>2014-03-12T14:37:24Z</time>
      </trkpt>
      <trkpt lat="45.56031" lon="5.99999">
        <ele>689.4</ele>
        <time>2014-03-12T14:37:38Z</time>
      </trkpt>
      <trkpt lat="45.56011" lon="6.00028">
        <ele>691.81</ele>
        <time>2014-03-12T14:37:53Z</time>
      </trkpt>
      <trkpt lat="45.55994" lon="6.0005">
        <ele>695.17</ele>
        <time>2014-03-12T14:38:06Z</time>
      </trkpt>
      <trkpt lat="45.55982" lon="6.00061">
        <ele>697.09</ele>
        <time>2014-03-12T14:38:18Z</time>
      </trkpt>
      <trkpt lat="45.55982" lon="6.00062">
        <ele>697.09</ele>
        <time>2014-03-12T14:38:33Z</time>
      </trkpt>
      <trkpt lat="45.55981" lon="6.00062">
        <ele>698.05</ele>
        <time>2014-03-12T14:38:52Z</time>
      </trkpt>
      <trkpt lat="45.55973" lon="6.00066">
        <ele>698.53</ele>
        <time>2014-03-12T14:38:58Z</time>
      </trkpt>
      <trkpt lat="45.55962" lon="6.00079">
        <ele>700.94</ele>
        <time>2014-03-12T14:39:10Z</time>
      </trkpt>
      <trkpt lat="45.55964" lon="6.0008">
        <ele>700.94</ele>
        <time>2014-03-12T14:39:11Z</time>
      </trkpt>
      <trkpt lat="45.55974" lon="6.00078">
        <ele>701.9</ele>
        <time>2014-03-12T14:39:16Z</time>
      </trkpt>
      <trkpt lat="45.56003" lon="6.00077">
        <ele>704.78</ele>
        <time>2014-03-12T14:39:32Z</time>
      </trkpt>
      <trkpt lat="45.56021" lon="6.00072">
        <ele>707.19</ele>
        <time>2014-03-12T14:39:44Z</time>
      </trkpt>
      <trkpt lat="45.56039" lon="6.00063">
        <ele>709.11</ele>
        <time>2014-03-12T14:39:55Z</time>
      </trkpt>
      <trkpt lat="45.56056" lon="6.00039">
        <ele>711.99</ele>
        <time>2014-03-12T14:40:11Z</time>
      </trkpt>
      <trkpt lat="45.56057" lon="6.00037">
        <ele>711.99</ele>
        <time>2014-03-12T14:40:12Z</time>
      </trkpt>
      <trkpt lat="45.56067" lon="6.00024">
        <ele>713.92</ele>
        <time>2014-03-12T14:40:21Z</time>
      </trkpt>
      <trkpt lat="45.56082" lon="6.00017">
        <ele>715.36</ele>
        <time>2014-03-12T14:40:31Z</time>
      </trkpt>
      <trkpt lat="45.56105" lon="6.00017">
        <ele>718.24</ele>
        <time>2014-03-12T14:40:46Z</time>
      </trkpt>
      <trkpt lat="45.56106" lon="6.00017">
        <ele>718.72</ele>
        <time>2014-03-12T14:40:47Z</time>
      </trkpt>
      <trkpt lat="45.56128" lon="6.00006">
        <ele>721.61</ele>
        <time>2014-03-12T14:41:02Z</time>
      </trkpt>
      <trkpt lat="45.56148" lon="5.99992">
        <ele>724.01</ele>
        <time>2014-03-12T14:41:16Z</time>
      </trkpt>
      <trkpt lat="45.56157" lon="5.99978">
        <ele>726.41</ele>
        <time>2014-03-12T14:41:25Z</time>
      </trkpt>
      <trkpt lat="45.56166" lon="5.99958">
        <ele>728.82</ele>
        <time>2014-03-12T14:41:37Z</time>
      </trkpt>
      <trkpt lat="45.5617" lon="5.99952">
        <ele>729.78</ele>
        <time>2014-03-12T14:41:41Z</time>
      </trkpt>
      <trkpt lat="45.56189" lon="5.99921">
        <ele>731.7</ele>
        <time>2014-03-12T14:41:58Z</time>
      </trkpt>
      <trkpt lat="45.56204" lon="5.99894">
        <ele>734.58</ele>
        <time>2014-03-12T14:42:12Z</time>
      </trkpt>
      <trkpt lat="45.56218" lon="5.99878">
        <ele>737.47</ele>
        <time>2014-03-12T14:42:23Z</time>
      </trkpt>
      <trkpt lat="45.56233" lon="5.99848">
        <ele>740.35</ele>
        <time>2014-03-12T14:42:39Z</time>
      </trkpt>
      <trkpt lat="45.56248" lon="5.99815">
        <ele>743.72</ele>
        <time>2014-03-12T14:42:56Z</time>
      </trkpt>
      <trkpt lat="45.56265" lon="5.99795">
        <ele>746.12</ele>
        <time>2014-03-12T14:43:10Z</time>
      </trkpt>
      <trkpt lat="45.56267" lon="5.99795">
        <ele>746.12</ele>
        <time>2014-03-12T14:43:12Z</time>
      </trkpt>
      <trkpt lat="45.56273" lon="5.99793">
        <ele>747.08</ele>
        <time>2014-03-12T14:43:16Z</time>
      </trkpt>
      <trkpt lat="45.56298" lon="5.99799">
        <ele>749</ele>
        <time>2014-03-12T14:43:30Z</time>
      </trkpt>
      <trkpt lat="45.56328" lon="5.99831">
        <ele>750.45</ele>
        <time>2014-03-12T14:43:45Z</time>
      </trkpt>
      <trkpt lat="45.56357" lon="5.99849">
        <ele>751.41</ele>
        <time>2014-03-12T14:43:58Z</time>
      </trkpt>
      <trkpt lat="45.56374" lon="5.99847">
        <ele>752.85</ele>
        <time>2014-03-12T14:44:08Z</time>
      </trkpt>
      <trkpt lat="45.56371" lon="5.99866">
        <ele>754.29</ele>
        <time>2014-03-12T14:44:17Z</time>
      </trkpt>
      <trkpt lat="45.5634" lon="5.99867">
        <ele>757.18</ele>
        <time>2014-03-12T14:44:33Z</time>
      </trkpt>
      <trkpt lat="45.56314" lon="5.99868">
        <ele>759.1</ele>
        <time>2014-03-12T14:44:47Z</time>
      </trkpt>
      <trkpt lat="45.56284" lon="5.99867">
        <ele>761.98</ele>
        <time>2014-03-12T14:45:03Z</time>
      </trkpt>
      <trkpt lat="45.56258" lon="5.9988">
        <ele>765.35</ele>
        <time>2014-03-12T14:45:18Z</time>
      </trkpt>
      <trkpt lat="45.56234" lon="5.99921">
        <ele>765.35</ele>
        <time>2014-03-12T14:45:32Z</time>
      </trkpt>
      <trkpt lat="45.56228" lon="5.99935">
        <ele>764.87</ele>
        <time>2014-03-12T14:45:35Z</time>
      </trkpt>
      <trkpt lat="45.56221" lon="5.99957">
        <ele>764.87</ele>
        <time>2014-03-12T14:45:39Z</time>
      </trkpt>
      <trkpt lat="45.56219" lon="5.99963">
        <ele>764.87</ele>
        <time>2014-03-12T14:45:40Z</time>
      </trkpt>
      <trkpt lat="45.56218" lon="5.99968">
        <ele>765.35</ele>
        <time>2014-03-12T14:45:41Z</time>
      </trkpt>
      <trkpt lat="45.56216" lon="5.99973">
        <ele>764.87</ele>
        <time>2014-03-12T14:45:42Z</time>
      </trkpt>
      <trkpt lat="45.56215" lon="5.99977">
        <ele>765.83</ele>
        <time>2014-03-12T14:45:43Z</time>
      </trkpt>
      <trkpt lat="45.56209" lon="6.00035">
        <ele>766.79</ele>
        <time>2014-03-12T14:45:56Z</time>
      </trkpt>
      <trkpt lat="45.56199" lon="6.00098">
        <ele>764.39</ele>
        <time>2014-03-12T14:46:09Z</time>
      </trkpt>
      <trkpt lat="45.56186" lon="6.00184">
        <ele>761.5</ele>
        <time>2014-03-12T14:46:20Z</time>
      </trkpt>
      <trkpt lat="45.56185" lon="6.00192">
        <ele>761.98</ele>
        <time>2014-03-12T14:46:21Z</time>
      </trkpt>
      <trkpt lat="45.56186" lon="6.00199">
        <ele>761.5</ele>
        <time>2014-03-12T14:46:22Z</time>
      </trkpt>
      <trkpt lat="45.56187" lon="6.00206">
        <ele>761.5</ele>
        <time>2014-03-12T14:46:23Z</time>
      </trkpt>
      <trkpt lat="45.56189" lon="6.00213">
        <ele>761.98</ele>
        <time>2014-03-12T14:46:24Z</time>
      </trkpt>
      <trkpt lat="45.5619" lon="6.0022">
        <ele>761.5</ele>
        <time>2014-03-12T14:46:25Z</time>
      </trkpt>
      <trkpt lat="45.56191" lon="6.00227">
        <ele>761.02</ele>
        <time>2014-03-12T14:46:26Z</time>
      </trkpt>
      <trkpt lat="45.562" lon="6.00261">
        <ele>759.1</ele>
        <time>2014-03-12T14:46:33Z</time>
      </trkpt>
      <trkpt lat="45.56202" lon="6.00266">
        <ele>759.1</ele>
        <time>2014-03-12T14:46:34Z</time>
      </trkpt>
      <trkpt lat="45.56205" lon="6.00278">
        <ele>757.66</ele>
        <time>2014-03-12T14:46:36Z</time>
      </trkpt>
      <trkpt lat="45.56209" lon="6.00297">
        <ele>756.69</ele>
        <time>2014-03-12T14:46:39Z</time>
      </trkpt>
      <trkpt lat="45.5621" lon="6.00303">
        <ele>756.21</ele>
        <time>2014-03-12T14:46:40Z</time>
      </trkpt>
      <trkpt lat="45.56223" lon="6.00331">
        <ele>754.29</ele>
        <time>2014-03-12T14:46:45Z</time>
      </trkpt>
      <trkpt lat="45.56241" lon="6.00354">
        <ele>753.33</ele>
        <time>2014-03-12T14:46:49Z</time>
      </trkpt>
      <trkpt lat="45.56252" lon="6.00372">
        <ele>752.85</ele>
        <time>2014-03-12T14:46:52Z</time>
      </trkpt>
      <trkpt lat="45.56261" lon="6.00382">
        <ele>752.85</ele>
        <time>2014-03-12T14:46:54Z</time>
      </trkpt>
      <trkpt lat="45.56266" lon="6.00385">
        <ele>751.89</ele>
        <time>2014-03-12T14:46:55Z</time>
      </trkpt>
      <trkpt lat="45.56271" lon="6.00387">
        <ele>752.37</ele>
        <time>2014-03-12T14:46:56Z</time>
      </trkpt>
      <trkpt lat="45.56276" lon="6.00388">
        <ele>752.37</ele>
        <time>2014-03-12T14:46:57Z</time>
      </trkpt>
      <trkpt lat="45.56281" lon="6.00392">
        <ele>751.89</ele>
        <time>2014-03-12T14:46:58Z</time>
      </trkpt>
      <trkpt lat="45.56311" lon="6.00412">
        <ele>748.52</ele>
        <time>2014-03-12T14:47:04Z</time>
      </trkpt>
      <trkpt lat="45.56324" lon="6.00423">
        <ele>747.56</ele>
        <time>2014-03-12T14:47:06Z</time>
      </trkpt>
      <trkpt lat="45.56333" lon="6.00431">
        <ele>747.08</ele>
        <time>2014-03-12T14:47:08Z</time>
      </trkpt>
      <trkpt lat="45.56349" lon="6.00441">
        <ele>745.16</ele>
        <time>2014-03-12T14:47:11Z</time>
      </trkpt>
      <trkpt lat="45.56356" lon="6.00448">
        <ele>743.72</ele>
        <time>2014-03-12T14:47:12Z</time>
      </trkpt>
      <trkpt lat="45.56377" lon="6.0047">
        <ele>742.76</ele>
        <time>2014-03-12T14:47:16Z</time>
      </trkpt>
      <trkpt lat="45.56424" lon="6.00546">
        <ele>740.35</ele>
        <time>2014-03-12T14:47:28Z</time>
      </trkpt>
      <trkpt lat="45.56439" lon="6.00564">
        <ele>738.91</ele>
        <time>2014-03-12T14:47:31Z</time>
      </trkpt>
      <trkpt lat="45.56456" lon="6.00592">
        <ele>736.51</ele>
        <time>2014-03-12T14:47:35Z</time>
      </trkpt>
      <trkpt lat="45.56461" lon="6.00598">
        <ele>735.55</ele>
        <time>2014-03-12T14:47:36Z</time>
      </trkpt>
      <trkpt lat="45.56465" lon="6.00603">
        <ele>736.03</ele>
        <time>2014-03-12T14:47:37Z</time>
      </trkpt>
      <trkpt lat="45.5647" lon="6.00608">
        <ele>735.07</ele>
        <time>2014-03-12T14:47:38Z</time>
      </trkpt>
      <trkpt lat="45.56475" lon="6.00611">
        <ele>734.58</ele>
        <time>2014-03-12T14:47:39Z</time>
      </trkpt>
      <trkpt lat="45.56481" lon="6.00613">
        <ele>734.1</ele>
        <time>2014-03-12T14:47:40Z</time>
      </trkpt>
      <trkpt lat="45.56491" lon="6.00617">
        <ele>733.62</ele>
        <time>2014-03-12T14:47:42Z</time>
      </trkpt>
      <trkpt lat="45.56496" lon="6.00619">
        <ele>733.62</ele>
        <time>2014-03-12T14:47:43Z</time>
      </trkpt>
      <trkpt lat="45.56502" lon="6.0062">
        <ele>732.66</ele>
        <time>2014-03-12T14:47:44Z</time>
      </trkpt>
      <trkpt lat="45.56533" lon="6.00633">
        <ele>730.74</ele>
        <time>2014-03-12T14:47:49Z</time>
      </trkpt>
      <trkpt lat="45.56572" lon="6.00666">
        <ele>727.37</ele>
        <time>2014-03-12T14:47:56Z</time>
      </trkpt>
      <trkpt lat="45.56603" lon="6.00689">
        <ele>724.01</ele>
        <time>2014-03-12T14:48:00Z</time>
      </trkpt>
      <trkpt lat="45.56612" lon="6.00696">
        <ele>724.01</ele>
        <time>2014-03-12T14:48:02Z</time>
      </trkpt>
      <trkpt lat="45.56619" lon="6.007">
        <ele>722.57</ele>
        <time>2014-03-12T14:48:03Z</time>
      </trkpt>
      <trkpt lat="45.56633" lon="6.00704">
        <ele>721.61</ele>
        <time>2014-03-12T14:48:05Z</time>
      </trkpt>
      <trkpt lat="45.56639" lon="6.00704">
        <ele>721.13</ele>
        <time>2014-03-12T14:48:06Z</time>
      </trkpt>
      <trkpt lat="45.56649" lon="6.00705">
        <ele>720.65</ele>
        <time>2014-03-12T14:48:09Z</time>
      </trkpt>
      <trkpt lat="45.56651" lon="6.00711">
        <ele>720.16</ele>
        <time>2014-03-12T14:48:10Z</time>
      </trkpt>
      <trkpt lat="45.56661" lon="6.0074">
        <ele>717.28</ele>
        <time>2014-03-12T14:48:14Z</time>
      </trkpt>
      <trkpt lat="45.56665" lon="6.00745">
        <ele>716.8</ele>
        <time>2014-03-12T14:48:15Z</time>
      </trkpt>
      <trkpt lat="45.56669" lon="6.00749">
        <ele>716.32</ele>
        <time>2014-03-12T14:48:16Z</time>
      </trkpt>
      <trkpt lat="45.56673" lon="6.00751">
        <ele>715.84</ele>
        <time>2014-03-12T14:48:17Z</time>
      </trkpt>
      <trkpt lat="45.56676" lon="6.00754">
        <ele>715.36</ele>
        <time>2014-03-12T14:48:18Z</time>
      </trkpt>
      <trkpt lat="45.56679" lon="6.0076">
        <ele>714.88</ele>
        <time>2014-03-12T14:48:19Z</time>
      </trkpt>
      <trkpt lat="45.56682" lon="6.00766">
        <ele>714.4</ele>
        <time>2014-03-12T14:48:20Z</time>
      </trkpt>
      <trkpt lat="45.56693" lon="6.00793">
        <ele>711.03</ele>
        <time>2014-03-12T14:48:24Z</time>
      </trkpt>
      <trkpt lat="45.56694" lon="6.008">
        <ele>710.07</ele>
        <time>2014-03-12T14:48:25Z</time>
      </trkpt>
      <trkpt lat="45.56694" lon="6.00808">
        <ele>709.59</ele>
        <time>2014-03-12T14:48:26Z</time>
      </trkpt>
      <trkpt lat="45.56692" lon="6.00814">
        <ele>709.59</ele>
        <time>2014-03-12T14:48:27Z</time>
      </trkpt>
      <trkpt lat="45.56663" lon="6.0086">
        <ele>706.23</ele>
        <time>2014-03-12T14:48:34Z</time>
      </trkpt>
      <trkpt lat="45.56658" lon="6.00868">
        <ele>706.71</ele>
        <time>2014-03-12T14:48:35Z</time>
      </trkpt>
      <trkpt lat="45.56606" lon="6.00943">
        <ele>703.34</ele>
        <time>2014-03-12T14:48:44Z</time>
      </trkpt>
      <trkpt lat="45.56585" lon="6.00976">
        <ele>703.34</ele>
        <time>2014-03-12T14:48:48Z</time>
      </trkpt>
      <trkpt lat="45.56581" lon="6.00985">
        <ele>703.82</ele>
        <time>2014-03-12T14:48:49Z</time>
      </trkpt>
      <trkpt lat="45.56578" lon="6.00994">
        <ele>702.86</ele>
        <time>2014-03-12T14:48:50Z</time>
      </trkpt>
      <trkpt lat="45.56568" lon="6.01026">
        <ele>703.34</ele>
        <time>2014-03-12T14:48:54Z</time>
      </trkpt>
      <trkpt lat="45.56525" lon="6.0109">
        <ele>703.34</ele>
        <time>2014-03-12T14:49:06Z</time>
      </trkpt>
      <trkpt lat="45.56522" lon="6.01095">
        <ele>703.82</ele>
        <time>2014-03-12T14:49:07Z</time>
      </trkpt>
      <trkpt lat="45.56508" lon="6.01145">
        <ele>704.3</ele>
        <time>2014-03-12T14:49:18Z</time>
      </trkpt>
      <trkpt lat="45.56482" lon="6.01141">
        <ele>707.19</ele>
        <time>2014-03-12T14:49:31Z</time>
      </trkpt>
      <trkpt lat="45.56461" lon="6.01119">
        <ele>710.55</ele>
        <time>2014-03-12T14:49:47Z</time>
      </trkpt>
      <trkpt lat="45.56443" lon="6.01095">
        <ele>713.44</ele>
        <time>2014-03-12T14:50:02Z</time>
      </trkpt>
      <trkpt lat="45.56421" lon="6.01064">
        <ele>716.32</ele>
        <time>2014-03-12T14:50:21Z</time>
      </trkpt>
      <trkpt lat="45.56408" lon="6.01037">
        <ele>719.2</ele>
        <time>2014-03-12T14:50:36Z</time>
      </trkpt>
      <trkpt lat="45.56398" lon="6.01029">
        <ele>720.16</ele>
        <time>2014-03-12T14:50:45Z</time>
      </trkpt>
      <trkpt lat="45.56397" lon="6.01029">
        <ele>720.65</ele>
        <time>2014-03-12T14:50:46Z</time>
      </trkpt>
      <trkpt lat="45.56396" lon="6.0103">
        <ele>721.13</ele>
        <time>2014-03-12T14:50:47Z</time>
      </trkpt>
      <trkpt lat="45.56382" lon="6.01035">
        <ele>723.53</ele>
        <time>2014-03-12T14:51:00Z</time>
      </trkpt>
      <trkpt lat="45.56381" lon="6.01037">
        <ele>724.01</ele>
        <time>2014-03-12T14:51:02Z</time>
      </trkpt>
      <trkpt lat="45.56378" lon="6.0104">
        <ele>724.97</ele>
        <time>2014-03-12T14:51:05Z</time>
      </trkpt>
      <trkpt lat="45.56363" lon="6.01048">
        <ele>727.37</ele>
        <time>2014-03-12T14:51:17Z</time>
      </trkpt>
      <trkpt lat="45.56361" lon="6.01048">
        <ele>727.86</ele>
        <time>2014-03-12T14:51:19Z</time>
      </trkpt>
      <trkpt lat="45.5636" lon="6.01049">
        <ele>728.34</ele>
        <time>2014-03-12T14:51:20Z</time>
      </trkpt>
      <trkpt lat="45.56358" lon="6.01049">
        <ele>728.34</ele>
        <time>2014-03-12T14:51:21Z</time>
      </trkpt>
      <trkpt lat="45.56345" lon="6.01057">
        <ele>731.22</ele>
        <time>2014-03-12T14:51:35Z</time>
      </trkpt>
      <trkpt lat="45.56341" lon="6.0106">
        <ele>731.7</ele>
        <time>2014-03-12T14:51:37Z</time>
      </trkpt>
      <trkpt lat="45.56321" lon="6.01062">
        <ele>735.07</ele>
        <time>2014-03-12T14:51:52Z</time>
      </trkpt>
      <trkpt lat="45.56303" lon="6.01063">
        <ele>736.51</ele>
        <time>2014-03-12T14:52:06Z</time>
      </trkpt>
      <trkpt lat="45.56297" lon="6.01064">
        <ele>737.47</ele>
        <time>2014-03-12T14:52:11Z</time>
      </trkpt>
      <trkpt lat="45.56266" lon="6.01067">
        <ele>736.99</ele>
        <time>2014-03-12T14:52:25Z</time>
      </trkpt>
      <trkpt lat="45.56243" lon="6.0104">
        <ele>739.87</ele>
        <time>2014-03-12T14:52:41Z</time>
      </trkpt>
      <trkpt lat="45.56233" lon="6.01006">
        <ele>743.24</ele>
        <time>2014-03-12T14:52:54Z</time>
      </trkpt>
      <trkpt lat="45.56224" lon="6.00966">
        <ele>745.64</ele>
        <time>2014-03-12T14:53:10Z</time>
      </trkpt>
      <trkpt lat="45.562" lon="6.00947">
        <ele>749</ele>
        <time>2014-03-12T14:53:26Z</time>
      </trkpt>
      <trkpt lat="45.56176" lon="6.00932">
        <ele>751.41</ele>
        <time>2014-03-12T14:53:40Z</time>
      </trkpt>
      <trkpt lat="45.56151" lon="6.0092">
        <ele>754.29</ele>
        <time>2014-03-12T14:53:56Z</time>
      </trkpt>
      <trkpt lat="45.56126" lon="6.00927">
        <ele>756.21</ele>
        <time>2014-03-12T14:54:11Z</time>
      </trkpt>
      <trkpt lat="45.56104" lon="6.00939">
        <ele>759.1</ele>
        <time>2014-03-12T14:54:24Z</time>
      </trkpt>
      <trkpt lat="45.56072" lon="6.00951">
        <ele>762.46</ele>
        <time>2014-03-12T14:54:42Z</time>
      </trkpt>
      <trkpt lat="45.5605" lon="6.00971">
        <ele>764.87</ele>
        <time>2014-03-12T14:54:57Z</time>
      </trkpt>
      <trkpt lat="45.56038" lon="6.01002">
        <ele>767.27</ele>
        <time>2014-03-12T14:55:11Z</time>
      </trkpt>
      <trkpt lat="45.56018" lon="6.01035">
        <ele>770.15</ele>
        <time>2014-03-12T14:55:27Z</time>
      </trkpt>
      <trkpt lat="45.55999" lon="6.01062">
        <ele>772.08</ele>
        <time>2014-03-12T14:55:42Z</time>
      </trkpt>
      <trkpt lat="45.55981" lon="6.01081">
        <ele>774.96</ele>
        <time>2014-03-12T14:55:55Z</time>
      </trkpt>
      <trkpt lat="45.55965" lon="6.0111">
        <ele>777.84</ele>
        <time>2014-03-12T14:56:10Z</time>
      </trkpt>
      <trkpt lat="45.55952" lon="6.01138">
        <ele>780.25</ele>
        <time>2014-03-12T14:56:23Z</time>
      </trkpt>
      <trkpt lat="45.55932" lon="6.01166">
        <ele>783.13</ele>
        <time>2014-03-12T14:56:39Z</time>
      </trkpt>
      <trkpt lat="45.55911" lon="6.01198">
        <ele>785.53</ele>
        <time>2014-03-12T14:56:56Z</time>
      </trkpt>
      <trkpt lat="45.55889" lon="6.01217">
        <ele>788.9</ele>
        <time>2014-03-12T14:57:11Z</time>
      </trkpt>
      <trkpt lat="45.55859" lon="6.01218">
        <ele>790.82</ele>
        <time>2014-03-12T14:57:26Z</time>
      </trkpt>
      <trkpt lat="45.55831" lon="6.012">
        <ele>793.22</ele>
        <time>2014-03-12T14:57:42Z</time>
      </trkpt>
      <trkpt lat="45.55811" lon="6.01176">
        <ele>795.63</ele>
        <time>2014-03-12T14:57:56Z</time>
      </trkpt>
      <trkpt lat="45.55787" lon="6.01141">
        <ele>798.51</ele>
        <time>2014-03-12T14:58:12Z</time>
      </trkpt>
      <trkpt lat="45.55779" lon="6.01097">
        <ele>800.44</ele>
        <time>2014-03-12T14:58:27Z</time>
      </trkpt>
      <trkpt lat="45.55788" lon="6.01053">
        <ele>803.32</ele>
        <time>2014-03-12T14:58:41Z</time>
      </trkpt>
      <trkpt lat="45.55812" lon="6.01024">
        <ele>805.24</ele>
        <time>2014-03-12T14:58:55Z</time>
      </trkpt>
      <trkpt lat="45.55841" lon="6.01016">
        <ele>807.16</ele>
        <time>2014-03-12T14:59:09Z</time>
      </trkpt>
      <trkpt lat="45.55856" lon="6.00982">
        <ele>809.57</ele>
        <time>2014-03-12T14:59:23Z</time>
      </trkpt>
      <trkpt lat="45.5584" lon="6.00933">
        <ele>811.49</ele>
        <time>2014-03-12T14:59:39Z</time>
      </trkpt>
      <trkpt lat="45.55814" lon="6.009">
        <ele>813.41</ele>
        <time>2014-03-12T14:59:54Z</time>
      </trkpt>
      <trkpt lat="45.55785" lon="6.00882">
        <ele>816.78</ele>
        <time>2014-03-12T15:00:08Z</time>
      </trkpt>
      <trkpt lat="45.55758" lon="6.00873">
        <ele>819.66</ele>
        <time>2014-03-12T15:00:21Z</time>
      </trkpt>
      <trkpt lat="45.55747" lon="6.00881">
        <ele>821.1</ele>
        <time>2014-03-12T15:00:27Z</time>
      </trkpt>
      <trkpt lat="45.55725" lon="6.00921">
        <ele>822.55</ele>
        <time>2014-03-12T15:00:42Z</time>
      </trkpt>
      <trkpt lat="45.55718" lon="6.00971">
        <ele>823.99</ele>
        <time>2014-03-12T15:00:56Z</time>
      </trkpt>
      <trkpt lat="45.55694" lon="6.00967">
        <ele>825.91</ele>
        <time>2014-03-12T15:01:07Z</time>
      </trkpt>
      <trkpt lat="45.55671" lon="6.00924">
        <ele>826.39</ele>
        <time>2014-03-12T15:01:21Z</time>
      </trkpt>
      <trkpt lat="45.55636" lon="6.00899">
        <ele>825.43</ele>
        <time>2014-03-12T15:01:35Z</time>
      </trkpt>
      <trkpt lat="45.55619" lon="6.00877">
        <ele>823.99</ele>
        <time>2014-03-12T15:01:41Z</time>
      </trkpt>
      <trkpt lat="45.55615" lon="6.00873">
        <ele>823.99</ele>
        <time>2014-03-12T15:01:42Z</time>
      </trkpt>
      <trkpt lat="45.55605" lon="6.00858">
        <ele>823.03</ele>
        <time>2014-03-12T15:01:45Z</time>
      </trkpt>
      <trkpt lat="45.55601" lon="6.00852">
        <ele>822.55</ele>
        <time>2014-03-12T15:01:46Z</time>
      </trkpt>
      <trkpt lat="45.55599" lon="6.00846">
        <ele>822.06</ele>
        <time>2014-03-12T15:01:47Z</time>
      </trkpt>
      <trkpt lat="45.55576" lon="6.0078">
        <ele>820.14</ele>
        <time>2014-03-12T15:01:58Z</time>
      </trkpt>
      <trkpt lat="45.55553" lon="6.00712">
        <ele>817.74</ele>
        <time>2014-03-12T15:02:09Z</time>
      </trkpt>
      <trkpt lat="45.55546" lon="6.00696">
        <ele>816.3</ele>
        <time>2014-03-12T15:02:12Z</time>
      </trkpt>
      <trkpt lat="45.55543" lon="6.00692">
        <ele>816.3</ele>
        <time>2014-03-12T15:02:13Z</time>
      </trkpt>
      <trkpt lat="45.55539" lon="6.00688">
        <ele>815.82</ele>
        <time>2014-03-12T15:02:14Z</time>
      </trkpt>
      <trkpt lat="45.55515" lon="6.00669">
        <ele>812.45</ele>
        <time>2014-03-12T15:02:21Z</time>
      </trkpt>
      <trkpt lat="45.55492" lon="6.00681">
        <ele>809.57</ele>
        <time>2014-03-12T15:02:31Z</time>
      </trkpt>
      <trkpt lat="45.55488" lon="6.00686">
        <ele>808.61</ele>
        <time>2014-03-12T15:02:33Z</time>
      </trkpt>
      <trkpt lat="45.55483" lon="6.00695">
        <ele>807.16</ele>
        <time>2014-03-12T15:02:36Z</time>
      </trkpt>
      <trkpt lat="45.55479" lon="6.00727">
        <ele>803.8</ele>
        <time>2014-03-12T15:02:45Z</time>
      </trkpt>
      <trkpt lat="45.55476" lon="6.00742">
        <ele>802.84</ele>
        <time>2014-03-12T15:02:54Z</time>
      </trkpt>
      <trkpt lat="45.55473" lon="6.00752">
        <ele>802.36</ele>
        <time>2014-03-12T15:03:06Z</time>
      </trkpt>
      <trkpt lat="45.55473" lon="6.00762">
        <ele>802.36</ele>
        <time>2014-03-12T15:03:10Z</time>
      </trkpt>
      <trkpt lat="45.55473" lon="6.00765">
        <ele>801.88</ele>
        <time>2014-03-12T15:03:11Z</time>
      </trkpt>
      <trkpt lat="45.55472" lon="6.00769">
        <ele>801.88</ele>
        <time>2014-03-12T15:03:12Z</time>
      </trkpt>
      <trkpt lat="45.55471" lon="6.00773">
        <ele>800.92</ele>
        <time>2014-03-12T15:03:13Z</time>
      </trkpt>
      <trkpt lat="45.5547" lon="6.00777">
        <ele>800.44</ele>
        <time>2014-03-12T15:03:14Z</time>
      </trkpt>
      <trkpt lat="45.55469" lon="6.00781">
        <ele>800.44</ele>
        <time>2014-03-12T15:03:15Z</time>
      </trkpt>
      <trkpt lat="45.55463" lon="6.0081">
        <ele>798.51</ele>
        <time>2014-03-12T15:03:25Z</time>
      </trkpt>
      <trkpt lat="45.55461" lon="6.00814">
        <ele>798.03</ele>
        <time>2014-03-12T15:03:38Z</time>
      </trkpt>
      <trkpt lat="45.55459" lon="6.00823">
        <ele>797.55</ele>
        <time>2014-03-12T15:03:51Z</time>
      </trkpt>
      <trkpt lat="45.55458" lon="6.00828">
        <ele>797.07</ele>
        <time>2014-03-12T15:04:09Z</time>
      </trkpt>
      <trkpt lat="45.55453" lon="6.00845">
        <ele>793.71</ele>
        <time>2014-03-12T15:04:15Z</time>
      </trkpt>
      <trkpt lat="45.55456" lon="6.00883">
        <ele>790.82</ele>
        <time>2014-03-12T15:04:23Z</time>
      </trkpt>
      <trkpt lat="45.55462" lon="6.009">
        <ele>787.46</ele>
        <time>2014-03-12T15:04:28Z</time>
      </trkpt>
      <trkpt lat="45.55467" lon="6.00911">
        <ele>785.53</ele>
        <time>2014-03-12T15:04:31Z</time>
      </trkpt>
      <trkpt lat="45.55478" lon="6.00927">
        <ele>783.13</ele>
        <time>2014-03-12T15:04:35Z</time>
      </trkpt>
      <trkpt lat="45.55485" lon="6.00937">
        <ele>781.69</ele>
        <time>2014-03-12T15:04:38Z</time>
      </trkpt>
      <trkpt lat="45.55495" lon="6.00955">
        <ele>778.32</ele>
        <time>2014-03-12T15:04:43Z</time>
      </trkpt>
      <trkpt lat="45.55496" lon="6.00961">
        <ele>777.36</ele>
        <time>2014-03-12T15:04:45Z</time>
      </trkpt>
      <trkpt lat="45.55502" lon="6.00976">
        <ele>775.44</ele>
        <time>2014-03-12T15:04:51Z</time>
      </trkpt>
      <trkpt lat="45.55502" lon="6.00979">
        <ele>774.48</ele>
        <time>2014-03-12T15:04:52Z</time>
      </trkpt>
      <trkpt lat="45.55504" lon="6.00982">
        <ele>774.48</ele>
        <time>2014-03-12T15:04:53Z</time>
      </trkpt>
      <trkpt lat="45.55505" lon="6.00984">
        <ele>774.48</ele>
        <time>2014-03-12T15:04:54Z</time>
      </trkpt>
      <trkpt lat="45.55507" lon="6.00986">
        <ele>774</ele>
        <time>2014-03-12T15:04:55Z</time>
      </trkpt>
      <trkpt lat="45.55508" lon="6.00989">
        <ele>774</ele>
        <time>2014-03-12T15:04:56Z</time>
      </trkpt>
      <trkpt lat="45.55504" lon="6.00989">
        <ele>773.52</ele>
        <time>2014-03-12T15:04:58Z</time>
      </trkpt>
      <trkpt lat="45.55504" lon="6.00992">
        <ele>772.56</ele>
        <time>2014-03-12T15:04:59Z</time>
      </trkpt>
      <trkpt lat="45.55505" lon="6.00995">
        <ele>772.08</ele>
        <time>2014-03-12T15:05:00Z</time>
      </trkpt>
      <trkpt lat="45.55506" lon="6.00998">
        <ele>772.08</ele>
        <time>2014-03-12T15:05:01Z</time>
      </trkpt>
      <trkpt lat="45.55515" lon="6.01019">
        <ele>769.67</ele>
        <time>2014-03-12T15:05:07Z</time>
      </trkpt>
      <trkpt lat="45.55517" lon="6.01021">
        <ele>769.19</ele>
        <time>2014-03-12T15:05:08Z</time>
      </trkpt>
      <trkpt lat="45.55518" lon="6.01025">
        <ele>769.19</ele>
        <time>2014-03-12T15:05:09Z</time>
      </trkpt>
      <trkpt lat="45.5552" lon="6.01029">
        <ele>768.23</ele>
        <time>2014-03-12T15:05:10Z</time>
      </trkpt>
      <trkpt lat="45.55521" lon="6.01033">
        <ele>768.23</ele>
        <time>2014-03-12T15:05:11Z</time>
      </trkpt>
      <trkpt lat="45.55523" lon="6.01036">
        <ele>767.27</ele>
        <time>2014-03-12T15:05:12Z</time>
      </trkpt>
      <trkpt lat="45.55525" lon="6.0104">
        <ele>766.31</ele>
        <time>2014-03-12T15:05:13Z</time>
      </trkpt>
      <trkpt lat="45.55527" lon="6.01043">
        <ele>765.83</ele>
        <time>2014-03-12T15:05:14Z</time>
      </trkpt>
      <trkpt lat="45.55528" lon="6.01047">
        <ele>765.35</ele>
        <time>2014-03-12T15:05:15Z</time>
      </trkpt>
      <trkpt lat="45.55529" lon="6.01051">
        <ele>764.87</ele>
        <time>2014-03-12T15:05:16Z</time>
      </trkpt>
      <trkpt lat="45.55529" lon="6.01054">
        <ele>763.9</ele>
        <time>2014-03-12T15:05:17Z</time>
      </trkpt>
      <trkpt lat="45.55528" lon="6.01057">
        <ele>762.94</ele>
        <time>2014-03-12T15:05:18Z</time>
      </trkpt>
      <trkpt lat="45.55527" lon="6.01057">
        <ele>762.46</ele>
        <time>2014-03-12T15:05:19Z</time>
      </trkpt>
      <trkpt lat="45.55523" lon="6.01055">
        <ele>761.98</ele>
        <time>2014-03-12T15:05:20Z</time>
      </trkpt>
      <trkpt lat="45.55518" lon="6.01052">
        <ele>761.02</ele>
        <time>2014-03-12T15:05:22Z</time>
      </trkpt>
      <trkpt lat="45.55513" lon="6.01048">
        <ele>760.54</ele>
        <time>2014-03-12T15:05:24Z</time>
      </trkpt>
      <trkpt lat="45.55481" lon="6.01022">
        <ele>757.66</ele>
        <time>2014-03-12T15:05:30Z</time>
      </trkpt>
      <trkpt lat="45.55465" lon="6.01">
        <ele>754.29</ele>
        <time>2014-03-12T15:05:35Z</time>
      </trkpt>
      <trkpt lat="45.55462" lon="6.00995">
        <ele>753.81</ele>
        <time>2014-03-12T15:05:36Z</time>
      </trkpt>
      <trkpt lat="45.55459" lon="6.0099">
        <ele>753.81</ele>
        <time>2014-03-12T15:05:37Z</time>
      </trkpt>
      <trkpt lat="45.55455" lon="6.00987">
        <ele>753.33</ele>
        <time>2014-03-12T15:05:38Z</time>
      </trkpt>
      <trkpt lat="45.55456" lon="6.01001">
        <ele>749.97</ele>
        <time>2014-03-12T15:05:43Z</time>
      </trkpt>
      <trkpt lat="45.55459" lon="6.01008">
        <ele>749.49</ele>
        <time>2014-03-12T15:05:44Z</time>
      </trkpt>
      <trkpt lat="45.55468" lon="6.01029">
        <ele>748.52</ele>
        <time>2014-03-12T15:05:47Z</time>
      </trkpt>
      <trkpt lat="45.55474" lon="6.01047">
        <ele>748.04</ele>
        <time>2014-03-12T15:05:50Z</time>
      </trkpt>
      <trkpt lat="45.55477" lon="6.0106">
        <ele>745.64</ele>
        <time>2014-03-12T15:06:00Z</time>
      </trkpt>
      <trkpt lat="45.55473" lon="6.01056">
        <ele>744.2</ele>
        <time>2014-03-12T15:06:07Z</time>
      </trkpt>
      <trkpt lat="45.55471" lon="6.01056">
        <ele>744.2</ele>
        <time>2014-03-12T15:06:08Z</time>
      </trkpt>
      <trkpt lat="45.55469" lon="6.01055">
        <ele>743.24</ele>
        <time>2014-03-12T15:06:09Z</time>
      </trkpt>
      <trkpt lat="45.55467" lon="6.01054">
        <ele>743.24</ele>
        <time>2014-03-12T15:06:10Z</time>
      </trkpt>
      <trkpt lat="45.55465" lon="6.01052">
        <ele>742.76</ele>
        <time>2014-03-12T15:06:11Z</time>
      </trkpt>
      <trkpt lat="45.55464" lon="6.01051">
        <ele>742.76</ele>
        <time>2014-03-12T15:06:12Z</time>
      </trkpt>
      <trkpt lat="45.55463" lon="6.01049">
        <ele>742.28</ele>
        <time>2014-03-12T15:06:13Z</time>
      </trkpt>
      <trkpt lat="45.55462" lon="6.01047">
        <ele>742.28</ele>
        <time>2014-03-12T15:06:14Z</time>
      </trkpt>
      <trkpt lat="45.5546" lon="6.01046">
        <ele>741.79</ele>
        <time>2014-03-12T15:06:15Z</time>
      </trkpt>
      <trkpt lat="45.55457" lon="6.01041">
        <ele>740.83</ele>
        <time>2014-03-12T15:06:27Z</time>
      </trkpt>
      <trkpt lat="45.55455" lon="6.0104">
        <ele>739.39</ele>
        <time>2014-03-12T15:06:34Z</time>
      </trkpt>
      <trkpt lat="45.55455" lon="6.01042">
        <ele>739.39</ele>
        <time>2014-03-12T15:06:35Z</time>
      </trkpt>
      <trkpt lat="45.55458" lon="6.01059">
        <ele>737.95</ele>
        <time>2014-03-12T15:06:51Z</time>
      </trkpt>
      <trkpt lat="45.55455" lon="6.01055">
        <ele>736.99</ele>
        <time>2014-03-12T15:06:57Z</time>
      </trkpt>
      <trkpt lat="45.55449" lon="6.01049">
        <ele>735.55</ele>
        <time>2014-03-12T15:06:59Z</time>
      </trkpt>
      <trkpt lat="45.55423" lon="6.01025">
        <ele>732.18</ele>
        <time>2014-03-12T15:07:08Z</time>
      </trkpt>
      <trkpt lat="45.5541" lon="6.01013">
        <ele>729.78</ele>
        <time>2014-03-12T15:07:19Z</time>
      </trkpt>
      <trkpt lat="45.55406" lon="6.01013">
        <ele>727.37</ele>
        <time>2014-03-12T15:07:31Z</time>
      </trkpt>
      <trkpt lat="45.55403" lon="6.01012">
        <ele>725.45</ele>
        <time>2014-03-12T15:07:37Z</time>
      </trkpt>
      <trkpt lat="45.55399" lon="6.01023">
        <ele>721.61</ele>
        <time>2014-03-12T15:07:43Z</time>
      </trkpt>
      <trkpt lat="45.55399" lon="6.01026">
        <ele>721.13</ele>
        <time>2014-03-12T15:07:44Z</time>
      </trkpt>
      <trkpt lat="45.55399" lon="6.01032">
        <ele>719.68</ele>
        <time>2014-03-12T15:07:46Z</time>
      </trkpt>
      <trkpt lat="45.55402" lon="6.0105">
        <ele>715.84</ele>
        <time>2014-03-12T15:07:51Z</time>
      </trkpt>
      <trkpt lat="45.55402" lon="6.01069">
        <ele>712.47</ele>
        <time>2014-03-12T15:07:55Z</time>
      </trkpt>
      <trkpt lat="45.55405" lon="6.01089">
        <ele>708.63</ele>
        <time>2014-03-12T15:07:58Z</time>
      </trkpt>
      <trkpt lat="45.55406" lon="6.01096">
        <ele>707.67</ele>
        <time>2014-03-12T15:07:59Z</time>
      </trkpt>
      <trkpt lat="45.55407" lon="6.01102">
        <ele>707.19</ele>
        <time>2014-03-12T15:08:00Z</time>
      </trkpt>
      <trkpt lat="45.55411" lon="6.01118">
        <ele>703.82</ele>
        <time>2014-03-12T15:08:04Z</time>
      </trkpt>
      <trkpt lat="45.55414" lon="6.01135">
        <ele>700.94</ele>
        <time>2014-03-12T15:08:10Z</time>
      </trkpt>
      <trkpt lat="45.55415" lon="6.01146">
        <ele>697.57</ele>
        <time>2014-03-12T15:08:15Z</time>
      </trkpt>
      <trkpt lat="45.55412" lon="6.01153">
        <ele>694.69</ele>
        <time>2014-03-12T15:08:18Z</time>
      </trkpt>
      <trkpt lat="45.55406" lon="6.0116">
        <ele>691.33</ele>
        <time>2014-03-12T15:08:22Z</time>
      </trkpt>
      <trkpt lat="45.55395" lon="6.01157">
        <ele>688.92</ele>
        <time>2014-03-12T15:08:34Z</time>
      </trkpt>
      <trkpt lat="45.55394" lon="6.01153">
        <ele>686.04</ele>
        <time>2014-03-12T15:08:39Z</time>
      </trkpt>
      <trkpt lat="45.55394" lon="6.01153">
        <ele>682.67</ele>
        <time>2014-03-12T15:08:42Z</time>
      </trkpt>
      <trkpt lat="45.55391" lon="6.01151">
        <ele>682.67</ele>
        <time>2014-03-12T15:08:43Z</time>
      </trkpt>
      <trkpt lat="45.55389" lon="6.01148">
        <ele>682.19</ele>
        <time>2014-03-12T15:08:44Z</time>
      </trkpt>
      <trkpt lat="45.55386" lon="6.01146">
        <ele>681.71</ele>
        <time>2014-03-12T15:08:45Z</time>
      </trkpt>
      <trkpt lat="45.55364" lon="6.01127">
        <ele>679.31</ele>
        <time>2014-03-12T15:08:49Z</time>
      </trkpt>
      <trkpt lat="45.55354" lon="6.01117">
        <ele>675.94</ele>
        <time>2014-03-12T15:08:54Z</time>
      </trkpt>
      <trkpt lat="45.55354" lon="6.01118">
        <ele>675.94</ele>
        <time>2014-03-12T15:08:55Z</time>
      </trkpt>
      <trkpt lat="45.55355" lon="6.01122">
        <ele>674.5</ele>
        <time>2014-03-12T15:08:58Z</time>
      </trkpt>
      <trkpt lat="45.55356" lon="6.01124">
        <ele>674.02</ele>
        <time>2014-03-12T15:08:59Z</time>
      </trkpt>
      <trkpt lat="45.55357" lon="6.01126">
        <ele>673.54</ele>
        <time>2014-03-12T15:09:00Z</time>
      </trkpt>
      <trkpt lat="45.55358" lon="6.01128">
        <ele>673.06</ele>
        <time>2014-03-12T15:09:01Z</time>
      </trkpt>
      <trkpt lat="45.55359" lon="6.0113">
        <ele>672.58</ele>
        <time>2014-03-12T15:09:02Z</time>
      </trkpt>
      <trkpt lat="45.55361" lon="6.01132">
        <ele>672.1</ele>
        <time>2014-03-12T15:09:03Z</time>
      </trkpt>
      <trkpt lat="45.55362" lon="6.01135">
        <ele>671.62</ele>
        <time>2014-03-12T15:09:04Z</time>
      </trkpt>
      <trkpt lat="45.55364" lon="6.01137">
        <ele>670.66</ele>
        <time>2014-03-12T15:09:05Z</time>
      </trkpt>
      <trkpt lat="45.55364" lon="6.01139">
        <ele>670.18</ele>
        <time>2014-03-12T15:09:06Z</time>
      </trkpt>
      <trkpt lat="45.55365" lon="6.01142">
        <ele>669.7</ele>
        <time>2014-03-12T15:09:07Z</time>
      </trkpt>
      <trkpt lat="45.55365" lon="6.01144">
        <ele>668.73</ele>
        <time>2014-03-12T15:09:08Z</time>
      </trkpt>
      <trkpt lat="45.55368" lon="6.01147">
        <ele>667.29</ele>
        <time>2014-03-12T15:09:19Z</time>
      </trkpt>
      <trkpt lat="45.5537" lon="6.01158">
        <ele>664.89</ele>
        <time>2014-03-12T15:09:29Z</time>
      </trkpt>
      <trkpt lat="45.55372" lon="6.01166">
        <ele>662.01</ele>
        <time>2014-03-12T15:09:41Z</time>
      </trkpt>
      <trkpt lat="45.55374" lon="6.01178">
        <ele>659.12</ele>
        <time>2014-03-12T15:09:51Z</time>
      </trkpt>
      <trkpt lat="45.55374" lon="6.01182">
        <ele>658.64</ele>
        <time>2014-03-12T15:09:53Z</time>
      </trkpt>
      <trkpt lat="45.55375" lon="6.01189">
        <ele>656.24</ele>
        <time>2014-03-12T15:09:57Z</time>
      </trkpt>
      <trkpt lat="45.55373" lon="6.012">
        <ele>653.83</ele>
        <time>2014-03-12T15:10:02Z</time>
      </trkpt>
      <trkpt lat="45.5537" lon="6.01199">
        <ele>650.47</ele>
        <time>2014-03-12T15:10:06Z</time>
      </trkpt>
      <trkpt lat="45.55367" lon="6.01199">
        <ele>647.59</ele>
        <time>2014-03-12T15:10:10Z</time>
      </trkpt>
      <trkpt lat="45.55364" lon="6.012">
        <ele>644.7</ele>
        <time>2014-03-12T15:10:14Z</time>
      </trkpt>
      <trkpt lat="45.55365" lon="6.01202">
        <ele>644.22</ele>
        <time>2014-03-12T15:10:15Z</time>
      </trkpt>
      <trkpt lat="45.55364" lon="6.01205">
        <ele>643.26</ele>
        <time>2014-03-12T15:10:16Z</time>
      </trkpt>
      <trkpt lat="45.55363" lon="6.01208">
        <ele>642.3</ele>
        <time>2014-03-12T15:10:17Z</time>
      </trkpt>
      <trkpt lat="45.55363" lon="6.0121">
        <ele>641.82</ele>
        <time>2014-03-12T15:10:18Z</time>
      </trkpt>
      <trkpt lat="45.55363" lon="6.01213">
        <ele>640.86</ele>
        <time>2014-03-12T15:10:19Z</time>
      </trkpt>
      <trkpt lat="45.55364" lon="6.01215">
        <ele>640.86</ele>
        <time>2014-03-12T15:10:20Z</time>
      </trkpt>
      <trkpt lat="45.55364" lon="6.01217">
        <ele>639.89</ele>
        <time>2014-03-12T15:10:21Z</time>
      </trkpt>
      <trkpt lat="45.55362" lon="6.0124">
        <ele>636.53</ele>
        <time>2014-03-12T15:10:26Z</time>
      </trkpt>
      <trkpt lat="45.55367" lon="6.01248">
        <ele>635.57</ele>
        <time>2014-03-12T15:10:28Z</time>
      </trkpt>
      <trkpt lat="45.5537" lon="6.01251">
        <ele>635.09</ele>
        <time>2014-03-12T15:10:29Z</time>
      </trkpt>
      <trkpt lat="45.55409" lon="6.01292">
        <ele>632.2</ele>
        <time>2014-03-12T15:10:40Z</time>
      </trkpt>
      <trkpt lat="45.55418" lon="6.01299">
        <ele>631.72</ele>
        <time>2014-03-12T15:10:42Z</time>
      </trkpt>
      <trkpt lat="45.55422" lon="6.01301">
        <ele>631.72</ele>
        <time>2014-03-12T15:10:43Z</time>
      </trkpt>
      <trkpt lat="45.55426" lon="6.01303">
        <ele>631.24</ele>
        <time>2014-03-12T15:10:44Z</time>
      </trkpt>
      <trkpt lat="45.55441" lon="6.0132">
        <ele>630.76</ele>
        <time>2014-03-12T15:10:48Z</time>
      </trkpt>
      <trkpt lat="45.55462" lon="6.01356">
        <ele>627.4</ele>
        <time>2014-03-12T15:10:57Z</time>
      </trkpt>
      <trkpt lat="45.55479" lon="6.01385">
        <ele>624.51</ele>
        <time>2014-03-12T15:11:06Z</time>
      </trkpt>
      <trkpt lat="45.55496" lon="6.01393">
        <ele>621.63</ele>
        <time>2014-03-12T15:11:13Z</time>
      </trkpt>
      <trkpt lat="45.55496" lon="6.01392">
        <ele>620.67</ele>
        <time>2014-03-12T15:11:14Z</time>
      </trkpt>
      <trkpt lat="45.55481" lon="6.01378">
        <ele>616.82</ele>
        <time>2014-03-12T15:11:20Z</time>
      </trkpt>
      <trkpt lat="45.55477" lon="6.01376">
        <ele>614.9</ele>
        <time>2014-03-12T15:11:22Z</time>
      </trkpt>
      <trkpt lat="45.55478" lon="6.01376">
        <ele>613.94</ele>
        <time>2014-03-12T15:11:23Z</time>
      </trkpt>
      <trkpt lat="45.55451" lon="6.01362">
        <ele>612.02</ele>
        <time>2014-03-12T15:11:26Z</time>
      </trkpt>
      <trkpt lat="45.55446" lon="6.01359">
        <ele>611.54</ele>
        <time>2014-03-12T15:11:27Z</time>
      </trkpt>
      <trkpt lat="45.55441" lon="6.01356">
        <ele>610.57</ele>
        <time>2014-03-12T15:11:28Z</time>
      </trkpt>
      <trkpt lat="45.55434" lon="6.01353">
        <ele>609.61</ele>
        <time>2014-03-12T15:11:29Z</time>
      </trkpt>
      <trkpt lat="45.55429" lon="6.01351">
        <ele>609.61</ele>
        <time>2014-03-12T15:11:30Z</time>
      </trkpt>
      <trkpt lat="45.554" lon="6.01352">
        <ele>605.77</ele>
        <time>2014-03-12T15:11:34Z</time>
      </trkpt>
      <trkpt lat="45.55374" lon="6.01359">
        <ele>602.4</ele>
        <time>2014-03-12T15:11:39Z</time>
      </trkpt>
      <trkpt lat="45.5537" lon="6.01361">
        <ele>602.4</ele>
        <time>2014-03-12T15:11:40Z</time>
      </trkpt>
      <trkpt lat="45.55362" lon="6.01382">
        <ele>599.04</ele>
        <time>2014-03-12T15:11:45Z</time>
      </trkpt>
      <trkpt lat="45.55363" lon="6.01402">
        <ele>598.08</ele>
        <time>2014-03-12T15:11:47Z</time>
      </trkpt>
      <trkpt lat="45.55361" lon="6.01405">
        <ele>597.12</ele>
        <time>2014-03-12T15:11:48Z</time>
      </trkpt>
      <trkpt lat="45.5535" lon="6.01455">
        <ele>593.75</ele>
        <time>2014-03-12T15:11:53Z</time>
      </trkpt>
      <trkpt lat="45.55338" lon="6.01486">
        <ele>591.83</ele>
        <time>2014-03-12T15:11:55Z</time>
      </trkpt>
      <trkpt lat="45.55333" lon="6.01497">
        <ele>591.35</ele>
        <time>2014-03-12T15:11:56Z</time>
      </trkpt>
      <trkpt lat="45.55317" lon="6.0153">
        <ele>590.39</ele>
        <time>2014-03-12T15:11:59Z</time>
      </trkpt>
      <trkpt lat="45.5529" lon="6.01565">
        <ele>591.35</ele>
        <time>2014-03-12T15:12:03Z</time>
      </trkpt>
      <trkpt lat="45.55282" lon="6.01565">
        <ele>592.31</ele>
        <time>2014-03-12T15:12:04Z</time>
      </trkpt>
      <trkpt lat="45.55275" lon="6.01565">
        <ele>591.83</ele>
        <time>2014-03-12T15:12:05Z</time>
      </trkpt>
      <trkpt lat="45.55269" lon="6.01564">
        <ele>591.83</ele>
        <time>2014-03-12T15:12:06Z</time>
      </trkpt>
      <trkpt lat="45.55264" lon="6.01564">
        <ele>591.83</ele>
        <time>2014-03-12T15:12:07Z</time>
      </trkpt>
      <trkpt lat="45.55259" lon="6.01566">
        <ele>591.35</ele>
        <time>2014-03-12T15:12:08Z</time>
      </trkpt>
      <trkpt lat="45.55255" lon="6.01567">
        <ele>591.83</ele>
        <time>2014-03-12T15:12:09Z</time>
      </trkpt>
      <trkpt lat="45.55211" lon="6.01573">
        <ele>593.27</ele>
        <time>2014-03-12T15:12:22Z</time>
      </trkpt>
      <trkpt lat="45.55165" lon="6.01561">
        <ele>593.27</ele>
        <time>2014-03-12T15:12:36Z</time>
      </trkpt>
      <trkpt lat="45.55109" lon="6.01538">
        <ele>593.27</ele>
        <time>2014-03-12T15:12:51Z</time>
      </trkpt>
      <trkpt lat="45.55106" lon="6.01535">
        <ele>593.27</ele>
        <time>2014-03-12T15:12:52Z</time>
      </trkpt>
      <trkpt lat="45.55103" lon="6.01531">
        <ele>592.79</ele>
        <time>2014-03-12T15:12:53Z</time>
      </trkpt>
      <trkpt lat="45.551" lon="6.01526">
        <ele>592.31</ele>
        <time>2014-03-12T15:12:54Z</time>
      </trkpt>
      <trkpt lat="45.55098" lon="6.01519">
        <ele>591.83</ele>
        <time>2014-03-12T15:12:55Z</time>
      </trkpt>
      <trkpt lat="45.55097" lon="6.01512">
        <ele>591.83</ele>
        <time>2014-03-12T15:12:56Z</time>
      </trkpt>
      <trkpt lat="45.55097" lon="6.01504">
        <ele>591.35</ele>
        <time>2014-03-12T15:12:57Z</time>
      </trkpt>
      <trkpt lat="45.55098" lon="6.01496">
        <ele>590.39</ele>
        <time>2014-03-12T15:12:58Z</time>
      </trkpt>
      <trkpt lat="45.55097" lon="6.01487">
        <ele>589.91</ele>
        <time>2014-03-12T15:12:59Z</time>
      </trkpt>
      <trkpt lat="45.55095" lon="6.01477">
        <ele>589.43</ele>
        <time>2014-03-12T15:13:00Z</time>
      </trkpt>
      <trkpt lat="45.55093" lon="6.01468">
        <ele>589.43</ele>
        <time>2014-03-12T15:13:01Z</time>
      </trkpt>
      <trkpt lat="45.5509" lon="6.0146">
        <ele>588.46</ele>
        <time>2014-03-12T15:13:02Z</time>
      </trkpt>
      <trkpt lat="45.55087" lon="6.01452">
        <ele>588.46</ele>
        <time>2014-03-12T15:13:03Z</time>
      </trkpt>
      <trkpt lat="45.55053" lon="6.01371">
        <ele>585.58</ele>
        <time>2014-03-12T15:13:16Z</time>
      </trkpt>
      <trkpt lat="45.55047" lon="6.0136">
        <ele>585.58</ele>
        <time>2014-03-12T15:13:18Z</time>
      </trkpt>
      <trkpt lat="45.55037" lon="6.01336">
        <ele>584.14</ele>
        <time>2014-03-12T15:13:22Z</time>
      </trkpt>
      <trkpt lat="45.55035" lon="6.01322">
        <ele>583.66</ele>
        <time>2014-03-12T15:13:24Z</time>
      </trkpt>
      <trkpt lat="45.55032" lon="6.01301">
        <ele>582.7</ele>
        <time>2014-03-12T15:13:27Z</time>
      </trkpt>
      <trkpt lat="45.5503" lon="6.01286">
        <ele>581.73</ele>
        <time>2014-03-12T15:13:29Z</time>
      </trkpt>
      <trkpt lat="45.55029" lon="6.0128">
        <ele>581.25</ele>
        <time>2014-03-12T15:13:30Z</time>
      </trkpt>
      <trkpt lat="45.55025" lon="6.01236">
        <ele>580.29</ele>
        <time>2014-03-12T15:13:39Z</time>
      </trkpt>
      <trkpt lat="45.55024" lon="6.0123">
        <ele>579.81</ele>
        <time>2014-03-12T15:13:40Z</time>
      </trkpt>
      <trkpt lat="45.55022" lon="6.01218">
        <ele>579.33</ele>
        <time>2014-03-12T15:13:42Z</time>
      </trkpt>
      <trkpt lat="45.55016" lon="6.01195">
        <ele>578.85</ele>
        <time>2014-03-12T15:13:46Z</time>
      </trkpt>
      <trkpt lat="45.55005" lon="6.01165">
        <ele>578.37</ele>
        <time>2014-03-12T15:13:52Z</time>
      </trkpt>
      <trkpt lat="45.5499" lon="6.01111">
        <ele>576.93</ele>
        <time>2014-03-12T15:14:03Z</time>
      </trkpt>
      <trkpt lat="45.54981" lon="6.0108">
        <ele>577.89</ele>
        <time>2014-03-12T15:14:12Z</time>
      </trkpt>
      <trkpt lat="45.5498" lon="6.01077">
        <ele>578.37</ele>
        <time>2014-03-12T15:14:13Z</time>
      </trkpt>
      <trkpt lat="45.54977" lon="6.01073">
        <ele>578.85</ele>
        <time>2014-03-12T15:14:15Z</time>
      </trkpt>
      <trkpt lat="45.54976" lon="6.01072">
        <ele>578.85</ele>
        <time>2014-03-12T15:14:16Z</time>
      </trkpt>
      <trkpt lat="45.54974" lon="6.01071">
        <ele>578.85</ele>
        <time>2014-03-12T15:14:17Z</time>
      </trkpt>
      <trkpt lat="45.5497" lon="6.01066">
        <ele>578.85</ele>
        <time>2014-03-12T15:14:29Z</time>
      </trkpt>
      <trkpt lat="45.54967" lon="6.01061">
        <ele>579.33</ele>
        <time>2014-03-12T15:14:43Z</time>
      </trkpt>
      <trkpt lat="45.54962" lon="6.01056">
        <ele>579.33</ele>
        <time>2014-03-12T15:14:46Z</time>
      </trkpt>
      <trkpt lat="45.54961" lon="6.01053">
        <ele>579.33</ele>
        <time>2014-03-12T15:14:47Z</time>
      </trkpt>
      <trkpt lat="45.5496" lon="6.01051">
        <ele>579.33</ele>
        <time>2014-03-12T15:14:48Z</time>
      </trkpt>
      <trkpt lat="45.54957" lon="6.01048">
        <ele>579.81</ele>
        <time>2014-03-12T15:14:50Z</time>
      </trkpt>
      <trkpt lat="45.54955" lon="6.01047">
        <ele>579.33</ele>
        <time>2014-03-12T15:14:51Z</time>
      </trkpt>
      <trkpt lat="45.5493" lon="6.01017">
        <ele>581.25</ele>
        <time>2014-03-12T15:15:03Z</time>
      </trkpt>
      <trkpt lat="45.54902" lon="6.00985">
        <ele>581.25</ele>
        <time>2014-03-12T15:15:16Z</time>
      </trkpt>
      <trkpt lat="45.54863" lon="6.00975">
        <ele>581.25</ele>
        <time>2014-03-12T15:15:29Z</time>
      </trkpt>
      <trkpt lat="45.54836" lon="6.00971">
        <ele>581.73</ele>
        <time>2014-03-12T15:15:40Z</time>
      </trkpt>
      <trkpt lat="45.54815" lon="6.00923">
        <ele>579.33</ele>
        <time>2014-03-12T15:15:52Z</time>
      </trkpt>
      <trkpt lat="45.54762" lon="6.00898">
        <ele>578.37</ele>
        <time>2014-03-12T15:16:05Z</time>
      </trkpt>
      <trkpt lat="45.54731" lon="6.00852">
        <ele>575.97</ele>
        <time>2014-03-12T15:16:20Z</time>
      </trkpt>
      <trkpt lat="45.54725" lon="6.00845">
        <ele>576.93</ele>
        <time>2014-03-12T15:16:31Z</time>
      </trkpt>
      <trkpt lat="45.5472" lon="6.00839">
        <ele>575.01</ele>
        <time>2014-03-12T15:16:38Z</time>
      </trkpt>
      <trkpt lat="45.54708" lon="6.0084">
        <ele>574.04</ele>
        <time>2014-03-12T15:16:53Z</time>
      </trkpt>
      <trkpt lat="45.54679" lon="6.00869">
        <ele>571.64</ele>
        <time>2014-03-12T15:17:05Z</time>
      </trkpt>
      <trkpt lat="45.54659" lon="6.00875">
        <ele>568.76</ele>
        <time>2014-03-12T15:17:12Z</time>
      </trkpt>
      <trkpt lat="45.54648" lon="6.00883">
        <ele>565.39</ele>
        <time>2014-03-12T15:17:18Z</time>
      </trkpt>
      <trkpt lat="45.54634" lon="6.00866">
        <ele>562.03</ele>
        <time>2014-03-12T15:17:24Z</time>
      </trkpt>
      <trkpt lat="45.54615" lon="6.00809">
        <ele>558.18</ele>
        <time>2014-03-12T15:17:29Z</time>
      </trkpt>
      <trkpt lat="45.54609" lon="6.00813">
        <ele>556.26</ele>
        <time>2014-03-12T15:17:31Z</time>
      </trkpt>
      <trkpt lat="45.546" lon="6.0082">
        <ele>553.38</ele>
        <time>2014-03-12T15:17:34Z</time>
      </trkpt>
      <trkpt lat="45.54593" lon="6.00828">
        <ele>550.49</ele>
        <time>2014-03-12T15:17:38Z</time>
      </trkpt>
      <trkpt lat="45.54577" lon="6.00827">
        <ele>547.13</ele>
        <time>2014-03-12T15:17:43Z</time>
      </trkpt>
      <trkpt lat="45.54574" lon="6.00829">
        <ele>545.2</ele>
        <time>2014-03-12T15:17:45Z</time>
      </trkpt>
      <trkpt lat="45.54567" lon="6.00833">
        <ele>542.32</ele>
        <time>2014-03-12T15:17:48Z</time>
      </trkpt>
      <trkpt lat="45.54562" lon="6.00837">
        <ele>538.96</ele>
        <time>2014-03-12T15:17:52Z</time>
      </trkpt>
      <trkpt lat="45.54544" lon="6.0085">
        <ele>535.59</ele>
        <time>2014-03-12T15:17:56Z</time>
      </trkpt>
      <trkpt lat="45.54532" lon="6.00855">
        <ele>532.23</ele>
        <time>2014-03-12T15:18:00Z</time>
      </trkpt>
      <trkpt lat="45.54492" lon="6.00845">
        <ele>529.34</ele>
        <time>2014-03-12T15:18:07Z</time>
      </trkpt>
      <trkpt lat="45.54485" lon="6.00853">
        <ele>527.9</ele>
        <time>2014-03-12T15:18:10Z</time>
      </trkpt>
      <trkpt lat="45.54477" lon="6.00893">
        <ele>524.54</ele>
        <time>2014-03-12T15:18:19Z</time>
      </trkpt>
      <trkpt lat="45.54434" lon="6.00903">
        <ele>521.17</ele>
        <time>2014-03-12T15:18:28Z</time>
      </trkpt>
      <trkpt lat="45.54416" lon="6.00909">
        <ele>517.81</ele>
        <time>2014-03-12T15:18:33Z</time>
      </trkpt>
      <trkpt lat="45.54406" lon="6.00918">
        <ele>514.92</ele>
        <time>2014-03-12T15:18:37Z</time>
      </trkpt>
      <trkpt lat="45.54398" lon="6.00923">
        <ele>513.48</ele>
        <time>2014-03-12T15:18:39Z</time>
      </trkpt>
      <trkpt lat="45.54384" lon="6.00922">
        <ele>510.12</ele>
        <time>2014-03-12T15:18:43Z</time>
      </trkpt>
      <trkpt lat="45.54377" lon="6.00912">
        <ele>507.23</ele>
        <time>2014-03-12T15:18:47Z</time>
      </trkpt>
      <trkpt lat="45.54399" lon="6.00879">
        <ele>505.31</ele>
        <time>2014-03-12T15:18:58Z</time>
      </trkpt>
      <trkpt lat="45.54422" lon="6.00837">
        <ele>507.23</ele>
        <time>2014-03-12T15:19:11Z</time>
      </trkpt>
      <trkpt lat="45.54403" lon="6.00794">
        <ele>503.87</ele>
        <time>2014-03-12T15:19:20Z</time>
      </trkpt>
      <trkpt lat="45.54397" lon="6.00775">
        <ele>502.43</ele>
        <time>2014-03-12T15:19:23Z</time>
      </trkpt>
      <trkpt lat="45.54396" lon="6.00769">
        <ele>501.95</ele>
        <time>2014-03-12T15:19:24Z</time>
      </trkpt>
      <trkpt lat="45.54397" lon="6.00763">
        <ele>501.95</ele>
        <time>2014-03-12T15:19:25Z</time>
      </trkpt>
      <trkpt lat="45.54398" lon="6.00756">
        <ele>500.5</ele>
        <time>2014-03-12T15:19:26Z</time>
      </trkpt>
      <trkpt lat="45.54399" lon="6.00751">
        <ele>500.02</ele>
        <time>2014-03-12T15:19:27Z</time>
      </trkpt>
      <trkpt lat="45.54402" lon="6.00746">
        <ele>499.54</ele>
        <time>2014-03-12T15:19:28Z</time>
      </trkpt>
      <trkpt lat="45.54406" lon="6.00744">
        <ele>499.06</ele>
        <time>2014-03-12T15:19:29Z</time>
      </trkpt>
      <trkpt lat="45.54411" lon="6.00743">
        <ele>498.1</ele>
        <time>2014-03-12T15:19:30Z</time>
      </trkpt>
      <trkpt lat="45.54417" lon="6.00742">
        <ele>497.62</ele>
        <time>2014-03-12T15:19:31Z</time>
      </trkpt>
      <trkpt lat="45.54423" lon="6.00742">
        <ele>496.66</ele>
        <time>2014-03-12T15:19:32Z</time>
      </trkpt>
      <trkpt lat="45.54443" lon="6.00743">
        <ele>494.26</ele>
        <time>2014-03-12T15:19:36Z</time>
      </trkpt>
      <trkpt lat="45.54448" lon="6.00741">
        <ele>493.29</ele>
        <time>2014-03-12T15:19:37Z</time>
      </trkpt>
      <trkpt lat="45.54454" lon="6.00737">
        <ele>492.81</ele>
        <time>2014-03-12T15:19:38Z</time>
      </trkpt>
      <trkpt lat="45.54465" lon="6.00726">
        <ele>491.85</ele>
        <time>2014-03-12T15:19:40Z</time>
      </trkpt>
      <trkpt lat="45.54495" lon="6.00687">
        <ele>492.33</ele>
        <time>2014-03-12T15:19:47Z</time>
      </trkpt>
      <trkpt lat="45.54496" lon="6.00683">
        <ele>492.33</ele>
        <time>2014-03-12T15:19:48Z</time>
      </trkpt>
      <trkpt lat="45.54498" lon="6.00679">
        <ele>493.29</ele>
        <time>2014-03-12T15:19:49Z</time>
      </trkpt>
      <trkpt lat="45.54499" lon="6.00675">
        <ele>492.81</ele>
        <time>2014-03-12T15:19:50Z</time>
      </trkpt>
      <trkpt lat="45.545" lon="6.0067">
        <ele>492.81</ele>
        <time>2014-03-12T15:19:51Z</time>
      </trkpt>
      <trkpt lat="45.54499" lon="6.00651">
        <ele>493.29</ele>
        <time>2014-03-12T15:19:55Z</time>
      </trkpt>
      <trkpt lat="45.54497" lon="6.00645">
        <ele>493.29</ele>
        <time>2014-03-12T15:19:56Z</time>
      </trkpt>
      <trkpt lat="45.54492" lon="6.00634">
        <ele>493.29</ele>
        <time>2014-03-12T15:19:58Z</time>
      </trkpt>
      <trkpt lat="45.54483" lon="6.0062">
        <ele>492.81</ele>
        <time>2014-03-12T15:20:01Z</time>
      </trkpt>
      <trkpt lat="45.54482" lon="6.00615">
        <ele>492.33</ele>
        <time>2014-03-12T15:20:02Z</time>
      </trkpt>
      <trkpt lat="45.54482" lon="6.0061">
        <ele>492.81</ele>
        <time>2014-03-12T15:20:03Z</time>
      </trkpt>
      <trkpt lat="45.54482" lon="6.00605">
        <ele>493.29</ele>
        <time>2014-03-12T15:20:04Z</time>
      </trkpt>
      <trkpt lat="45.54484" lon="6.006">
        <ele>493.29</ele>
        <time>2014-03-12T15:20:05Z</time>
      </trkpt>
      <trkpt lat="45.54486" lon="6.00596">
        <ele>493.77</ele>
        <time>2014-03-12T15:20:06Z</time>
      </trkpt>
      <trkpt lat="45.54503" lon="6.00573">
        <ele>492.81</ele>
        <time>2014-03-12T15:20:12Z</time>
      </trkpt>
      <trkpt lat="45.54507" lon="6.0057">
        <ele>492.33</ele>
        <time>2014-03-12T15:20:13Z</time>
      </trkpt>
      <trkpt lat="45.54512" lon="6.00567">
        <ele>491.85</ele>
        <time>2014-03-12T15:20:14Z</time>
      </trkpt>
      <trkpt lat="45.54518" lon="6.00565">
        <ele>491.37</ele>
        <time>2014-03-12T15:20:15Z</time>
      </trkpt>
      <trkpt lat="45.54524" lon="6.00564">
        <ele>490.89</ele>
        <time>2014-03-12T15:20:16Z</time>
      </trkpt>
      <trkpt lat="45.5453" lon="6.00564">
        <ele>490.41</ele>
        <time>2014-03-12T15:20:17Z</time>
      </trkpt>
      <trkpt lat="45.54536" lon="6.00565">
        <ele>490.41</ele>
        <time>2014-03-12T15:20:18Z</time>
      </trkpt>
      <trkpt lat="45.54542" lon="6.00567">
        <ele>489.93</ele>
        <time>2014-03-12T15:20:19Z</time>
      </trkpt>
      <trkpt lat="45.54548" lon="6.0057">
        <ele>489.93</ele>
        <time>2014-03-12T15:20:20Z</time>
      </trkpt>
      <trkpt lat="45.54552" lon="6.00572">
        <ele>489.93</ele>
        <time>2014-03-12T15:20:21Z</time>
      </trkpt>
      <trkpt lat="45.54556" lon="6.00573">
        <ele>489.93</ele>
        <time>2014-03-12T15:20:22Z</time>
      </trkpt>
      <trkpt lat="45.5456" lon="6.00573">
        <ele>489.93</ele>
        <time>2014-03-12T15:20:23Z</time>
      </trkpt>
      <trkpt lat="45.54562" lon="6.00571">
        <ele>489.93</ele>
        <time>2014-03-12T15:20:24Z</time>
      </trkpt>
      <trkpt lat="45.54562" lon="6.00567">
        <ele>489.45</ele>
        <time>2014-03-12T15:20:25Z</time>
      </trkpt>
      <trkpt lat="45.54556" lon="6.00562">
        <ele>488.97</ele>
        <time>2014-03-12T15:20:27Z</time>
      </trkpt>
      <trkpt lat="45.54552" lon="6.00559">
        <ele>488.49</ele>
        <time>2014-03-12T15:20:28Z</time>
      </trkpt>
      <trkpt lat="45.54548" lon="6.00556">
        <ele>488.49</ele>
        <time>2014-03-12T15:20:29Z</time>
      </trkpt>
      <trkpt lat="45.54544" lon="6.00552">
        <ele>488.01</ele>
        <time>2014-03-12T15:20:30Z</time>
      </trkpt>
      <trkpt lat="45.54528" lon="6.00545">
        <ele>486.56</ele>
        <time>2014-03-12T15:20:33Z</time>
      </trkpt>
      <trkpt lat="45.54522" lon="6.00544">
        <ele>486.08</ele>
        <time>2014-03-12T15:20:34Z</time>
      </trkpt>
      <trkpt lat="45.54516" lon="6.00545">
        <ele>485.6</ele>
        <time>2014-03-12T15:20:35Z</time>
      </trkpt>
      <trkpt lat="45.54509" lon="6.00546">
        <ele>485.12</ele>
        <time>2014-03-12T15:20:36Z</time>
      </trkpt>
      <trkpt lat="45.54503" lon="6.00549">
        <ele>484.16</ele>
        <time>2014-03-12T15:20:37Z</time>
      </trkpt>
      <trkpt lat="45.54496" lon="6.00552">
        <ele>483.68</ele>
        <time>2014-03-12T15:20:38Z</time>
      </trkpt>
      <trkpt lat="45.54489" lon="6.00556">
        <ele>482.72</ele>
        <time>2014-03-12T15:20:39Z</time>
      </trkpt>
      <trkpt lat="45.54482" lon="6.00561">
        <ele>482.24</ele>
        <time>2014-03-12T15:20:40Z</time>
      </trkpt>
      <trkpt lat="45.54459" lon="6.00578">
        <ele>479.84</ele>
        <time>2014-03-12T15:20:43Z</time>
      </trkpt>
      <trkpt lat="45.54453" lon="6.00586">
        <ele>479.84</ele>
        <time>2014-03-12T15:20:44Z</time>
      </trkpt>
      <trkpt lat="45.54448" lon="6.00597">
        <ele>478.87</ele>
        <time>2014-03-12T15:20:45Z</time>
      </trkpt>
      <trkpt lat="45.54446" lon="6.00609">
        <ele>478.39</ele>
        <time>2014-03-12T15:20:46Z</time>
      </trkpt>
      <trkpt lat="45.54445" lon="6.00622">
        <ele>477.43</ele>
        <time>2014-03-12T15:20:47Z</time>
      </trkpt>
      <trkpt lat="45.54443" lon="6.00635">
        <ele>476.47</ele>
        <time>2014-03-12T15:20:48Z</time>
      </trkpt>
      <trkpt lat="45.54438" lon="6.00647">
        <ele>475.03</ele>
        <time>2014-03-12T15:20:49Z</time>
      </trkpt>
      <trkpt lat="45.54433" lon="6.00657">
        <ele>474.07</ele>
        <time>2014-03-12T15:20:50Z</time>
      </trkpt>
      <trkpt lat="45.54427" lon="6.00667">
        <ele>473.11</ele>
        <time>2014-03-12T15:20:51Z</time>
      </trkpt>
      <trkpt lat="45.54404" lon="6.00699">
        <ele>467.82</ele>
        <time>2014-03-12T15:20:56Z</time>
      </trkpt>
      <trkpt lat="45.54398" lon="6.00704">
        <ele>467.82</ele>
        <time>2014-03-12T15:20:57Z</time>
      </trkpt>
      <trkpt lat="45.54392" lon="6.00708">
        <ele>467.34</ele>
        <time>2014-03-12T15:20:58Z</time>
      </trkpt>
      <trkpt lat="45.54383" lon="6.00712">
        <ele>465.42</ele>
        <time>2014-03-12T15:20:59Z</time>
      </trkpt>
      <trkpt lat="45.54374" lon="6.00715">
        <ele>463.97</ele>
        <time>2014-03-12T15:21:00Z</time>
      </trkpt>
      <trkpt lat="45.54302" lon="6.007">
        <ele>461.09</ele>
        <time>2014-03-12T15:21:03Z</time>
      </trkpt>
      <trkpt lat="45.54292" lon="6.00705">
        <ele>460.61</ele>
        <time>2014-03-12T15:21:04Z</time>
      </trkpt>
      <trkpt lat="45.54277" lon="6.00716">
        <ele>459.65</ele>
        <time>2014-03-12T15:21:06Z</time>
      </trkpt>
      <trkpt lat="45.54271" lon="6.00717">
        <ele>458.69</ele>
        <time>2014-03-12T15:21:07Z</time>
      </trkpt>
      <trkpt lat="45.54266" lon="6.00714">
        <ele>458.69</ele>
        <time>2014-03-12T15:21:08Z</time>
      </trkpt>
      <trkpt lat="45.54264" lon="6.00707">
        <ele>458.69</ele>
        <time>2014-03-12T15:21:09Z</time>
      </trkpt>
      <trkpt lat="45.54266" lon="6.007">
        <ele>457.24</ele>
        <time>2014-03-12T15:21:10Z</time>
      </trkpt>
      <trkpt lat="45.5427" lon="6.00694">
        <ele>457.24</ele>
        <time>2014-03-12T15:21:11Z</time>
      </trkpt>
      <trkpt lat="45.54284" lon="6.00674">
        <ele>455.8</ele>
        <time>2014-03-12T15:21:14Z</time>
      </trkpt>
      <trkpt lat="45.54289" lon="6.00667">
        <ele>455.32</ele>
        <time>2014-03-12T15:21:15Z</time>
      </trkpt>
      <trkpt lat="45.54295" lon="6.00661">
        <ele>455.32</ele>
        <time>2014-03-12T15:21:16Z</time>
      </trkpt>
      <trkpt lat="45.54302" lon="6.00657">
        <ele>454.84</ele>
        <time>2014-03-12T15:21:17Z</time>
      </trkpt>
      <trkpt lat="45.54308" lon="6.00654">
        <ele>454.36</ele>
        <time>2014-03-12T15:21:18Z</time>
      </trkpt>
      <trkpt lat="45.54313" lon="6.00649">
        <ele>453.88</ele>
        <time>2014-03-12T15:21:19Z</time>
      </trkpt>
      <trkpt lat="45.54316" lon="6.00641">
        <ele>453.88</ele>
        <time>2014-03-12T15:21:20Z</time>
      </trkpt>
      <trkpt lat="45.54317" lon="6.00633">
        <ele>453.4</ele>
        <time>2014-03-12T15:21:21Z</time>
      </trkpt>
      <trkpt lat="45.54318" lon="6.00627">
        <ele>453.4</ele>
        <time>2014-03-12T15:21:22Z</time>
      </trkpt>
      <trkpt lat="45.54319" lon="6.00622">
        <ele>452.92</ele>
        <time>2014-03-12T15:21:23Z</time>
      </trkpt>
      <trkpt lat="45.5432" lon="6.0062">
        <ele>452.44</ele>
        <time>2014-03-12T15:21:24Z</time>
      </trkpt>
      <trkpt lat="45.54309" lon="6.00625">
        <ele>451.48</ele>
        <time>2014-03-12T15:21:26Z</time>
      </trkpt>
      <trkpt lat="45.54298" lon="6.00628">
        <ele>451</ele>
        <time>2014-03-12T15:21:27Z</time>
      </trkpt>
      <trkpt lat="45.54246" lon="6.00638">
        <ele>448.11</ele>
        <time>2014-03-12T15:21:32Z</time>
      </trkpt>
      <trkpt lat="45.54239" lon="6.00642">
        <ele>446.67</ele>
        <time>2014-03-12T15:21:33Z</time>
      </trkpt>
      <trkpt lat="45.54232" lon="6.00647">
        <ele>446.67</ele>
        <time>2014-03-12T15:21:34Z</time>
      </trkpt>
      <trkpt lat="45.54226" lon="6.0065">
        <ele>445.71</ele>
        <time>2014-03-12T15:21:35Z</time>
      </trkpt>
      <trkpt lat="45.54219" lon="6.00651">
        <ele>445.23</ele>
        <time>2014-03-12T15:21:36Z</time>
      </trkpt>
      <trkpt lat="45.54214" lon="6.00652">
        <ele>445.23</ele>
        <time>2014-03-12T15:21:37Z</time>
      </trkpt>
      <trkpt lat="45.5421" lon="6.00651">
        <ele>444.75</ele>
        <time>2014-03-12T15:21:38Z</time>
      </trkpt>
      <trkpt lat="45.54206" lon="6.00649">
        <ele>444.27</ele>
        <time>2014-03-12T15:21:39Z</time>
      </trkpt>
      <trkpt lat="45.54203" lon="6.00644">
        <ele>443.79</ele>
        <time>2014-03-12T15:21:40Z</time>
      </trkpt>
      <trkpt lat="45.542" lon="6.00638">
        <ele>442.82</ele>
        <time>2014-03-12T15:21:41Z</time>
      </trkpt>
      <trkpt lat="45.54199" lon="6.00632">
        <ele>441.86</ele>
        <time>2014-03-12T15:21:42Z</time>
      </trkpt>
      <trkpt lat="45.54197" lon="6.00627">
        <ele>441.38</ele>
        <time>2014-03-12T15:21:43Z</time>
      </trkpt>
      <trkpt lat="45.54197" lon="6.0062">
        <ele>440.42</ele>
        <time>2014-03-12T15:21:44Z</time>
      </trkpt>
      <trkpt lat="45.54197" lon="6.00613">
        <ele>439.46</ele>
        <time>2014-03-12T15:21:45Z</time>
      </trkpt>
      <trkpt lat="45.54199" lon="6.00599">
        <ele>438.02</ele>
        <time>2014-03-12T15:21:47Z</time>
      </trkpt>
      <trkpt lat="45.54199" lon="6.00594">
        <ele>438.02</ele>
        <time>2014-03-12T15:21:48Z</time>
      </trkpt>
      <trkpt lat="45.54201" lon="6.00576">
        <ele>436.1</ele>
        <time>2014-03-12T15:21:53Z</time>
      </trkpt>
      <trkpt lat="45.54198" lon="6.00573">
        <ele>435.61</ele>
        <time>2014-03-12T15:21:54Z</time>
      </trkpt>
      <trkpt lat="45.5419" lon="6.00566">
        <ele>434.65</ele>
        <time>2014-03-12T15:21:56Z</time>
      </trkpt>
      <trkpt lat="45.54161" lon="6.0055">
        <ele>431.29</ele>
        <time>2014-03-12T15:22:01Z</time>
      </trkpt>
      <trkpt lat="45.54156" lon="6.00545">
        <ele>430.33</ele>
        <time>2014-03-12T15:22:02Z</time>
      </trkpt>
      <trkpt lat="45.54152" lon="6.00541">
        <ele>429.85</ele>
        <time>2014-03-12T15:22:03Z</time>
      </trkpt>
      <trkpt lat="45.54147" lon="6.00536">
        <ele>429.37</ele>
        <time>2014-03-12T15:22:04Z</time>
      </trkpt>
      <trkpt lat="45.54142" lon="6.00532">
        <ele>428.89</ele>
        <time>2014-03-12T15:22:05Z</time>
      </trkpt>
      <trkpt lat="45.54136" lon="6.00529">
        <ele>428.4</ele>
        <time>2014-03-12T15:22:06Z</time>
      </trkpt>
      <trkpt lat="45.5413" lon="6.00526">
        <ele>427.92</ele>
        <time>2014-03-12T15:22:07Z</time>
      </trkpt>
      <trkpt lat="45.54123" lon="6.00523">
        <ele>426.96</ele>
        <time>2014-03-12T15:22:08Z</time>
      </trkpt>
      <trkpt lat="45.54102" lon="6.00516">
        <ele>425.04</ele>
        <time>2014-03-12T15:22:11Z</time>
      </trkpt>
      <trkpt lat="45.54074" lon="6.00509">
        <ele>423.12</ele>
        <time>2014-03-12T15:22:16Z</time>
      </trkpt>
      <trkpt lat="45.54031" lon="6.0051">
        <ele>420.23</ele>
        <time>2014-03-12T15:22:22Z</time>
      </trkpt>
      <trkpt lat="45.53988" lon="6.00508">
        <ele>416.87</ele>
        <time>2014-03-12T15:22:29Z</time>
      </trkpt>
      <trkpt lat="45.53959" lon="6.00524">
        <ele>417.83</ele>
        <time>2014-03-12T15:22:40Z</time>
      </trkpt>
      <trkpt lat="45.53911" lon="6.00529">
        <ele>420.23</ele>
        <time>2014-03-12T15:22:55Z</time>
      </trkpt>
      <trkpt lat="45.53879" lon="6.00532">
        <ele>421.68</ele>
        <time>2014-03-12T15:23:09Z</time>
      </trkpt>
      <trkpt lat="45.53852" lon="6.00539">
        <ele>424.08</ele>
        <time>2014-03-12T15:23:22Z</time>
      </trkpt>
      <trkpt lat="45.53838" lon="6.00543">
        <ele>425.52</ele>
        <time>2014-03-12T15:23:30Z</time>
      </trkpt>
      <trkpt lat="45.53836" lon="6.00545">
        <ele>425.52</ele>
        <time>2014-03-12T15:23:31Z</time>
      </trkpt>
      <trkpt lat="45.53805" lon="6.00552">
        <ele>427.92</ele>
        <time>2014-03-12T15:23:47Z</time>
      </trkpt>
      <trkpt lat="45.53778" lon="6.00544">
        <ele>429.37</ele>
        <time>2014-03-12T15:24:01Z</time>
      </trkpt>
      <trkpt lat="45.53744" lon="6.00541">
        <ele>430.81</ele>
        <time>2014-03-12T15:24:17Z</time>
      </trkpt>
      <trkpt lat="45.53702" lon="6.00542">
        <ele>431.77</ele>
        <time>2014-03-12T15:24:36Z</time>
      </trkpt>
      <trkpt lat="45.53666" lon="6.00548">
        <ele>432.25</ele>
        <time>2014-03-12T15:24:53Z</time>
      </trkpt>
      <trkpt lat="45.53632" lon="6.00555">
        <ele>434.65</ele>
        <time>2014-03-12T15:25:10Z</time>
      </trkpt>
      <trkpt lat="45.536" lon="6.00561">
        <ele>436.58</ele>
        <time>2014-03-12T15:25:27Z</time>
      </trkpt>
      <trkpt lat="45.53575" lon="6.00564">
        <ele>438.5</ele>
        <time>2014-03-12T15:25:41Z</time>
      </trkpt>
      <trkpt lat="45.53544" lon="6.00573">
        <ele>438.5</ele>
        <time>2014-03-12T15:25:57Z</time>
      </trkpt>
      <trkpt lat="45.53508" lon="6.00579">
        <ele>440.9</ele>
        <time>2014-03-12T15:26:13Z</time>
      </trkpt>
      <trkpt lat="45.5348" lon="6.00578">
        <ele>442.82</ele>
        <time>2014-03-12T15:26:27Z</time>
      </trkpt>
      <trkpt lat="45.53474" lon="6.00579">
        <ele>443.79</ele>
        <time>2014-03-12T15:26:31Z</time>
      </trkpt>
      <trkpt lat="45.53462" lon="6.00583">
        <ele>444.27</ele>
        <time>2014-03-12T15:26:38Z</time>
      </trkpt>
      <trkpt lat="45.53402" lon="6.00596">
        <ele>441.38</ele>
        <time>2014-03-12T15:26:53Z</time>
      </trkpt>
      <trkpt lat="45.53387" lon="6.00597">
        <ele>440.42</ele>
        <time>2014-03-12T15:26:56Z</time>
      </trkpt>
      <trkpt lat="45.53345" lon="6.00593">
        <ele>437.54</ele>
        <time>2014-03-12T15:27:06Z</time>
      </trkpt>
      <trkpt lat="45.53305" lon="6.00586">
        <ele>434.65</ele>
        <time>2014-03-12T15:27:13Z</time>
      </trkpt>
      <trkpt lat="45.53298" lon="6.00585">
        <ele>434.65</ele>
        <time>2014-03-12T15:27:14Z</time>
      </trkpt>
      <trkpt lat="45.53225" lon="6.00573">
        <ele>436.1</ele>
        <time>2014-03-12T15:27:27Z</time>
      </trkpt>
      <trkpt lat="45.53189" lon="6.00558">
        <ele>435.13</ele>
        <time>2014-03-12T15:27:34Z</time>
      </trkpt>
      <trkpt lat="45.53185" lon="6.00554">
        <ele>435.13</ele>
        <time>2014-03-12T15:27:35Z</time>
      </trkpt>
      <trkpt lat="45.53181" lon="6.0055">
        <ele>435.13</ele>
        <time>2014-03-12T15:27:36Z</time>
      </trkpt>
      <trkpt lat="45.53129" lon="6.00494">
        <ele>437.54</ele>
        <time>2014-03-12T15:27:51Z</time>
      </trkpt>
      <trkpt lat="45.53105" lon="6.00454">
        <ele>438.02</ele>
        <time>2014-03-12T15:28:02Z</time>
      </trkpt>
      <trkpt lat="45.53068" lon="6.00399">
        <ele>439.46</ele>
        <time>2014-03-12T15:28:18Z</time>
      </trkpt>
      <trkpt lat="45.5305" lon="6.00361">
        <ele>441.86</ele>
        <time>2014-03-12T15:28:30Z</time>
      </trkpt>
      <trkpt lat="45.53048" lon="6.0036">
        <ele>441.86</ele>
        <time>2014-03-12T15:28:31Z</time>
      </trkpt>
      <trkpt lat="45.53045" lon="6.0036">
        <ele>441.38</ele>
        <time>2014-03-12T15:28:32Z</time>
      </trkpt>
      <trkpt lat="45.53041" lon="6.00359">
        <ele>440.42</ele>
        <time>2014-03-12T15:28:33Z</time>
      </trkpt>
      <trkpt lat="45.53036" lon="6.00357">
        <ele>439.94</ele>
        <time>2014-03-12T15:28:34Z</time>
      </trkpt>
      <trkpt lat="45.53031" lon="6.00353">
        <ele>438.98</ele>
        <time>2014-03-12T15:28:35Z</time>
      </trkpt>
      <trkpt lat="45.53026" lon="6.00349">
        <ele>437.54</ele>
        <time>2014-03-12T15:28:36Z</time>
      </trkpt>
      <trkpt lat="45.53021" lon="6.00345">
        <ele>437.06</ele>
        <time>2014-03-12T15:28:37Z</time>
      </trkpt>
      <trkpt lat="45.53016" lon="6.0034">
        <ele>436.1</ele>
        <time>2014-03-12T15:28:38Z</time>
      </trkpt>
      <trkpt lat="45.53012" lon="6.00335">
        <ele>435.13</ele>
        <time>2014-03-12T15:28:39Z</time>
      </trkpt>
      <trkpt lat="45.53002" lon="6.00327">
        <ele>433.21</ele>
        <time>2014-03-12T15:28:41Z</time>
      </trkpt>
      <trkpt lat="45.52997" lon="6.00324">
        <ele>431.29</ele>
        <time>2014-03-12T15:28:42Z</time>
      </trkpt>
      <trkpt lat="45.52975" lon="6.00314">
        <ele>427.44</ele>
        <time>2014-03-12T15:28:46Z</time>
      </trkpt>
      <trkpt lat="45.52969" lon="6.0031">
        <ele>426</ele>
        <time>2014-03-12T15:28:47Z</time>
      </trkpt>
      <trkpt lat="45.52942" lon="6.00296">
        <ele>423.12</ele>
        <time>2014-03-12T15:28:51Z</time>
      </trkpt>
      <trkpt lat="45.52925" lon="6.00287">
        <ele>421.19</ele>
        <time>2014-03-12T15:28:54Z</time>
      </trkpt>
      <trkpt lat="45.5292" lon="6.00285">
        <ele>420.23</ele>
        <time>2014-03-12T15:28:55Z</time>
      </trkpt>
      <trkpt lat="45.52902" lon="6.00284">
        <ele>419.75</ele>
        <time>2014-03-12T15:28:58Z</time>
      </trkpt>
      <trkpt lat="45.52896" lon="6.00283">
        <ele>419.27</ele>
        <time>2014-03-12T15:28:59Z</time>
      </trkpt>
      <trkpt lat="45.5289" lon="6.00284">
        <ele>419.75</ele>
        <time>2014-03-12T15:29:00Z</time>
      </trkpt>
      <trkpt lat="45.52885" lon="6.00286">
        <ele>419.27</ele>
        <time>2014-03-12T15:29:01Z</time>
      </trkpt>
      <trkpt lat="45.52881" lon="6.00288">
        <ele>419.75</ele>
        <time>2014-03-12T15:29:02Z</time>
      </trkpt>
      <trkpt lat="45.52876" lon="6.00292">
        <ele>419.75</ele>
        <time>2014-03-12T15:29:03Z</time>
      </trkpt>
      <trkpt lat="45.52861" lon="6.00301">
        <ele>419.27</ele>
        <time>2014-03-12T15:29:06Z</time>
      </trkpt>
      <trkpt lat="45.52856" lon="6.00302">
        <ele>419.27</ele>
        <time>2014-03-12T15:29:07Z</time>
      </trkpt>
      <trkpt lat="45.52852" lon="6.00301">
        <ele>419.27</ele>
        <time>2014-03-12T15:29:08Z</time>
      </trkpt>
      <trkpt lat="45.52847" lon="6.00299">
        <ele>419.27</ele>
        <time>2014-03-12T15:29:09Z</time>
      </trkpt>
      <trkpt lat="45.52844" lon="6.00294">
        <ele>419.75</ele>
        <time>2014-03-12T15:29:10Z</time>
      </trkpt>
      <trkpt lat="45.52842" lon="6.00289">
        <ele>419.27</ele>
        <time>2014-03-12T15:29:11Z</time>
      </trkpt>
      <trkpt lat="45.52841" lon="6.00284">
        <ele>419.75</ele>
        <time>2014-03-12T15:29:12Z</time>
      </trkpt>
      <trkpt lat="45.52831" lon="6.00255">
        <ele>421.19</ele>
        <time>2014-03-12T15:29:18Z</time>
      </trkpt>
      <trkpt lat="45.52811" lon="6.00219">
        <ele>423.6</ele>
        <time>2014-03-12T15:29:29Z</time>
      </trkpt>
      <trkpt lat="45.52808" lon="6.00219">
        <ele>423.6</ele>
        <time>2014-03-12T15:29:30Z</time>
      </trkpt>
      <trkpt lat="45.52805" lon="6.00219">
        <ele>423.6</ele>
        <time>2014-03-12T15:29:31Z</time>
      </trkpt>
      <trkpt lat="45.52802" lon="6.0022">
        <ele>423.12</ele>
        <time>2014-03-12T15:29:32Z</time>
      </trkpt>
      <trkpt lat="45.52798" lon="6.00222">
        <ele>423.6</ele>
        <time>2014-03-12T15:29:33Z</time>
      </trkpt>
      <trkpt lat="45.52749" lon="6.00244">
        <ele>423.12</ele>
        <time>2014-03-12T15:29:46Z</time>
      </trkpt>
      <trkpt lat="45.52696" lon="6.00248">
        <ele>424.08</ele>
        <time>2014-03-12T15:29:59Z</time>
      </trkpt>
      <trkpt lat="45.52692" lon="6.00248">
        <ele>424.56</ele>
        <time>2014-03-12T15:30:00Z</time>
      </trkpt>
      <trkpt lat="45.52629" lon="6.00256">
        <ele>426.96</ele>
        <time>2014-03-12T15:30:17Z</time>
      </trkpt>
      <trkpt lat="45.52594" lon="6.00268">
        <ele>427.44</ele>
        <time>2014-03-12T15:30:29Z</time>
      </trkpt>
      <trkpt lat="45.52586" lon="6.00272">
        <ele>426.48</ele>
        <time>2014-03-12T15:30:31Z</time>
      </trkpt>
      <trkpt lat="45.52555" lon="6.00286">
        <ele>422.64</ele>
        <time>2014-03-12T15:30:37Z</time>
      </trkpt>
      <trkpt lat="45.52533" lon="6.00296">
        <ele>419.75</ele>
        <time>2014-03-12T15:30:41Z</time>
      </trkpt>
      <trkpt lat="45.52515" lon="6.00303">
        <ele>416.39</ele>
        <time>2014-03-12T15:30:44Z</time>
      </trkpt>
      <trkpt lat="45.52498" lon="6.00311">
        <ele>413.02</ele>
        <time>2014-03-12T15:30:47Z</time>
      </trkpt>
      <trkpt lat="45.52494" lon="6.00311">
        <ele>412.54</ele>
        <time>2014-03-12T15:30:48Z</time>
      </trkpt>
      <trkpt lat="45.5249" lon="6.0031">
        <ele>412.06</ele>
        <time>2014-03-12T15:30:49Z</time>
      </trkpt>
      <trkpt lat="45.52486" lon="6.00306">
        <ele>412.06</ele>
        <time>2014-03-12T15:30:50Z</time>
      </trkpt>
      <trkpt lat="45.52483" lon="6.003">
        <ele>411.58</ele>
        <time>2014-03-12T15:30:51Z</time>
      </trkpt>
      <trkpt lat="45.5248" lon="6.00292">
        <ele>411.1</ele>
        <time>2014-03-12T15:30:52Z</time>
      </trkpt>
      <trkpt lat="45.52478" lon="6.00285">
        <ele>411.1</ele>
        <time>2014-03-12T15:30:53Z</time>
      </trkpt>
      <trkpt lat="45.52467" lon="6.0018">
        <ele>409.18</ele>
        <time>2014-03-12T15:31:07Z</time>
      </trkpt>
      <trkpt lat="45.52465" lon="6.00147">
        <ele>409.18</ele>
        <time>2014-03-12T15:31:12Z</time>
      </trkpt>
      <trkpt lat="45.52463" lon="6.00141">
        <ele>409.18</ele>
        <time>2014-03-12T15:31:13Z</time>
      </trkpt>
      <trkpt lat="45.52461" lon="6.00136">
        <ele>409.18</ele>
        <time>2014-03-12T15:31:14Z</time>
      </trkpt>
      <trkpt lat="45.52459" lon="6.00129">
        <ele>408.7</ele>
        <time>2014-03-12T15:31:15Z</time>
      </trkpt>
      <trkpt lat="45.52457" lon="6.00123">
        <ele>408.22</ele>
        <time>2014-03-12T15:31:16Z</time>
      </trkpt>
      <trkpt lat="45.52447" lon="6.0008">
        <ele>405.33</ele>
        <time>2014-03-12T15:31:22Z</time>
      </trkpt>
      <trkpt lat="45.52445" lon="6.00064">
        <ele>403.41</ele>
        <time>2014-03-12T15:31:24Z</time>
      </trkpt>
      <trkpt lat="45.52444" lon="6.00057">
        <ele>403.41</ele>
        <time>2014-03-12T15:31:25Z</time>
      </trkpt>
      <trkpt lat="45.52443" lon="6.00043">
        <ele>401.49</ele>
        <time>2014-03-12T15:31:27Z</time>
      </trkpt>
      <trkpt lat="45.52441" lon="6.00035">
        <ele>400.53</ele>
        <time>2014-03-12T15:31:28Z</time>
      </trkpt>
      <trkpt lat="45.52441" lon="6.00028">
        <ele>400.05</ele>
        <time>2014-03-12T15:31:29Z</time>
      </trkpt>
      <trkpt lat="45.5244" lon="6.00021">
        <ele>399.08</ele>
        <time>2014-03-12T15:31:30Z</time>
      </trkpt>
      <trkpt lat="45.52441" lon="6.00013">
        <ele>398.6</ele>
        <time>2014-03-12T15:31:31Z</time>
      </trkpt>
      <trkpt lat="45.52442" lon="6.00006">
        <ele>397.64</ele>
        <time>2014-03-12T15:31:32Z</time>
      </trkpt>
      <trkpt lat="45.52447" lon="5.99989">
        <ele>396.2</ele>
        <time>2014-03-12T15:31:35Z</time>
      </trkpt>
      <trkpt lat="45.52435" lon="5.99984">
        <ele>393.32</ele>
        <time>2014-03-12T15:31:40Z</time>
      </trkpt>
      <trkpt lat="45.52432" lon="5.99988">
        <ele>392.84</ele>
        <time>2014-03-12T15:31:41Z</time>
      </trkpt>
      <trkpt lat="45.52431" lon="5.99991">
        <ele>391.87</ele>
        <time>2014-03-12T15:31:42Z</time>
      </trkpt>
      <trkpt lat="45.5243" lon="5.99993">
        <ele>392.36</ele>
        <time>2014-03-12T15:31:43Z</time>
      </trkpt>
      <trkpt lat="45.52428" lon="5.99994">
        <ele>392.36</ele>
        <time>2014-03-12T15:31:44Z</time>
      </trkpt>
      <trkpt lat="45.52427" lon="5.99996">
        <ele>392.36</ele>
        <time>2014-03-12T15:31:45Z</time>
      </trkpt>
      <trkpt lat="45.52422" lon="6.00001">
        <ele>390.91</ele>
        <time>2014-03-12T15:31:47Z</time>
      </trkpt>
      <trkpt lat="45.52413" lon="5.99995">
        <ele>388.99</ele>
        <time>2014-03-12T15:31:51Z</time>
      </trkpt>
      <trkpt lat="45.52414" lon="5.99989">
        <ele>388.51</ele>
        <time>2014-03-12T15:31:52Z</time>
      </trkpt>
      <trkpt lat="45.52417" lon="5.99984">
        <ele>388.03</ele>
        <time>2014-03-12T15:31:53Z</time>
      </trkpt>
      <trkpt lat="45.5242" lon="5.99977">
        <ele>387.07</ele>
        <time>2014-03-12T15:31:54Z</time>
      </trkpt>
      <trkpt lat="45.52424" lon="5.99972">
        <ele>386.59</ele>
        <time>2014-03-12T15:31:55Z</time>
      </trkpt>
      <trkpt lat="45.52428" lon="5.99969">
        <ele>385.63</ele>
        <time>2014-03-12T15:31:56Z</time>
      </trkpt>
      <trkpt lat="45.52432" lon="5.99966">
        <ele>385.63</ele>
        <time>2014-03-12T15:31:57Z</time>
      </trkpt>
      <trkpt lat="45.52433" lon="5.99964">
        <ele>385.63</ele>
        <time>2014-03-12T15:31:58Z</time>
      </trkpt>
      <trkpt lat="45.52434" lon="5.9996">
        <ele>384.66</ele>
        <time>2014-03-12T15:31:59Z</time>
      </trkpt>
      <trkpt lat="45.5243" lon="5.99956">
        <ele>384.18</ele>
        <time>2014-03-12T15:32:01Z</time>
      </trkpt>
      <trkpt lat="45.52425" lon="5.99957">
        <ele>383.22</ele>
        <time>2014-03-12T15:32:02Z</time>
      </trkpt>
      <trkpt lat="45.5242" lon="5.99957">
        <ele>382.26</ele>
        <time>2014-03-12T15:32:03Z</time>
      </trkpt>
      <trkpt lat="45.52414" lon="5.99956">
        <ele>382.26</ele>
        <time>2014-03-12T15:32:04Z</time>
      </trkpt>
      <trkpt lat="45.52408" lon="5.99954">
        <ele>380.82</ele>
        <time>2014-03-12T15:32:05Z</time>
      </trkpt>
      <trkpt lat="45.52403" lon="5.99954">
        <ele>380.82</ele>
        <time>2014-03-12T15:32:06Z</time>
      </trkpt>
      <trkpt lat="45.52399" lon="5.99956">
        <ele>379.86</ele>
        <time>2014-03-12T15:32:07Z</time>
      </trkpt>
      <trkpt lat="45.52396" lon="5.99958">
        <ele>379.86</ele>
        <time>2014-03-12T15:32:08Z</time>
      </trkpt>
      <trkpt lat="45.52393" lon="5.9996">
        <ele>378.9</ele>
        <time>2014-03-12T15:32:09Z</time>
      </trkpt>
      <trkpt lat="45.5239" lon="5.99944">
        <ele>376.49</ele>
        <time>2014-03-12T15:32:14Z</time>
      </trkpt>
      <trkpt lat="45.52394" lon="5.99938">
        <ele>375.53</ele>
        <time>2014-03-12T15:32:15Z</time>
      </trkpt>
      <trkpt lat="45.52406" lon="5.99922">
        <ele>373.61</ele>
        <time>2014-03-12T15:32:18Z</time>
      </trkpt>
      <trkpt lat="45.5241" lon="5.99919">
        <ele>373.13</ele>
        <time>2014-03-12T15:32:19Z</time>
      </trkpt>
      <trkpt lat="45.52414" lon="5.99917">
        <ele>372.17</ele>
        <time>2014-03-12T15:32:20Z</time>
      </trkpt>
      <trkpt lat="45.52417" lon="5.99915">
        <ele>371.69</ele>
        <time>2014-03-12T15:32:21Z</time>
      </trkpt>
      <trkpt lat="45.52419" lon="5.99912">
        <ele>371.69</ele>
        <time>2014-03-12T15:32:22Z</time>
      </trkpt>
      <trkpt lat="45.52419" lon="5.99908">
        <ele>371.21</ele>
        <time>2014-03-12T15:32:23Z</time>
      </trkpt>
      <trkpt lat="45.52417" lon="5.99905">
        <ele>370.24</ele>
        <time>2014-03-12T15:32:24Z</time>
      </trkpt>
      <trkpt lat="45.52414" lon="5.99904">
        <ele>369.28</ele>
        <time>2014-03-12T15:32:25Z</time>
      </trkpt>
      <trkpt lat="45.52409" lon="5.99903">
        <ele>367.84</ele>
        <time>2014-03-12T15:32:26Z</time>
      </trkpt>
      <trkpt lat="45.52402" lon="5.99902">
        <ele>367.36</ele>
        <time>2014-03-12T15:32:27Z</time>
      </trkpt>
      <trkpt lat="45.52396" lon="5.99903">
        <ele>366.4</ele>
        <time>2014-03-12T15:32:28Z</time>
      </trkpt>
      <trkpt lat="45.5239" lon="5.99906">
        <ele>365.92</ele>
        <time>2014-03-12T15:32:29Z</time>
      </trkpt>
      <trkpt lat="45.52378" lon="5.99913">
        <ele>364.96</ele>
        <time>2014-03-12T15:32:32Z</time>
      </trkpt>
      <trkpt lat="45.52376" lon="5.99912">
        <ele>364</ele>
        <time>2014-03-12T15:32:33Z</time>
      </trkpt>
      <trkpt lat="45.52377" lon="5.99901">
        <ele>362.55</ele>
        <time>2014-03-12T15:32:36Z</time>
      </trkpt>
      <trkpt lat="45.5238" lon="5.99896">
        <ele>362.07</ele>
        <time>2014-03-12T15:32:37Z</time>
      </trkpt>
      <trkpt lat="45.52383" lon="5.99891">
        <ele>361.11</ele>
        <time>2014-03-12T15:32:38Z</time>
      </trkpt>
      <trkpt lat="45.52388" lon="5.99886">
        <ele>361.11</ele>
        <time>2014-03-12T15:32:39Z</time>
      </trkpt>
      <trkpt lat="45.52406" lon="5.99863">
        <ele>357.75</ele>
        <time>2014-03-12T15:32:43Z</time>
      </trkpt>
      <trkpt lat="45.5241" lon="5.99859">
        <ele>357.27</ele>
        <time>2014-03-12T15:32:44Z</time>
      </trkpt>
      <trkpt lat="45.52413" lon="5.99855">
        <ele>356.31</ele>
        <time>2014-03-12T15:32:45Z</time>
      </trkpt>
      <trkpt lat="45.52413" lon="5.9985">
        <ele>355.83</ele>
        <time>2014-03-12T15:32:46Z</time>
      </trkpt>
      <trkpt lat="45.52412" lon="5.99846">
        <ele>355.34</ele>
        <time>2014-03-12T15:32:47Z</time>
      </trkpt>
      <trkpt lat="45.52405" lon="5.99841">
        <ele>354.38</ele>
        <time>2014-03-12T15:32:49Z</time>
      </trkpt>
      <trkpt lat="45.524" lon="5.99842">
        <ele>354.38</ele>
        <time>2014-03-12T15:32:50Z</time>
      </trkpt>
      <trkpt lat="45.52395" lon="5.99846">
        <ele>352.94</ele>
        <time>2014-03-12T15:32:51Z</time>
      </trkpt>
      <trkpt lat="45.5239" lon="5.99849">
        <ele>352.94</ele>
        <time>2014-03-12T15:32:52Z</time>
      </trkpt>
      <trkpt lat="45.52386" lon="5.9985">
        <ele>351.98</ele>
        <time>2014-03-12T15:32:53Z</time>
      </trkpt>
      <trkpt lat="45.52382" lon="5.99848">
        <ele>351.02</ele>
        <time>2014-03-12T15:32:54Z</time>
      </trkpt>
      <trkpt lat="45.52376" lon="5.99841">
        <ele>350.06</ele>
        <time>2014-03-12T15:32:56Z</time>
      </trkpt>
      <trkpt lat="45.52376" lon="5.99834">
        <ele>350.06</ele>
        <time>2014-03-12T15:32:57Z</time>
      </trkpt>
      <trkpt lat="45.52378" lon="5.99828">
        <ele>349.1</ele>
        <time>2014-03-12T15:32:58Z</time>
      </trkpt>
      <trkpt lat="45.52382" lon="5.99823">
        <ele>348.62</ele>
        <time>2014-03-12T15:32:59Z</time>
      </trkpt>
      <trkpt lat="45.52387" lon="5.99818">
        <ele>348.13</ele>
        <time>2014-03-12T15:33:00Z</time>
      </trkpt>
      <trkpt lat="45.52396" lon="5.99809">
        <ele>347.17</ele>
        <time>2014-03-12T15:33:02Z</time>
      </trkpt>
      <trkpt lat="45.52397" lon="5.99802">
        <ele>346.69</ele>
        <time>2014-03-12T15:33:03Z</time>
      </trkpt>
      <trkpt lat="45.52396" lon="5.99796">
        <ele>346.21</ele>
        <time>2014-03-12T15:33:04Z</time>
      </trkpt>
      <trkpt lat="45.52393" lon="5.99792">
        <ele>344.77</ele>
        <time>2014-03-12T15:33:05Z</time>
      </trkpt>
      <trkpt lat="45.52387" lon="5.99792">
        <ele>343.81</ele>
        <time>2014-03-12T15:33:06Z</time>
      </trkpt>
      <trkpt lat="45.5238" lon="5.99794">
        <ele>343.33</ele>
        <time>2014-03-12T15:33:07Z</time>
      </trkpt>
      <trkpt lat="45.52374" lon="5.99797">
        <ele>342.37</ele>
        <time>2014-03-12T15:33:08Z</time>
      </trkpt>
      <trkpt lat="45.52369" lon="5.99799">
        <ele>341.89</ele>
        <time>2014-03-12T15:33:09Z</time>
      </trkpt>
      <trkpt lat="45.52364" lon="5.99803">
        <ele>341.41</ele>
        <time>2014-03-12T15:33:10Z</time>
      </trkpt>
      <trkpt lat="45.52359" lon="5.99808">
        <ele>339.96</ele>
        <time>2014-03-12T15:33:11Z</time>
      </trkpt>
      <trkpt lat="45.52356" lon="5.99814">
        <ele>340.92</ele>
        <time>2014-03-12T15:33:12Z</time>
      </trkpt>
      <trkpt lat="45.52353" lon="5.99818">
        <ele>340.92</ele>
        <time>2014-03-12T15:33:13Z</time>
      </trkpt>
      <trkpt lat="45.52343" lon="5.99844">
        <ele>343.33</ele>
        <time>2014-03-12T15:33:20Z</time>
      </trkpt>
      <trkpt lat="45.52342" lon="5.99848">
        <ele>343.33</ele>
        <time>2014-03-12T15:33:21Z</time>
      </trkpt>
      <trkpt lat="45.52326" lon="5.99885">
        <ele>344.77</ele>
        <time>2014-03-12T15:33:32Z</time>
      </trkpt>
      <trkpt lat="45.52296" lon="5.99944">
        <ele>346.21</ele>
        <time>2014-03-12T15:33:46Z</time>
      </trkpt>
      <trkpt lat="45.52291" lon="5.99954">
        <ele>346.21</ele>
        <time>2014-03-12T15:33:48Z</time>
      </trkpt>
      <trkpt lat="45.52256" lon="6.00029">
        <ele>347.65</ele>
        <time>2014-03-12T15:34:04Z</time>
      </trkpt>
      <trkpt lat="45.52252" lon="6.00041">
        <ele>348.13</ele>
        <time>2014-03-12T15:34:06Z</time>
      </trkpt>
      <trkpt lat="45.52249" lon="6.00047">
        <ele>347.65</ele>
        <time>2014-03-12T15:34:07Z</time>
      </trkpt>
      <trkpt lat="45.52247" lon="6.00052">
        <ele>347.65</ele>
        <time>2014-03-12T15:34:08Z</time>
      </trkpt>
      <trkpt lat="45.52243" lon="6.00057">
        <ele>347.65</ele>
        <time>2014-03-12T15:34:09Z</time>
      </trkpt>
      <trkpt lat="45.5224" lon="6.00063">
        <ele>347.17</ele>
        <time>2014-03-12T15:34:10Z</time>
      </trkpt>
      <trkpt lat="45.52236" lon="6.00068">
        <ele>347.17</ele>
        <time>2014-03-12T15:34:11Z</time>
      </trkpt>
      <trkpt lat="45.52214" lon="6.00097">
        <ele>348.13</ele>
        <time>2014-03-12T15:34:17Z</time>
      </trkpt>
      <trkpt lat="45.5221" lon="6.00101">
        <ele>348.13</ele>
        <time>2014-03-12T15:34:18Z</time>
      </trkpt>
      <trkpt lat="45.52161" lon="6.0018">
        <ele>350.54</ele>
        <time>2014-03-12T15:34:34Z</time>
      </trkpt>
      <trkpt lat="45.52159" lon="6.00185">
        <ele>350.54</ele>
        <time>2014-03-12T15:34:35Z</time>
      </trkpt>
      <trkpt lat="45.52156" lon="6.0019">
        <ele>350.06</ele>
        <time>2014-03-12T15:34:36Z</time>
      </trkpt>
      <trkpt lat="45.52139" lon="6.00229">
        <ele>351.02</ele>
        <time>2014-03-12T15:34:43Z</time>
      </trkpt>
      <trkpt lat="45.5211" lon="6.00294">
        <ele>351.02</ele>
        <time>2014-03-12T15:34:53Z</time>
      </trkpt>
      <trkpt lat="45.52106" lon="6.00308">
        <ele>351.02</ele>
        <time>2014-03-12T15:34:55Z</time>
      </trkpt>
      <trkpt lat="45.52105" lon="6.00315">
        <ele>351.5</ele>
        <time>2014-03-12T15:34:56Z</time>
      </trkpt>
      <trkpt lat="45.52105" lon="6.00322">
        <ele>351.98</ele>
        <time>2014-03-12T15:34:57Z</time>
      </trkpt>
      <trkpt lat="45.52106" lon="6.00328">
        <ele>351.98</ele>
        <time>2014-03-12T15:34:58Z</time>
      </trkpt>
      <trkpt lat="45.52108" lon="6.00334">
        <ele>351.98</ele>
        <time>2014-03-12T15:34:59Z</time>
      </trkpt>
      <trkpt lat="45.5211" lon="6.0034">
        <ele>352.46</ele>
        <time>2014-03-12T15:35:00Z</time>
      </trkpt>
      <trkpt lat="45.52112" lon="6.00344">
        <ele>352.94</ele>
        <time>2014-03-12T15:35:01Z</time>
      </trkpt>
      <trkpt lat="45.52115" lon="6.00349">
        <ele>353.42</ele>
        <time>2014-03-12T15:35:02Z</time>
      </trkpt>
      <trkpt lat="45.52118" lon="6.00353">
        <ele>353.42</ele>
        <time>2014-03-12T15:35:03Z</time>
      </trkpt>
      <trkpt lat="45.52122" lon="6.00402">
        <ele>355.34</ele>
        <time>2014-03-12T15:35:13Z</time>
      </trkpt>
      <trkpt lat="45.52109" lon="6.00426">
        <ele>356.31</ele>
        <time>2014-03-12T15:35:19Z</time>
      </trkpt>
      <trkpt lat="45.52105" lon="6.00426">
        <ele>355.34</ele>
        <time>2014-03-12T15:35:20Z</time>
      </trkpt>
      <trkpt lat="45.52092" lon="6.00414">
        <ele>353.9</ele>
        <time>2014-03-12T15:35:23Z</time>
      </trkpt>
      <trkpt lat="45.52076" lon="6.00402">
        <ele>351.5</ele>
        <time>2014-03-12T15:35:26Z</time>
      </trkpt>
      <trkpt lat="45.52072" lon="6.00396">
        <ele>351.5</ele>
        <time>2014-03-12T15:35:27Z</time>
      </trkpt>
      <trkpt lat="45.52065" lon="6.00386">
        <ele>348.62</ele>
        <time>2014-03-12T15:35:29Z</time>
      </trkpt>
      <trkpt lat="45.52063" lon="6.0038">
        <ele>347.65</ele>
        <time>2014-03-12T15:35:30Z</time>
      </trkpt>
      <trkpt lat="45.52063" lon="6.00372">
        <ele>347.17</ele>
        <time>2014-03-12T15:35:31Z</time>
      </trkpt>
      <trkpt lat="45.52063" lon="6.00363">
        <ele>346.21</ele>
        <time>2014-03-12T15:35:32Z</time>
      </trkpt>
      <trkpt lat="45.52064" lon="6.00354">
        <ele>345.25</ele>
        <time>2014-03-12T15:35:33Z</time>
      </trkpt>
      <trkpt lat="45.52066" lon="6.00313">
        <ele>341.89</ele>
        <time>2014-03-12T15:35:37Z</time>
      </trkpt>
      <trkpt lat="45.52066" lon="6.00303">
        <ele>341.89</ele>
        <time>2014-03-12T15:35:38Z</time>
      </trkpt>
      <trkpt lat="45.52068" lon="6.00278">
        <ele>339.48</ele>
        <time>2014-03-12T15:35:42Z</time>
      </trkpt>
      <trkpt lat="45.52065" lon="6.00276">
        <ele>339.48</ele>
        <time>2014-03-12T15:35:43Z</time>
      </trkpt>
      <trkpt lat="45.52062" lon="6.00279">
        <ele>338.52</ele>
        <time>2014-03-12T15:35:44Z</time>
      </trkpt>
      <trkpt lat="45.5206" lon="6.00283">
        <ele>337.56</ele>
        <time>2014-03-12T15:35:45Z</time>
      </trkpt>
      <trkpt lat="45.52056" lon="6.00288">
        <ele>337.08</ele>
        <time>2014-03-12T15:35:46Z</time>
      </trkpt>
      <trkpt lat="45.52052" lon="6.00292">
        <ele>337.08</ele>
        <time>2014-03-12T15:35:47Z</time>
      </trkpt>
      <trkpt lat="45.52041" lon="6.00308">
        <ele>335.64</ele>
        <time>2014-03-12T15:35:50Z</time>
      </trkpt>
      <trkpt lat="45.52021" lon="6.0034">
        <ele>332.75</ele>
        <time>2014-03-12T15:35:56Z</time>
      </trkpt>
      <trkpt lat="45.52017" lon="6.00344">
        <ele>330.83</ele>
        <time>2014-03-12T15:35:57Z</time>
      </trkpt>
      <trkpt lat="45.51996" lon="6.00359">
        <ele>326.99</ele>
        <time>2014-03-12T15:36:01Z</time>
      </trkpt>
      <trkpt lat="45.51975" lon="6.00372">
        <ele>323.14</ele>
        <time>2014-03-12T15:36:05Z</time>
      </trkpt>
      <trkpt lat="45.51958" lon="6.00379">
        <ele>318.81</ele>
        <time>2014-03-12T15:36:09Z</time>
      </trkpt>
      <trkpt lat="45.51955" lon="6.00378">
        <ele>317.85</ele>
        <time>2014-03-12T15:36:10Z</time>
      </trkpt>
      <trkpt lat="45.51954" lon="6.00375">
        <ele>317.85</ele>
        <time>2014-03-12T15:36:11Z</time>
      </trkpt>
      <trkpt lat="45.51954" lon="6.0037">
        <ele>316.89</ele>
        <time>2014-03-12T15:36:12Z</time>
      </trkpt>
      <trkpt lat="45.51954" lon="6.00364">
        <ele>315.93</ele>
        <time>2014-03-12T15:36:13Z</time>
      </trkpt>
      <trkpt lat="45.51956" lon="6.00358">
        <ele>315.45</ele>
        <time>2014-03-12T15:36:14Z</time>
      </trkpt>
      <trkpt lat="45.51958" lon="6.00352">
        <ele>314.97</ele>
        <time>2014-03-12T15:36:15Z</time>
      </trkpt>
      <trkpt lat="45.51961" lon="6.00347">
        <ele>314.49</ele>
        <time>2014-03-12T15:36:16Z</time>
      </trkpt>
      <trkpt lat="45.5199" lon="6.00288">
        <ele>315.45</ele>
        <time>2014-03-12T15:36:28Z</time>
      </trkpt>
      <trkpt lat="45.52003" lon="6.00231">
        <ele>314.49</ele>
        <time>2014-03-12T15:36:39Z</time>
      </trkpt>
      <trkpt lat="45.52002" lon="6.00226">
        <ele>314.01</ele>
        <time>2014-03-12T15:36:40Z</time>
      </trkpt>
      <trkpt lat="45.52" lon="6.00222">
        <ele>313.53</ele>
        <time>2014-03-12T15:36:41Z</time>
      </trkpt>
      <trkpt lat="45.51995" lon="6.00218">
        <ele>313.05</ele>
        <time>2014-03-12T15:36:42Z</time>
      </trkpt>
      <trkpt lat="45.5199" lon="6.00214">
        <ele>311.6</ele>
        <time>2014-03-12T15:36:43Z</time>
      </trkpt>
      <trkpt lat="45.51986" lon="6.0021">
        <ele>311.12</ele>
        <time>2014-03-12T15:36:44Z</time>
      </trkpt>
      <trkpt lat="45.51979" lon="6.00205">
        <ele>309.68</ele>
        <time>2014-03-12T15:36:46Z</time>
      </trkpt>
      <trkpt lat="45.51977" lon="6.00204">
        <ele>308.24</ele>
        <time>2014-03-12T15:36:47Z</time>
      </trkpt>
      <trkpt lat="45.51973" lon="6.00205">
        <ele>307.76</ele>
        <time>2014-03-12T15:36:48Z</time>
      </trkpt>
      <trkpt lat="45.51971" lon="6.00208">
        <ele>307.28</ele>
        <time>2014-03-12T15:36:49Z</time>
      </trkpt>
      <trkpt lat="45.51941" lon="6.00263">
        <ele>305.84</ele>
        <time>2014-03-12T15:37:00Z</time>
      </trkpt>
      <trkpt lat="45.5193" lon="6.00278">
        <ele>306.32</ele>
        <time>2014-03-12T15:37:04Z</time>
      </trkpt>
      <trkpt lat="45.51926" lon="6.00277">
        <ele>306.8</ele>
        <time>2014-03-12T15:37:05Z</time>
      </trkpt>
      <trkpt lat="45.51923" lon="6.00274">
        <ele>305.84</ele>
        <time>2014-03-12T15:37:06Z</time>
      </trkpt>
      <trkpt lat="45.51912" lon="6.00257">
        <ele>305.36</ele>
        <time>2014-03-12T15:37:10Z</time>
      </trkpt>
      <trkpt lat="45.51908" lon="6.00245">
        <ele>305.36</ele>
        <time>2014-03-12T15:37:12Z</time>
      </trkpt>
      <trkpt lat="45.51899" lon="6.00194">
        <ele>304.39</ele>
        <time>2014-03-12T15:37:19Z</time>
      </trkpt>
      <trkpt lat="45.51859" lon="6.00114">
        <ele>302.95</ele>
        <time>2014-03-12T15:37:32Z</time>
      </trkpt>
      <trkpt lat="45.5185" lon="6.00098">
        <ele>302.95</ele>
        <time>2014-03-12T15:37:41Z</time>
      </trkpt>
      <trkpt lat="45.5185" lon="6.00098">
        <ele>302.47</ele>
        <time>2014-03-12T15:38:06Z</time>
      </trkpt>
      <trkpt lat="45.5185" lon="6.00098">
        <ele>302.47</ele>
        <time>2014-03-12T15:38:35Z</time>
      </trkpt>
      <trkpt lat="45.51844" lon="6.00089">
        <ele>302.95</ele>
        <time>2014-03-12T15:38:57Z</time>
      </trkpt>
      <trkpt lat="45.51827" lon="6.00072">
        <ele>301.99</ele>
        <time>2014-03-12T15:39:03Z</time>
      </trkpt>
      <trkpt lat="45.51825" lon="6.00075">
        <ele>302.47</ele>
        <time>2014-03-12T15:39:04Z</time>
      </trkpt>
      <trkpt lat="45.51822" lon="6.00079">
        <ele>302.47</ele>
        <time>2014-03-12T15:39:05Z</time>
      </trkpt>
      <trkpt lat="45.51816" lon="6.00087">
        <ele>301.99</ele>
        <time>2014-03-12T15:39:07Z</time>
      </trkpt>
      <trkpt lat="45.5181" lon="6.00096">
        <ele>301.03</ele>
        <time>2014-03-12T15:39:09Z</time>
      </trkpt>
      <trkpt lat="45.51806" lon="6.00097">
        <ele>301.99</ele>
        <time>2014-03-12T15:39:10Z</time>
      </trkpt>
      <trkpt lat="45.51802" lon="6.00096">
        <ele>301.51</ele>
        <time>2014-03-12T15:39:11Z</time>
      </trkpt>
      <trkpt lat="45.51798" lon="6.00092">
        <ele>301.51</ele>
        <time>2014-03-12T15:39:12Z</time>
      </trkpt>
      <trkpt lat="45.51795" lon="6.00088">
        <ele>301.51</ele>
        <time>2014-03-12T15:39:13Z</time>
      </trkpt>
      <trkpt lat="45.51792" lon="6.00083">
        <ele>301.03</ele>
        <time>2014-03-12T15:39:14Z</time>
      </trkpt>
      <trkpt lat="45.51739" lon="6.00002">
        <ele>301.03</ele>
        <time>2014-03-12T15:39:29Z</time>
      </trkpt>
      <trkpt lat="45.51723" lon="5.99974">
        <ele>301.51</ele>
        <time>2014-03-12T15:39:34Z</time>
      </trkpt>
      <trkpt lat="45.51721" lon="5.99968">
        <ele>301.03</ele>
        <time>2014-03-12T15:39:35Z</time>
      </trkpt>
      <trkpt lat="45.51721" lon="5.99962">
        <ele>301.03</ele>
        <time>2014-03-12T15:39:36Z</time>
      </trkpt>
      <trkpt lat="45.51721" lon="5.99956">
        <ele>301.03</ele>
        <time>2014-03-12T15:39:37Z</time>
      </trkpt>
      <trkpt lat="45.51722" lon="5.9995">
        <ele>301.51</ele>
        <time>2014-03-12T15:39:38Z</time>
      </trkpt>
      <trkpt lat="45.51732" lon="5.99909">
        <ele>301.51</ele>
        <time>2014-03-12T15:39:45Z</time>
      </trkpt>
      <trkpt lat="45.51737" lon="5.99892">
        <ele>301.03</ele>
        <time>2014-03-12T15:39:48Z</time>
      </trkpt>
      <trkpt lat="45.51741" lon="5.99883">
        <ele>301.03</ele>
        <time>2014-03-12T15:39:50Z</time>
      </trkpt>
      <trkpt lat="45.51798" lon="5.99805">
        <ele>300.55</ele>
        <time>2014-03-12T15:40:07Z</time>
      </trkpt>
      <trkpt lat="45.5186" lon="5.99722">
        <ele>301.03</ele>
        <time>2014-03-12T15:40:25Z</time>
      </trkpt>
      <trkpt lat="45.51878" lon="5.99691">
        <ele>301.51</ele>
        <time>2014-03-12T15:40:32Z</time>
      </trkpt>
      <trkpt lat="45.51878" lon="5.99686">
        <ele>301.03</ele>
        <time>2014-03-12T15:40:33Z</time>
      </trkpt>
      <trkpt lat="45.51875" lon="5.99681">
        <ele>301.03</ele>
        <time>2014-03-12T15:40:34Z</time>
      </trkpt>
      <trkpt lat="45.51875" lon="5.99678">
        <ele>301.03</ele>
        <time>2014-03-12T15:40:35Z</time>
      </trkpt>
      <trkpt lat="45.51874" lon="5.99674">
        <ele>301.51</ele>
        <time>2014-03-12T15:40:36Z</time>
      </trkpt>
      <trkpt lat="45.51873" lon="5.99671">
        <ele>301.03</ele>
        <time>2014-03-12T15:40:37Z</time>
      </trkpt>
      <trkpt lat="45.51842" lon="5.99627">
        <ele>301.51</ele>
        <time>2014-03-12T15:40:48Z</time>
      </trkpt>
      <trkpt lat="45.51813" lon="5.99583">
        <ele>301.51</ele>
        <time>2014-03-12T15:40:57Z</time>
      </trkpt>
      <trkpt lat="45.51812" lon="5.99577">
        <ele>301.51</ele>
        <time>2014-03-12T15:40:58Z</time>
      </trkpt>
      <trkpt lat="45.51811" lon="5.99571">
        <ele>301.51</ele>
        <time>2014-03-12T15:40:59Z</time>
      </trkpt>
      <trkpt lat="45.51811" lon="5.99566">
        <ele>301.51</ele>
        <time>2014-03-12T15:41:00Z</time>
      </trkpt>
      <trkpt lat="45.51811" lon="5.9956">
        <ele>301.03</ele>
        <time>2014-03-12T15:41:01Z</time>
      </trkpt>
      <trkpt lat="45.51812" lon="5.99554">
        <ele>301.51</ele>
        <time>2014-03-12T15:41:02Z</time>
      </trkpt>
      <trkpt lat="45.51814" lon="5.99549">
        <ele>301.51</ele>
        <time>2014-03-12T15:41:03Z</time>
      </trkpt>
      <trkpt lat="45.51818" lon="5.99545">
        <ele>301.51</ele>
        <time>2014-03-12T15:41:04Z</time>
      </trkpt>
      <trkpt lat="45.5182" lon="5.99541">
        <ele>301.51</ele>
        <time>2014-03-12T15:41:05Z</time>
      </trkpt>
      <trkpt lat="45.51836" lon="5.99494">
        <ele>301.99</ele>
        <time>2014-03-12T15:41:16Z</time>
      </trkpt>
      <trkpt lat="45.51858" lon="5.99467">
        <ele>301.99</ele>
        <time>2014-03-12T15:41:23Z</time>
      </trkpt>
      <trkpt lat="45.5186" lon="5.99463">
        <ele>301.99</ele>
        <time>2014-03-12T15:41:24Z</time>
      </trkpt>
      <trkpt lat="45.51864" lon="5.99459">
        <ele>301.99</ele>
        <time>2014-03-12T15:41:25Z</time>
      </trkpt>
      <trkpt lat="45.51867" lon="5.99454">
        <ele>301.99</ele>
        <time>2014-03-12T15:41:26Z</time>
      </trkpt>
      <trkpt lat="45.5187" lon="5.99449">
        <ele>301.51</ele>
        <time>2014-03-12T15:41:27Z</time>
      </trkpt>
      <trkpt lat="45.51873" lon="5.99445">
        <ele>301.99</ele>
        <time>2014-03-12T15:41:28Z</time>
      </trkpt>
      <trkpt lat="45.51876" lon="5.9944">
        <ele>302.47</ele>
        <time>2014-03-12T15:41:29Z</time>
      </trkpt>
      <trkpt lat="45.5188" lon="5.99436">
        <ele>301.99</ele>
        <time>2014-03-12T15:41:30Z</time>
      </trkpt>
      <trkpt lat="45.51883" lon="5.99432">
        <ele>301.99</ele>
        <time>2014-03-12T15:41:31Z</time>
      </trkpt>
      <trkpt lat="45.51926" lon="5.99363">
        <ele>301.51</ele>
        <time>2014-03-12T15:41:46Z</time>
      </trkpt>
      <trkpt lat="45.51972" lon="5.99297">
        <ele>302.47</ele>
        <time>2014-03-12T15:42:02Z</time>
      </trkpt>
      <trkpt lat="45.51977" lon="5.9926">
        <ele>302.95</ele>
        <time>2014-03-12T15:42:13Z</time>
      </trkpt>
      <trkpt lat="45.51941" lon="5.99214">
        <ele>304.39</ele>
        <time>2014-03-12T15:42:24Z</time>
      </trkpt>
      <trkpt lat="45.51884" lon="5.9915">
        <ele>304.39</ele>
        <time>2014-03-12T15:42:38Z</time>
      </trkpt>
      <trkpt lat="45.51832" lon="5.99101">
        <ele>307.28</ele>
        <time>2014-03-12T15:42:54Z</time>
      </trkpt>
      <trkpt lat="45.51779" lon="5.99076">
        <ele>309.68</ele>
        <time>2014-03-12T15:43:10Z</time>
      </trkpt>
      <trkpt lat="45.51735" lon="5.99038">
        <ele>312.57</ele>
        <time>2014-03-12T15:43:26Z</time>
      </trkpt>
      <trkpt lat="45.51682" lon="5.98976">
        <ele>314.97</ele>
        <time>2014-03-12T15:43:46Z</time>
      </trkpt>
      <trkpt lat="45.51648" lon="5.98916">
        <ele>317.37</ele>
        <time>2014-03-12T15:44:02Z</time>
      </trkpt>
      <trkpt lat="45.51632" lon="5.98839">
        <ele>319.78</ele>
        <time>2014-03-12T15:44:20Z</time>
      </trkpt>
      <trkpt lat="45.51639" lon="5.98774">
        <ele>322.66</ele>
        <time>2014-03-12T15:44:36Z</time>
      </trkpt>
      <trkpt lat="45.51661" lon="5.98717">
        <ele>324.58</ele>
        <time>2014-03-12T15:44:53Z</time>
      </trkpt>
      <trkpt lat="45.5168" lon="5.98679">
        <ele>328.43</ele>
        <time>2014-03-12T15:45:06Z</time>
      </trkpt>
      <trkpt lat="45.51687" lon="5.98635">
        <ele>330.35</ele>
        <time>2014-03-12T15:45:19Z</time>
      </trkpt>
      <trkpt lat="45.51695" lon="5.98619">
        <ele>333.23</ele>
        <time>2014-03-12T15:45:30Z</time>
      </trkpt>
      <trkpt lat="45.51692" lon="5.98623">
        <ele>333.71</ele>
        <time>2014-03-12T15:45:33Z</time>
      </trkpt>
      <trkpt lat="45.5169" lon="5.98624">
        <ele>333.71</ele>
        <time>2014-03-12T15:45:34Z</time>
      </trkpt>
      <trkpt lat="45.51688" lon="5.98625">
        <ele>333.71</ele>
        <time>2014-03-12T15:45:35Z</time>
      </trkpt>
      <trkpt lat="45.51686" lon="5.98626">
        <ele>334.2</ele>
        <time>2014-03-12T15:45:36Z</time>
      </trkpt>
      <trkpt lat="45.51684" lon="5.98627">
        <ele>334.2</ele>
        <time>2014-03-12T15:45:37Z</time>
      </trkpt>
      <trkpt lat="45.51653" lon="5.9864">
        <ele>336.12</ele>
        <time>2014-03-12T15:45:53Z</time>
      </trkpt>
      <trkpt lat="45.51628" lon="5.98652">
        <ele>338.04</ele>
        <time>2014-03-12T15:46:07Z</time>
      </trkpt>
      <trkpt lat="45.51613" lon="5.98658">
        <ele>339</ele>
        <time>2014-03-12T15:46:15Z</time>
      </trkpt>
      <trkpt lat="45.51611" lon="5.98657">
        <ele>339.48</ele>
        <time>2014-03-12T15:46:16Z</time>
      </trkpt>
      <trkpt lat="45.5161" lon="5.98655">
        <ele>339.96</ele>
        <time>2014-03-12T15:46:17Z</time>
      </trkpt>
      <trkpt lat="45.51609" lon="5.98653">
        <ele>339.96</ele>
        <time>2014-03-12T15:46:18Z</time>
      </trkpt>
      <trkpt lat="45.51608" lon="5.98651">
        <ele>340.44</ele>
        <time>2014-03-12T15:46:19Z</time>
      </trkpt>
      <trkpt lat="45.51606" lon="5.98649">
        <ele>340.92</ele>
        <time>2014-03-12T15:46:20Z</time>
      </trkpt>
      <trkpt lat="45.51598" lon="5.98621">
        <ele>344.29</ele>
        <time>2014-03-12T15:46:33Z</time>
      </trkpt>
      <trkpt lat="45.51579" lon="5.98584">
        <ele>347.17</ele>
        <time>2014-03-12T15:46:51Z</time>
      </trkpt>
      <trkpt lat="45.51571" lon="5.98583">
        <ele>347.17</ele>
        <time>2014-03-12T15:46:55Z</time>
      </trkpt>
      <trkpt lat="45.51563" lon="5.98591">
        <ele>348.62</ele>
        <time>2014-03-12T15:47:00Z</time>
      </trkpt>
      <trkpt lat="45.51559" lon="5.98597">
        <ele>349.1</ele>
        <time>2014-03-12T15:47:03Z</time>
      </trkpt>
      <trkpt lat="45.51551" lon="5.98594">
        <ele>349.1</ele>
        <time>2014-03-12T15:47:07Z</time>
      </trkpt>
      <trkpt lat="45.51524" lon="5.98565">
        <ele>352.46</ele>
        <time>2014-03-12T15:47:23Z</time>
      </trkpt>
      <trkpt lat="45.51503" lon="5.9854">
        <ele>353.42</ele>
        <time>2014-03-12T15:47:38Z</time>
      </trkpt>
      <trkpt lat="45.51479" lon="5.98517">
        <ele>352.94</ele>
        <time>2014-03-12T15:47:52Z</time>
      </trkpt>
      <trkpt lat="45.51476" lon="5.98508">
        <ele>352.94</ele>
        <time>2014-03-12T15:47:56Z</time>
      </trkpt>
      <trkpt lat="45.51474" lon="5.98507">
        <ele>352.94</ele>
        <time>2014-03-12T15:47:58Z</time>
      </trkpt>
      <trkpt lat="45.51464" lon="5.98519">
        <ele>352.94</ele>
        <time>2014-03-12T15:48:04Z</time>
      </trkpt>
      <trkpt lat="45.51433" lon="5.98577">
        <ele>352.94</ele>
        <time>2014-03-12T15:48:19Z</time>
      </trkpt>
      <trkpt lat="45.514" lon="5.98513">
        <ele>351.5</ele>
        <time>2014-03-12T15:48:32Z</time>
      </trkpt>
      <trkpt lat="45.51385" lon="5.98474">
        <ele>350.54</ele>
        <time>2014-03-12T15:48:37Z</time>
      </trkpt>
      <trkpt lat="45.51341" lon="5.98361">
        <ele>349.58</ele>
        <time>2014-03-12T15:48:52Z</time>
      </trkpt>
      <trkpt lat="45.51296" lon="5.9825">
        <ele>347.17</ele>
        <time>2014-03-12T15:49:08Z</time>
      </trkpt>
      <trkpt lat="45.5128" lon="5.9821">
        <ele>344.77</ele>
        <time>2014-03-12T15:49:13Z</time>
      </trkpt>
      <trkpt lat="45.5127" lon="5.98184">
        <ele>343.33</ele>
        <time>2014-03-12T15:49:16Z</time>
      </trkpt>
      <trkpt lat="45.51255" lon="5.98149">
        <ele>340.44</ele>
        <time>2014-03-12T15:49:20Z</time>
      </trkpt>
      <trkpt lat="45.51242" lon="5.98119">
        <ele>340.44</ele>
        <time>2014-03-12T15:49:24Z</time>
      </trkpt>
      <trkpt lat="45.51226" lon="5.98078">
        <ele>340.92</ele>
        <time>2014-03-12T15:49:31Z</time>
      </trkpt>
      <trkpt lat="45.51221" lon="5.98066">
        <ele>340.92</ele>
        <time>2014-03-12T15:49:33Z</time>
      </trkpt>
      <trkpt lat="45.51211" lon="5.98034">
        <ele>343.81</ele>
        <time>2014-03-12T15:49:39Z</time>
      </trkpt>
      <trkpt lat="45.51209" lon="5.9803">
        <ele>343.81</ele>
        <time>2014-03-12T15:49:40Z</time>
      </trkpt>
      <trkpt lat="45.51207" lon="5.98024">
        <ele>343.33</ele>
        <time>2014-03-12T15:49:41Z</time>
      </trkpt>
      <trkpt lat="45.51205" lon="5.98019">
        <ele>342.85</ele>
        <time>2014-03-12T15:49:42Z</time>
      </trkpt>
      <trkpt lat="45.51203" lon="5.98014">
        <ele>342.37</ele>
        <time>2014-03-12T15:49:43Z</time>
      </trkpt>
      <trkpt lat="45.51203" lon="5.98009">
        <ele>341.41</ele>
        <time>2014-03-12T15:49:44Z</time>
      </trkpt>
      <trkpt lat="45.51202" lon="5.98002">
        <ele>340.92</ele>
        <time>2014-03-12T15:49:45Z</time>
      </trkpt>
      <trkpt lat="45.51197" lon="5.97954">
        <ele>339.48</ele>
        <time>2014-03-12T15:49:52Z</time>
      </trkpt>
      <trkpt lat="45.5117" lon="5.97948">
        <ele>339</ele>
        <time>2014-03-12T15:50:01Z</time>
      </trkpt>
      <trkpt lat="45.51165" lon="5.97946">
        <ele>338.04</ele>
        <time>2014-03-12T15:50:03Z</time>
      </trkpt>
      <trkpt lat="45.51164" lon="5.97911">
        <ele>335.64</ele>
        <time>2014-03-12T15:50:10Z</time>
      </trkpt>
      <trkpt lat="45.51165" lon="5.97871">
        <ele>333.71</ele>
        <time>2014-03-12T15:50:15Z</time>
      </trkpt>
      <trkpt lat="45.51164" lon="5.978">
        <ele>332.27</ele>
        <time>2014-03-12T15:50:23Z</time>
      </trkpt>
      <trkpt lat="45.51167" lon="5.97783">
        <ele>331.31</ele>
        <time>2014-03-12T15:50:25Z</time>
      </trkpt>
      <trkpt lat="45.5117" lon="5.97776">
        <ele>331.31</ele>
        <time>2014-03-12T15:50:26Z</time>
      </trkpt>
      <trkpt lat="45.51174" lon="5.97771">
        <ele>331.31</ele>
        <time>2014-03-12T15:50:27Z</time>
      </trkpt>
      <trkpt lat="45.51179" lon="5.9777">
        <ele>331.31</ele>
        <time>2014-03-12T15:50:28Z</time>
      </trkpt>
      <trkpt lat="45.51185" lon="5.97771">
        <ele>331.31</ele>
        <time>2014-03-12T15:50:29Z</time>
      </trkpt>
      <trkpt lat="45.51191" lon="5.97773">
        <ele>331.31</ele>
        <time>2014-03-12T15:50:30Z</time>
      </trkpt>
      <trkpt lat="45.51196" lon="5.97778">
        <ele>331.31</ele>
        <time>2014-03-12T15:50:31Z</time>
      </trkpt>
      <trkpt lat="45.51201" lon="5.97782">
        <ele>330.83</ele>
        <time>2014-03-12T15:50:32Z</time>
      </trkpt>
      <trkpt lat="45.51205" lon="5.97787">
        <ele>331.31</ele>
        <time>2014-03-12T15:50:33Z</time>
      </trkpt>
      <trkpt lat="45.51208" lon="5.97793">
        <ele>331.79</ele>
        <time>2014-03-12T15:50:34Z</time>
      </trkpt>
      <trkpt lat="45.51212" lon="5.97797">
        <ele>332.27</ele>
        <time>2014-03-12T15:50:35Z</time>
      </trkpt>
      <trkpt lat="45.51217" lon="5.978">
        <ele>332.75</ele>
        <time>2014-03-12T15:50:36Z</time>
      </trkpt>
      <trkpt lat="45.51222" lon="5.978">
        <ele>332.75</ele>
        <time>2014-03-12T15:50:37Z</time>
      </trkpt>
      <trkpt lat="45.51227" lon="5.97799">
        <ele>331.79</ele>
        <time>2014-03-12T15:50:38Z</time>
      </trkpt>
      <trkpt lat="45.51231" lon="5.97796">
        <ele>331.79</ele>
        <time>2014-03-12T15:50:39Z</time>
      </trkpt>
      <trkpt lat="45.51235" lon="5.97792">
        <ele>331.79</ele>
        <time>2014-03-12T15:50:40Z</time>
      </trkpt>
      <trkpt lat="45.51264" lon="5.97766">
        <ele>331.79</ele>
        <time>2014-03-12T15:50:47Z</time>
      </trkpt>
      <trkpt lat="45.51268" lon="5.97763">
        <ele>331.31</ele>
        <time>2014-03-12T15:50:48Z</time>
      </trkpt>
      <trkpt lat="45.51273" lon="5.97761">
        <ele>331.31</ele>
        <time>2014-03-12T15:50:49Z</time>
      </trkpt>
      <trkpt lat="45.51278" lon="5.9776">
        <ele>331.31</ele>
        <time>2014-03-12T15:50:50Z</time>
      </trkpt>
      <trkpt lat="45.51284" lon="5.97761">
        <ele>331.31</ele>
        <time>2014-03-12T15:50:51Z</time>
      </trkpt>
      <trkpt lat="45.51289" lon="5.97764">
        <ele>331.31</ele>
        <time>2014-03-12T15:50:52Z</time>
      </trkpt>
      <trkpt lat="45.51293" lon="5.97769">
        <ele>331.31</ele>
        <time>2014-03-12T15:50:53Z</time>
      </trkpt>
      <trkpt lat="45.51296" lon="5.97774">
        <ele>331.31</ele>
        <time>2014-03-12T15:50:54Z</time>
      </trkpt>
      <trkpt lat="45.513" lon="5.9778">
        <ele>331.79</ele>
        <time>2014-03-12T15:50:55Z</time>
      </trkpt>
      <trkpt lat="45.51335" lon="5.97824">
        <ele>330.83</ele>
        <time>2014-03-12T15:51:04Z</time>
      </trkpt>
      <trkpt lat="45.51381" lon="5.97859">
        <ele>330.83</ele>
        <time>2014-03-12T15:51:13Z</time>
      </trkpt>
      <trkpt lat="45.51386" lon="5.9786">
        <ele>330.83</ele>
        <time>2014-03-12T15:51:14Z</time>
      </trkpt>
      <trkpt lat="45.51391" lon="5.97861">
        <ele>330.83</ele>
        <time>2014-03-12T15:51:15Z</time>
      </trkpt>
      <trkpt lat="45.51396" lon="5.9786">
        <ele>330.83</ele>
        <time>2014-03-12T15:51:16Z</time>
      </trkpt>
      <trkpt lat="45.51401" lon="5.97858">
        <ele>329.87</ele>
        <time>2014-03-12T15:51:17Z</time>
      </trkpt>
      <trkpt lat="45.51406" lon="5.97857">
        <ele>330.35</ele>
        <time>2014-03-12T15:51:18Z</time>
      </trkpt>
      <trkpt lat="45.5141" lon="5.97856">
        <ele>329.87</ele>
        <time>2014-03-12T15:51:19Z</time>
      </trkpt>
      <trkpt lat="45.51414" lon="5.97855">
        <ele>329.87</ele>
        <time>2014-03-12T15:51:20Z</time>
      </trkpt>
      <trkpt lat="45.51418" lon="5.97854">
        <ele>330.35</ele>
        <time>2014-03-12T15:51:21Z</time>
      </trkpt>
      <trkpt lat="45.515" lon="5.97823">
        <ele>330.35</ele>
        <time>2014-03-12T15:51:38Z</time>
      </trkpt>
      <trkpt lat="45.51586" lon="5.97787">
        <ele>328.43</ele>
        <time>2014-03-12T15:51:54Z</time>
      </trkpt>
      <trkpt lat="45.51673" lon="5.97749">
        <ele>326.02</ele>
        <time>2014-03-12T15:52:10Z</time>
      </trkpt>
      <trkpt lat="45.51725" lon="5.97731">
        <ele>324.1</ele>
        <time>2014-03-12T15:52:19Z</time>
      </trkpt>
      <trkpt lat="45.5173" lon="5.97728">
        <ele>323.62</ele>
        <time>2014-03-12T15:52:20Z</time>
      </trkpt>
      <trkpt lat="45.51734" lon="5.97724">
        <ele>323.62</ele>
        <time>2014-03-12T15:52:21Z</time>
      </trkpt>
      <trkpt lat="45.51737" lon="5.97717">
        <ele>323.62</ele>
        <time>2014-03-12T15:52:22Z</time>
      </trkpt>
      <trkpt lat="45.5174" lon="5.97711">
        <ele>323.14</ele>
        <time>2014-03-12T15:52:23Z</time>
      </trkpt>
      <trkpt lat="45.51744" lon="5.97704">
        <ele>322.66</ele>
        <time>2014-03-12T15:52:24Z</time>
      </trkpt>
      <trkpt lat="45.51799" lon="5.97614">
        <ele>321.22</ele>
        <time>2014-03-12T15:52:38Z</time>
      </trkpt>
      <trkpt lat="45.51815" lon="5.97589">
        <ele>320.74</ele>
        <time>2014-03-12T15:52:42Z</time>
      </trkpt>
      <trkpt lat="45.5182" lon="5.97584">
        <ele>320.74</ele>
        <time>2014-03-12T15:52:43Z</time>
      </trkpt>
      <trkpt lat="45.51836" lon="5.97562">
        <ele>320.26</ele>
        <time>2014-03-12T15:52:47Z</time>
      </trkpt>
      <trkpt lat="45.51844" lon="5.97554">
        <ele>320.26</ele>
        <time>2014-03-12T15:52:49Z</time>
      </trkpt>
      <trkpt lat="45.51849" lon="5.97552">
        <ele>320.26</ele>
        <time>2014-03-12T15:52:50Z</time>
      </trkpt>
      <trkpt lat="45.51854" lon="5.97552">
        <ele>320.26</ele>
        <time>2014-03-12T15:52:51Z</time>
      </trkpt>
      <trkpt lat="45.51858" lon="5.97553">
        <ele>320.74</ele>
        <time>2014-03-12T15:52:52Z</time>
      </trkpt>
      <trkpt lat="45.51863" lon="5.97552">
        <ele>320.74</ele>
        <time>2014-03-12T15:52:53Z</time>
      </trkpt>
      <trkpt lat="45.51868" lon="5.97551">
        <ele>320.74</ele>
        <time>2014-03-12T15:52:54Z</time>
      </trkpt>
      <trkpt lat="45.51872" lon="5.97549">
        <ele>320.26</ele>
        <time>2014-03-12T15:52:55Z</time>
      </trkpt>
      <trkpt lat="45.51875" lon="5.97544">
        <ele>320.26</ele>
        <time>2014-03-12T15:52:56Z</time>
      </trkpt>
      <trkpt lat="45.51877" lon="5.97537">
        <ele>320.74</ele>
        <time>2014-03-12T15:52:57Z</time>
      </trkpt>
      <trkpt lat="45.51878" lon="5.9753">
        <ele>320.74</ele>
        <time>2014-03-12T15:52:58Z</time>
      </trkpt>
      <trkpt lat="45.51878" lon="5.97524">
        <ele>320.74</ele>
        <time>2014-03-12T15:52:59Z</time>
      </trkpt>
      <trkpt lat="45.51877" lon="5.97517">
        <ele>320.74</ele>
        <time>2014-03-12T15:53:00Z</time>
      </trkpt>
      <trkpt lat="45.51877" lon="5.97455">
        <ele>322.18</ele>
        <time>2014-03-12T15:53:10Z</time>
      </trkpt>
      <trkpt lat="45.51879" lon="5.97449">
        <ele>322.18</ele>
        <time>2014-03-12T15:53:11Z</time>
      </trkpt>
      <trkpt lat="45.51881" lon="5.97445">
        <ele>322.18</ele>
        <time>2014-03-12T15:53:12Z</time>
      </trkpt>
      <trkpt lat="45.51885" lon="5.97441">
        <ele>322.18</ele>
        <time>2014-03-12T15:53:13Z</time>
      </trkpt>
      <trkpt lat="45.51889" lon="5.97437">
        <ele>322.18</ele>
        <time>2014-03-12T15:53:14Z</time>
      </trkpt>
      <trkpt lat="45.51951" lon="5.97386">
        <ele>322.66</ele>
        <time>2014-03-12T15:53:29Z</time>
      </trkpt>
      <trkpt lat="45.51983" lon="5.97359">
        <ele>322.66</ele>
        <time>2014-03-12T15:53:39Z</time>
      </trkpt>
      <trkpt lat="45.5198" lon="5.97348">
        <ele>323.62</ele>
        <time>2014-03-12T15:53:43Z</time>
      </trkpt>
      <trkpt lat="45.51934" lon="5.97316">
        <ele>325.06</ele>
        <time>2014-03-12T15:53:57Z</time>
      </trkpt>
      <trkpt lat="45.5189" lon="5.9727">
        <ele>328.43</ele>
        <time>2014-03-12T15:54:13Z</time>
      </trkpt>
      <trkpt lat="45.51859" lon="5.97224">
        <ele>329.87</ele>
        <time>2014-03-12T15:54:27Z</time>
      </trkpt>
      <trkpt lat="45.51845" lon="5.972">
        <ele>330.35</ele>
        <time>2014-03-12T15:54:33Z</time>
      </trkpt>
      <trkpt lat="45.51844" lon="5.97194">
        <ele>330.83</ele>
        <time>2014-03-12T15:54:34Z</time>
      </trkpt>
      <trkpt lat="45.51844" lon="5.97189">
        <ele>330.35</ele>
        <time>2014-03-12T15:54:35Z</time>
      </trkpt>
      <trkpt lat="45.51844" lon="5.97183">
        <ele>330.83</ele>
        <time>2014-03-12T15:54:36Z</time>
      </trkpt>
      <trkpt lat="45.51844" lon="5.97178">
        <ele>330.83</ele>
        <time>2014-03-12T15:54:37Z</time>
      </trkpt>
      <trkpt lat="45.51844" lon="5.97173">
        <ele>330.83</ele>
        <time>2014-03-12T15:54:38Z</time>
      </trkpt>
      <trkpt lat="45.51828" lon="5.97126">
        <ele>330.35</ele>
        <time>2014-03-12T15:54:47Z</time>
      </trkpt>
      <trkpt lat="45.51826" lon="5.97119">
        <ele>330.83</ele>
        <time>2014-03-12T15:54:48Z</time>
      </trkpt>
      <trkpt lat="45.51825" lon="5.97112">
        <ele>330.35</ele>
        <time>2014-03-12T15:54:49Z</time>
      </trkpt>
      <trkpt lat="45.51824" lon="5.97105">
        <ele>330.35</ele>
        <time>2014-03-12T15:54:50Z</time>
      </trkpt>
      <trkpt lat="45.51824" lon="5.97098">
        <ele>330.35</ele>
        <time>2014-03-12T15:54:51Z</time>
      </trkpt>
      <trkpt lat="45.51822" lon="5.97077">
        <ele>330.35</ele>
        <time>2014-03-12T15:54:54Z</time>
      </trkpt>
      <trkpt lat="45.51815" lon="5.9705">
        <ele>329.39</ele>
        <time>2014-03-12T15:54:58Z</time>
      </trkpt>
      <trkpt lat="45.51806" lon="5.97016">
        <ele>328.43</ele>
        <time>2014-03-12T15:55:03Z</time>
      </trkpt>
      <trkpt lat="45.51801" lon="5.97002">
        <ele>326.99</ele>
        <time>2014-03-12T15:55:05Z</time>
      </trkpt>
      <trkpt lat="45.518" lon="5.96996">
        <ele>326.5</ele>
        <time>2014-03-12T15:55:06Z</time>
      </trkpt>
      <trkpt lat="45.518" lon="5.9699">
        <ele>326.5</ele>
        <time>2014-03-12T15:55:07Z</time>
      </trkpt>
      <trkpt lat="45.518" lon="5.96983">
        <ele>326.02</ele>
        <time>2014-03-12T15:55:08Z</time>
      </trkpt>
      <trkpt lat="45.51799" lon="5.96975">
        <ele>325.54</ele>
        <time>2014-03-12T15:55:09Z</time>
      </trkpt>
      <trkpt lat="45.51798" lon="5.96968">
        <ele>325.54</ele>
        <time>2014-03-12T15:55:10Z</time>
      </trkpt>
      <trkpt lat="45.51795" lon="5.9696">
        <ele>325.54</ele>
        <time>2014-03-12T15:55:11Z</time>
      </trkpt>
      <trkpt lat="45.51774" lon="5.969">
        <ele>324.1</ele>
        <time>2014-03-12T15:55:19Z</time>
      </trkpt>
      <trkpt lat="45.51763" lon="5.96859">
        <ele>324.1</ele>
        <time>2014-03-12T15:55:25Z</time>
      </trkpt>
      <trkpt lat="45.51761" lon="5.96852">
        <ele>324.1</ele>
        <time>2014-03-12T15:55:26Z</time>
      </trkpt>
      <trkpt lat="45.51757" lon="5.96848">
        <ele>323.62</ele>
        <time>2014-03-12T15:55:27Z</time>
      </trkpt>
      <trkpt lat="45.51753" lon="5.96846">
        <ele>323.62</ele>
        <time>2014-03-12T15:55:28Z</time>
      </trkpt>
      <trkpt lat="45.51748" lon="5.96846">
        <ele>324.1</ele>
        <time>2014-03-12T15:55:29Z</time>
      </trkpt>
      <trkpt lat="45.51743" lon="5.96848">
        <ele>324.1</ele>
        <time>2014-03-12T15:55:30Z</time>
      </trkpt>
      <trkpt lat="45.51739" lon="5.96849">
        <ele>324.1</ele>
        <time>2014-03-12T15:55:31Z</time>
      </trkpt>
      <trkpt lat="45.51713" lon="5.96862">
        <ele>324.1</ele>
        <time>2014-03-12T15:55:37Z</time>
      </trkpt>
      <trkpt lat="45.51698" lon="5.96866">
        <ele>323.62</ele>
        <time>2014-03-12T15:55:40Z</time>
      </trkpt>
      <trkpt lat="45.51693" lon="5.96869">
        <ele>323.62</ele>
        <time>2014-03-12T15:55:41Z</time>
      </trkpt>
      <trkpt lat="45.51687" lon="5.96871">
        <ele>323.62</ele>
        <time>2014-03-12T15:55:42Z</time>
      </trkpt>
      <trkpt lat="45.51678" lon="5.96874">
        <ele>323.62</ele>
        <time>2014-03-12T15:55:44Z</time>
      </trkpt>
      <trkpt lat="45.51673" lon="5.96876">
        <ele>323.62</ele>
        <time>2014-03-12T15:55:45Z</time>
      </trkpt>
      <trkpt lat="45.51669" lon="5.96878">
        <ele>323.62</ele>
        <time>2014-03-12T15:55:46Z</time>
      </trkpt>
      <trkpt lat="45.51664" lon="5.96878">
        <ele>323.14</ele>
        <time>2014-03-12T15:55:47Z</time>
      </trkpt>
      <trkpt lat="45.5166" lon="5.96875">
        <ele>323.14</ele>
        <time>2014-03-12T15:55:48Z</time>
      </trkpt>
      <trkpt lat="45.51656" lon="5.96871">
        <ele>323.14</ele>
        <time>2014-03-12T15:55:49Z</time>
      </trkpt>
      <trkpt lat="45.51652" lon="5.96866">
        <ele>322.66</ele>
        <time>2014-03-12T15:55:50Z</time>
      </trkpt>
      <trkpt lat="45.51648" lon="5.96861">
        <ele>323.14</ele>
        <time>2014-03-12T15:55:51Z</time>
      </trkpt>
      <trkpt lat="45.51644" lon="5.96857">
        <ele>323.14</ele>
        <time>2014-03-12T15:55:52Z</time>
      </trkpt>
      <trkpt lat="45.51639" lon="5.96855">
        <ele>323.14</ele>
        <time>2014-03-12T15:55:53Z</time>
      </trkpt>
      <trkpt lat="45.51634" lon="5.96854">
        <ele>322.66</ele>
        <time>2014-03-12T15:55:54Z</time>
      </trkpt>
      <trkpt lat="45.51628" lon="5.96852">
        <ele>322.66</ele>
        <time>2014-03-12T15:55:55Z</time>
      </trkpt>
      <trkpt lat="45.51624" lon="5.96849">
        <ele>323.14</ele>
        <time>2014-03-12T15:55:56Z</time>
      </trkpt>
      <trkpt lat="45.5162" lon="5.96843">
        <ele>323.14</ele>
        <time>2014-03-12T15:55:57Z</time>
      </trkpt>
      <trkpt lat="45.51617" lon="5.96836">
        <ele>322.66</ele>
        <time>2014-03-12T15:55:58Z</time>
      </trkpt>
      <trkpt lat="45.51614" lon="5.96829">
        <ele>322.18</ele>
        <time>2014-03-12T15:55:59Z</time>
      </trkpt>
      <trkpt lat="45.51612" lon="5.96822">
        <ele>322.66</ele>
        <time>2014-03-12T15:56:00Z</time>
      </trkpt>
      <trkpt lat="45.51607" lon="5.96807">
        <ele>322.66</ele>
        <time>2014-03-12T15:56:02Z</time>
      </trkpt>
      <trkpt lat="45.51606" lon="5.96799">
        <ele>322.18</ele>
        <time>2014-03-12T15:56:03Z</time>
      </trkpt>
      <trkpt lat="45.51606" lon="5.96791">
        <ele>322.18</ele>
        <time>2014-03-12T15:56:04Z</time>
      </trkpt>
      <trkpt lat="45.51606" lon="5.96783">
        <ele>321.7</ele>
        <time>2014-03-12T15:56:05Z</time>
      </trkpt>
      <trkpt lat="45.51606" lon="5.96776">
        <ele>321.7</ele>
        <time>2014-03-12T15:56:06Z</time>
      </trkpt>
      <trkpt lat="45.51605" lon="5.96769">
        <ele>322.18</ele>
        <time>2014-03-12T15:56:07Z</time>
      </trkpt>
      <trkpt lat="45.51604" lon="5.96761">
        <ele>322.18</ele>
        <time>2014-03-12T15:56:08Z</time>
      </trkpt>
      <trkpt lat="45.51602" lon="5.96738">
        <ele>322.18</ele>
        <time>2014-03-12T15:56:11Z</time>
      </trkpt>
      <trkpt lat="45.516" lon="5.96731">
        <ele>321.7</ele>
        <time>2014-03-12T15:56:12Z</time>
      </trkpt>
      <trkpt lat="45.51592" lon="5.96703">
        <ele>322.66</ele>
        <time>2014-03-12T15:56:16Z</time>
      </trkpt>
      <trkpt lat="45.5159" lon="5.96698">
        <ele>323.14</ele>
        <time>2014-03-12T15:56:17Z</time>
      </trkpt>
      <trkpt lat="45.51584" lon="5.96681">
        <ele>322.18</ele>
        <time>2014-03-12T15:56:20Z</time>
      </trkpt>
      <trkpt lat="45.51583" lon="5.96674">
        <ele>322.18</ele>
        <time>2014-03-12T15:56:21Z</time>
      </trkpt>
      <trkpt lat="45.51584" lon="5.96667">
        <ele>321.22</ele>
        <time>2014-03-12T15:56:22Z</time>
      </trkpt>
      <trkpt lat="45.51587" lon="5.96661">
        <ele>321.7</ele>
        <time>2014-03-12T15:56:23Z</time>
      </trkpt>
      <trkpt lat="45.5159" lon="5.96656">
        <ele>321.22</ele>
        <time>2014-03-12T15:56:24Z</time>
      </trkpt>
      <trkpt lat="45.51593" lon="5.96652">
        <ele>321.22</ele>
        <time>2014-03-12T15:56:25Z</time>
      </trkpt>
      <trkpt lat="45.51597" lon="5.96648">
        <ele>320.74</ele>
        <time>2014-03-12T15:56:26Z</time>
      </trkpt>
      <trkpt lat="45.51601" lon="5.96644">
        <ele>321.22</ele>
        <time>2014-03-12T15:56:27Z</time>
      </trkpt>
      <trkpt lat="45.51606" lon="5.96642">
        <ele>321.22</ele>
        <time>2014-03-12T15:56:28Z</time>
      </trkpt>
      <trkpt lat="45.51611" lon="5.96639">
        <ele>321.22</ele>
        <time>2014-03-12T15:56:29Z</time>
      </trkpt>
      <trkpt lat="45.51615" lon="5.96638">
        <ele>321.22</ele>
        <time>2014-03-12T15:56:30Z</time>
      </trkpt>
      <trkpt lat="45.5162" lon="5.96637">
        <ele>321.22</ele>
        <time>2014-03-12T15:56:31Z</time>
      </trkpt>
      <trkpt lat="45.51625" lon="5.96636">
        <ele>321.22</ele>
        <time>2014-03-12T15:56:32Z</time>
      </trkpt>
      <trkpt lat="45.51706" lon="5.96616">
        <ele>321.22</ele>
        <time>2014-03-12T15:56:47Z</time>
      </trkpt>
      <trkpt lat="45.51768" lon="5.96597">
        <ele>321.22</ele>
        <time>2014-03-12T15:56:59Z</time>
      </trkpt>
      <trkpt lat="45.51773" lon="5.96595">
        <ele>320.74</ele>
        <time>2014-03-12T15:57:00Z</time>
      </trkpt>
      <trkpt lat="45.51777" lon="5.96593">
        <ele>320.74</ele>
        <time>2014-03-12T15:57:01Z</time>
      </trkpt>
      <trkpt lat="45.5178" lon="5.9659">
        <ele>320.74</ele>
        <time>2014-03-12T15:57:02Z</time>
      </trkpt>
      <trkpt lat="45.51783" lon="5.96585">
        <ele>319.78</ele>
        <time>2014-03-12T15:57:03Z</time>
      </trkpt>
      <trkpt lat="45.51783" lon="5.96579">
        <ele>319.78</ele>
        <time>2014-03-12T15:57:04Z</time>
      </trkpt>
      <trkpt lat="45.51783" lon="5.96573">
        <ele>319.78</ele>
        <time>2014-03-12T15:57:05Z</time>
      </trkpt>
      <trkpt lat="45.51783" lon="5.96566">
        <ele>320.26</ele>
        <time>2014-03-12T15:57:06Z</time>
      </trkpt>
      <trkpt lat="45.51781" lon="5.96525">
        <ele>319.78</ele>
        <time>2014-03-12T15:57:12Z</time>
      </trkpt>
      <trkpt lat="45.51781" lon="5.96519">
        <ele>319.78</ele>
        <time>2014-03-12T15:57:13Z</time>
      </trkpt>
      <trkpt lat="45.51782" lon="5.96513">
        <ele>319.78</ele>
        <time>2014-03-12T15:57:14Z</time>
      </trkpt>
      <trkpt lat="45.51784" lon="5.96507">
        <ele>319.3</ele>
        <time>2014-03-12T15:57:15Z</time>
      </trkpt>
      <trkpt lat="45.51787" lon="5.96502">
        <ele>320.26</ele>
        <time>2014-03-12T15:57:16Z</time>
      </trkpt>
      <trkpt lat="45.5179" lon="5.965">
        <ele>320.26</ele>
        <time>2014-03-12T15:57:17Z</time>
      </trkpt>
      <trkpt lat="45.51794" lon="5.96498">
        <ele>319.78</ele>
        <time>2014-03-12T15:57:18Z</time>
      </trkpt>
      <trkpt lat="45.51799" lon="5.96498">
        <ele>320.26</ele>
        <time>2014-03-12T15:57:19Z</time>
      </trkpt>
      <trkpt lat="45.51803" lon="5.96498">
        <ele>320.26</ele>
        <time>2014-03-12T15:57:20Z</time>
      </trkpt>
      <trkpt lat="45.51817" lon="5.96499">
        <ele>319.78</ele>
        <time>2014-03-12T15:57:23Z</time>
      </trkpt>
      <trkpt lat="45.51821" lon="5.96497">
        <ele>319.78</ele>
        <time>2014-03-12T15:57:24Z</time>
      </trkpt>
      <trkpt lat="45.51825" lon="5.96493">
        <ele>319.78</ele>
        <time>2014-03-12T15:57:25Z</time>
      </trkpt>
      <trkpt lat="45.51829" lon="5.96488">
        <ele>318.81</ele>
        <time>2014-03-12T15:57:26Z</time>
      </trkpt>
      <trkpt lat="45.51831" lon="5.96482">
        <ele>319.78</ele>
        <time>2014-03-12T15:57:27Z</time>
      </trkpt>
      <trkpt lat="45.51832" lon="5.96475">
        <ele>319.3</ele>
        <time>2014-03-12T15:57:28Z</time>
      </trkpt>
      <trkpt lat="45.51833" lon="5.96467">
        <ele>319.3</ele>
        <time>2014-03-12T15:57:29Z</time>
      </trkpt>
      <trkpt lat="45.5184" lon="5.9634">
        <ele>318.33</ele>
        <time>2014-03-12T15:57:46Z</time>
      </trkpt>
      <trkpt lat="45.51845" lon="5.96244">
        <ele>317.85</ele>
        <time>2014-03-12T15:57:59Z</time>
      </trkpt>
      <trkpt lat="45.51845" lon="5.96237">
        <ele>318.33</ele>
        <time>2014-03-12T15:58:00Z</time>
      </trkpt>
      <trkpt lat="45.51847" lon="5.96222">
        <ele>317.85</ele>
        <time>2014-03-12T15:58:02Z</time>
      </trkpt>
      <trkpt lat="45.51856" lon="5.96186">
        <ele>317.37</ele>
        <time>2014-03-12T15:58:07Z</time>
      </trkpt>
      <trkpt lat="45.51857" lon="5.96178">
        <ele>317.85</ele>
        <time>2014-03-12T15:58:08Z</time>
      </trkpt>
      <trkpt lat="45.51857" lon="5.9617">
        <ele>317.37</ele>
        <time>2014-03-12T15:58:09Z</time>
      </trkpt>
      <trkpt lat="45.51856" lon="5.96163">
        <ele>317.85</ele>
        <time>2014-03-12T15:58:10Z</time>
      </trkpt>
      <trkpt lat="45.51855" lon="5.96156">
        <ele>317.85</ele>
        <time>2014-03-12T15:58:11Z</time>
      </trkpt>
      <trkpt lat="45.51854" lon="5.96148">
        <ele>317.85</ele>
        <time>2014-03-12T15:58:12Z</time>
      </trkpt>
      <trkpt lat="45.51852" lon="5.96142">
        <ele>318.33</ele>
        <time>2014-03-12T15:58:13Z</time>
      </trkpt>
      <trkpt lat="45.5183" lon="5.96048">
        <ele>318.33</ele>
        <time>2014-03-12T15:58:27Z</time>
      </trkpt>
      <trkpt lat="45.51829" lon="5.96042">
        <ele>318.81</ele>
        <time>2014-03-12T15:58:28Z</time>
      </trkpt>
      <trkpt lat="45.51809" lon="5.95954">
        <ele>319.78</ele>
        <time>2014-03-12T15:58:42Z</time>
      </trkpt>
      <trkpt lat="45.51802" lon="5.95912">
        <ele>320.26</ele>
        <time>2014-03-12T15:58:49Z</time>
      </trkpt>
      <trkpt lat="45.51802" lon="5.959">
        <ele>320.74</ele>
        <time>2014-03-12T15:58:51Z</time>
      </trkpt>
      <trkpt lat="45.51802" lon="5.95894">
        <ele>320.74</ele>
        <time>2014-03-12T15:58:52Z</time>
      </trkpt>
      <trkpt lat="45.51807" lon="5.95859">
        <ele>320.26</ele>
        <time>2014-03-12T15:58:58Z</time>
      </trkpt>
      <trkpt lat="45.51813" lon="5.95824">
        <ele>321.22</ele>
        <time>2014-03-12T15:59:04Z</time>
      </trkpt>
      <trkpt lat="45.51814" lon="5.95818">
        <ele>320.74</ele>
        <time>2014-03-12T15:59:05Z</time>
      </trkpt>
      <trkpt lat="45.51814" lon="5.95812">
        <ele>320.74</ele>
        <time>2014-03-12T15:59:06Z</time>
      </trkpt>
      <trkpt lat="45.51831" lon="5.95762">
        <ele>320.74</ele>
        <time>2014-03-12T15:59:18Z</time>
      </trkpt>
      <trkpt lat="45.51895" lon="5.95711">
        <ele>320.26</ele>
        <time>2014-03-12T15:59:33Z</time>
      </trkpt>
      <trkpt lat="45.51916" lon="5.95685">
        <ele>320.26</ele>
        <time>2014-03-12T15:59:39Z</time>
      </trkpt>
      <trkpt lat="45.51919" lon="5.95681">
        <ele>320.26</ele>
        <time>2014-03-12T15:59:40Z</time>
      </trkpt>
      <trkpt lat="45.51921" lon="5.95676">
        <ele>319.78</ele>
        <time>2014-03-12T15:59:41Z</time>
      </trkpt>
      <trkpt lat="45.51922" lon="5.95671">
        <ele>319.78</ele>
        <time>2014-03-12T15:59:42Z</time>
      </trkpt>
      <trkpt lat="45.51922" lon="5.95666">
        <ele>319.78</ele>
        <time>2014-03-12T15:59:43Z</time>
      </trkpt>
      <trkpt lat="45.51922" lon="5.9566">
        <ele>319.78</ele>
        <time>2014-03-12T15:59:44Z</time>
      </trkpt>
      <trkpt lat="45.51921" lon="5.95654">
        <ele>319.78</ele>
        <time>2014-03-12T15:59:45Z</time>
      </trkpt>
      <trkpt lat="45.5192" lon="5.95647">
        <ele>319.78</ele>
        <time>2014-03-12T15:59:46Z</time>
      </trkpt>
      <trkpt lat="45.5191" lon="5.95602">
        <ele>322.66</ele>
        <time>2014-03-12T15:59:58Z</time>
      </trkpt>
      <trkpt lat="45.51895" lon="5.95565">
        <ele>324.58</ele>
        <time>2014-03-12T16:00:13Z</time>
      </trkpt>
      <trkpt lat="45.51888" lon="5.95534">
        <ele>327.95</ele>
        <time>2014-03-12T16:00:26Z</time>
      </trkpt>
      <trkpt lat="45.51884" lon="5.95502">
        <ele>331.31</ele>
        <time>2014-03-12T16:00:41Z</time>
      </trkpt>
      <trkpt lat="45.51886" lon="5.95467">
        <ele>334.2</ele>
        <time>2014-03-12T16:00:57Z</time>
      </trkpt>
      <trkpt lat="45.51888" lon="5.95441">
        <ele>337.08</ele>
        <time>2014-03-12T16:01:11Z</time>
      </trkpt>
      <trkpt lat="45.51886" lon="5.95418">
        <ele>339.96</ele>
        <time>2014-03-12T16:01:23Z</time>
      </trkpt>
      <trkpt lat="45.51885" lon="5.95411">
        <ele>341.41</ele>
        <time>2014-03-12T16:01:27Z</time>
      </trkpt>
      <trkpt lat="45.51884" lon="5.95393">
        <ele>344.29</ele>
        <time>2014-03-12T16:01:37Z</time>
      </trkpt>
      <trkpt lat="45.51884" lon="5.95392">
        <ele>344.77</ele>
        <time>2014-03-12T16:01:38Z</time>
      </trkpt>
      <trkpt lat="45.51883" lon="5.9539">
        <ele>344.29</ele>
        <time>2014-03-12T16:01:39Z</time>
      </trkpt>
      <trkpt lat="45.51883" lon="5.95388">
        <ele>344.77</ele>
        <time>2014-03-12T16:01:40Z</time>
      </trkpt>
      <trkpt lat="45.51884" lon="5.95386">
        <ele>345.25</ele>
        <time>2014-03-12T16:01:41Z</time>
      </trkpt>
      <trkpt lat="45.51878" lon="5.95357">
        <ele>347.17</ele>
        <time>2014-03-12T16:01:55Z</time>
      </trkpt>
      <trkpt lat="45.51876" lon="5.95327">
        <ele>350.54</ele>
        <time>2014-03-12T16:02:09Z</time>
      </trkpt>
      <trkpt lat="45.5187" lon="5.95294">
        <ele>352.94</ele>
        <time>2014-03-12T16:02:24Z</time>
      </trkpt>
      <trkpt lat="45.51856" lon="5.95266">
        <ele>355.83</ele>
        <time>2014-03-12T16:02:39Z</time>
      </trkpt>
      <trkpt lat="45.51845" lon="5.95264">
        <ele>359.19</ele>
        <time>2014-03-12T16:02:46Z</time>
      </trkpt>
      <trkpt lat="45.51848" lon="5.95256">
        <ele>359.67</ele>
        <time>2014-03-12T16:02:51Z</time>
      </trkpt>
      <trkpt lat="45.51878" lon="5.95235">
        <ele>360.15</ele>
        <time>2014-03-12T16:03:08Z</time>
      </trkpt>
      <trkpt lat="45.51914" lon="5.95194">
        <ele>361.59</ele>
        <time>2014-03-12T16:03:26Z</time>
      </trkpt>
      <trkpt lat="45.51953" lon="5.95154">
        <ele>363.04</ele>
        <time>2014-03-12T16:03:42Z</time>
      </trkpt>
      <trkpt lat="45.52008" lon="5.95133">
        <ele>363.04</ele>
        <time>2014-03-12T16:03:58Z</time>
      </trkpt>
      <trkpt lat="45.5205" lon="5.95106">
        <ele>362.07</ele>
        <time>2014-03-12T16:04:10Z</time>
      </trkpt>
      <trkpt lat="45.52074" lon="5.95094">
        <ele>361.59</ele>
        <time>2014-03-12T16:04:16Z</time>
      </trkpt>
      <trkpt lat="45.52097" lon="5.95083">
        <ele>361.11</ele>
        <time>2014-03-12T16:04:22Z</time>
      </trkpt>
      <trkpt lat="45.52101" lon="5.95081">
        <ele>361.11</ele>
        <time>2014-03-12T16:04:23Z</time>
      </trkpt>
      <trkpt lat="45.52132" lon="5.95067">
        <ele>357.75</ele>
        <time>2014-03-12T16:04:30Z</time>
      </trkpt>
      <trkpt lat="45.52143" lon="5.95056">
        <ele>355.34</ele>
        <time>2014-03-12T16:04:36Z</time>
      </trkpt>
      <trkpt lat="45.52144" lon="5.95053">
        <ele>355.34</ele>
        <time>2014-03-12T16:04:37Z</time>
      </trkpt>
      <trkpt lat="45.52144" lon="5.95049">
        <ele>355.34</ele>
        <time>2014-03-12T16:04:38Z</time>
      </trkpt>
      <trkpt lat="45.52145" lon="5.95044">
        <ele>354.86</ele>
        <time>2014-03-12T16:04:39Z</time>
      </trkpt>
      <trkpt lat="45.52147" lon="5.95039">
        <ele>354.86</ele>
        <time>2014-03-12T16:04:40Z</time>
      </trkpt>
      <trkpt lat="45.52159" lon="5.95019">
        <ele>356.31</ele>
        <time>2014-03-12T16:04:49Z</time>
      </trkpt>
      <trkpt lat="45.52205" lon="5.95038">
        <ele>357.27</ele>
        <time>2014-03-12T16:04:57Z</time>
      </trkpt>
      <trkpt lat="45.52218" lon="5.95037">
        <ele>356.31</ele>
        <time>2014-03-12T16:05:00Z</time>
      </trkpt>
      <trkpt lat="45.52235" lon="5.95034">
        <ele>354.86</ele>
        <time>2014-03-12T16:05:03Z</time>
      </trkpt>
      <trkpt lat="45.52248" lon="5.95028">
        <ele>353.9</ele>
        <time>2014-03-12T16:05:06Z</time>
      </trkpt>
      <trkpt lat="45.52253" lon="5.95025">
        <ele>354.38</ele>
        <time>2014-03-12T16:05:07Z</time>
      </trkpt>
      <trkpt lat="45.52257" lon="5.95022">
        <ele>353.9</ele>
        <time>2014-03-12T16:05:08Z</time>
      </trkpt>
      <trkpt lat="45.52261" lon="5.95018">
        <ele>354.38</ele>
        <time>2014-03-12T16:05:09Z</time>
      </trkpt>
      <trkpt lat="45.52264" lon="5.95013">
        <ele>353.42</ele>
        <time>2014-03-12T16:05:10Z</time>
      </trkpt>
      <trkpt lat="45.52267" lon="5.95009">
        <ele>353.9</ele>
        <time>2014-03-12T16:05:11Z</time>
      </trkpt>
      <trkpt lat="45.52268" lon="5.95003">
        <ele>353.42</ele>
        <time>2014-03-12T16:05:12Z</time>
      </trkpt>
      <trkpt lat="45.52272" lon="5.94995">
        <ele>353.42</ele>
        <time>2014-03-12T16:05:14Z</time>
      </trkpt>
      <trkpt lat="45.52275" lon="5.94992">
        <ele>353.9</ele>
        <time>2014-03-12T16:05:15Z</time>
      </trkpt>
      <trkpt lat="45.52277" lon="5.9499">
        <ele>354.38</ele>
        <time>2014-03-12T16:05:16Z</time>
      </trkpt>
      <trkpt lat="45.5228" lon="5.94989">
        <ele>354.86</ele>
        <time>2014-03-12T16:05:17Z</time>
      </trkpt>
      <trkpt lat="45.52283" lon="5.94988">
        <ele>354.86</ele>
        <time>2014-03-12T16:05:18Z</time>
      </trkpt>
      <trkpt lat="45.52318" lon="5.94985">
        <ele>357.27</ele>
        <time>2014-03-12T16:05:30Z</time>
      </trkpt>
      <trkpt lat="45.52367" lon="5.94969">
        <ele>355.83</ele>
        <time>2014-03-12T16:05:43Z</time>
      </trkpt>
      <trkpt lat="45.52371" lon="5.94968">
        <ele>355.83</ele>
        <time>2014-03-12T16:05:44Z</time>
      </trkpt>
      <trkpt lat="45.52379" lon="5.94965">
        <ele>354.86</ele>
        <time>2014-03-12T16:05:46Z</time>
      </trkpt>
      <trkpt lat="45.52394" lon="5.94964">
        <ele>354.38</ele>
        <time>2014-03-12T16:05:49Z</time>
      </trkpt>
      <trkpt lat="45.52435" lon="5.9497">
        <ele>351.98</ele>
        <time>2014-03-12T16:05:57Z</time>
      </trkpt>
      <trkpt lat="45.52441" lon="5.9497">
        <ele>351.98</ele>
        <time>2014-03-12T16:05:58Z</time>
      </trkpt>
      <trkpt lat="45.52492" lon="5.94944">
        <ele>349.58</ele>
        <time>2014-03-12T16:06:06Z</time>
      </trkpt>
      <trkpt lat="45.52511" lon="5.94925">
        <ele>350.06</ele>
        <time>2014-03-12T16:06:10Z</time>
      </trkpt>
      <trkpt lat="45.52515" lon="5.94922">
        <ele>350.06</ele>
        <time>2014-03-12T16:06:11Z</time>
      </trkpt>
      <trkpt lat="45.52518" lon="5.94918">
        <ele>350.06</ele>
        <time>2014-03-12T16:06:12Z</time>
      </trkpt>
      <trkpt lat="45.52522" lon="5.94916">
        <ele>350.54</ele>
        <time>2014-03-12T16:06:13Z</time>
      </trkpt>
      <trkpt lat="45.52526" lon="5.94915">
        <ele>351.02</ele>
        <time>2014-03-12T16:06:14Z</time>
      </trkpt>
      <trkpt lat="45.52529" lon="5.94914">
        <ele>351.5</ele>
        <time>2014-03-12T16:06:15Z</time>
      </trkpt>
      <trkpt lat="45.52564" lon="5.9491">
        <ele>354.38</ele>
        <time>2014-03-12T16:06:25Z</time>
      </trkpt>
      <trkpt lat="45.52603" lon="5.94901">
        <ele>355.83</ele>
        <time>2014-03-12T16:06:36Z</time>
      </trkpt>
      <trkpt lat="45.52657" lon="5.94876">
        <ele>356.79</ele>
        <time>2014-03-12T16:06:50Z</time>
      </trkpt>
      <trkpt lat="45.52707" lon="5.94866">
        <ele>357.75</ele>
        <time>2014-03-12T16:07:03Z</time>
      </trkpt>
      <trkpt lat="45.52764" lon="5.94854">
        <ele>360.63</ele>
        <time>2014-03-12T16:07:20Z</time>
      </trkpt>
      <trkpt lat="45.52799" lon="5.94846">
        <ele>363.04</ele>
        <time>2014-03-12T16:07:33Z</time>
      </trkpt>
      <trkpt lat="45.52821" lon="5.94838">
        <ele>366.4</ele>
        <time>2014-03-12T16:07:43Z</time>
      </trkpt>
      <trkpt lat="45.52857" lon="5.94841">
        <ele>369.76</ele>
        <time>2014-03-12T16:07:58Z</time>
      </trkpt>
      <trkpt lat="45.52897" lon="5.94855">
        <ele>371.21</ele>
        <time>2014-03-12T16:08:13Z</time>
      </trkpt>
      <trkpt lat="45.52945" lon="5.94869">
        <ele>371.21</ele>
        <time>2014-03-12T16:08:26Z</time>
      </trkpt>
      <trkpt lat="45.5295" lon="5.94869">
        <ele>371.21</ele>
        <time>2014-03-12T16:08:27Z</time>
      </trkpt>
      <trkpt lat="45.52955" lon="5.94869">
        <ele>371.21</ele>
        <time>2014-03-12T16:08:28Z</time>
      </trkpt>
      <trkpt lat="45.5296" lon="5.94868">
        <ele>371.21</ele>
        <time>2014-03-12T16:08:29Z</time>
      </trkpt>
      <trkpt lat="45.53045" lon="5.94847">
        <ele>370.73</ele>
        <time>2014-03-12T16:08:46Z</time>
      </trkpt>
      <trkpt lat="45.5306" lon="5.94845">
        <ele>370.73</ele>
        <time>2014-03-12T16:08:49Z</time>
      </trkpt>
      <trkpt lat="45.53065" lon="5.94844">
        <ele>371.21</ele>
        <time>2014-03-12T16:08:50Z</time>
      </trkpt>
      <trkpt lat="45.53092" lon="5.94843">
        <ele>371.69</ele>
        <time>2014-03-12T16:08:56Z</time>
      </trkpt>
      <trkpt lat="45.53096" lon="5.94843">
        <ele>372.17</ele>
        <time>2014-03-12T16:08:57Z</time>
      </trkpt>
      <trkpt lat="45.53101" lon="5.94843">
        <ele>372.17</ele>
        <time>2014-03-12T16:08:58Z</time>
      </trkpt>
      <trkpt lat="45.53142" lon="5.94848">
        <ele>375.05</ele>
        <time>2014-03-12T16:09:10Z</time>
      </trkpt>
      <trkpt lat="45.53179" lon="5.94839">
        <ele>376.01</ele>
        <time>2014-03-12T16:09:21Z</time>
      </trkpt>
      <trkpt lat="45.53183" lon="5.94839">
        <ele>375.53</ele>
        <time>2014-03-12T16:09:22Z</time>
      </trkpt>
      <trkpt lat="45.53209" lon="5.94839">
        <ele>374.09</ele>
        <time>2014-03-12T16:09:27Z</time>
      </trkpt>
      <trkpt lat="45.53251" lon="5.94845">
        <ele>371.69</ele>
        <time>2014-03-12T16:09:33Z</time>
      </trkpt>
      <trkpt lat="45.53331" lon="5.94845">
        <ele>373.13</ele>
        <time>2014-03-12T16:09:46Z</time>
      </trkpt>
      <trkpt lat="45.53339" lon="5.94844">
        <ele>372.65</ele>
        <time>2014-03-12T16:09:47Z</time>
      </trkpt>
      <trkpt lat="45.53342" lon="5.94842">
        <ele>373.13</ele>
        <time>2014-03-12T16:09:48Z</time>
      </trkpt>
      <trkpt lat="45.53374" lon="5.9482">
        <ele>376.49</ele>
        <time>2014-03-12T16:10:00Z</time>
      </trkpt>
      <trkpt lat="45.5341" lon="5.94806">
        <ele>378.9</ele>
        <time>2014-03-12T16:10:13Z</time>
      </trkpt>
      <trkpt lat="45.53458" lon="5.9478">
        <ele>381.3</ele>
        <time>2014-03-12T16:10:30Z</time>
      </trkpt>
      <trkpt lat="45.53489" lon="5.94763">
        <ele>382.26</ele>
        <time>2014-03-12T16:10:42Z</time>
      </trkpt>
      <trkpt lat="45.5351" lon="5.94746">
        <ele>383.22</ele>
        <time>2014-03-12T16:10:51Z</time>
      </trkpt>
      <trkpt lat="45.53511" lon="5.94742">
        <ele>383.22</ele>
        <time>2014-03-12T16:10:52Z</time>
      </trkpt>
      <trkpt lat="45.53511" lon="5.94739">
        <ele>383.7</ele>
        <time>2014-03-12T16:10:53Z</time>
      </trkpt>
      <trkpt lat="45.53511" lon="5.94736">
        <ele>383.7</ele>
        <time>2014-03-12T16:10:54Z</time>
      </trkpt>
      <trkpt lat="45.5351" lon="5.94733">
        <ele>384.18</ele>
        <time>2014-03-12T16:10:55Z</time>
      </trkpt>
      <trkpt lat="45.53519" lon="5.94696">
        <ele>386.59</ele>
        <time>2014-03-12T16:11:09Z</time>
      </trkpt>
      <trkpt lat="45.53539" lon="5.94675">
        <ele>389.95</ele>
        <time>2014-03-12T16:11:22Z</time>
      </trkpt>
      <trkpt lat="45.53532" lon="5.94646">
        <ele>391.39</ele>
        <time>2014-03-12T16:11:35Z</time>
      </trkpt>
      <trkpt lat="45.53494" lon="5.94643">
        <ele>394.28</ele>
        <time>2014-03-12T16:11:54Z</time>
      </trkpt>
      <trkpt lat="45.53469" lon="5.94625">
        <ele>397.16</ele>
        <time>2014-03-12T16:12:09Z</time>
      </trkpt>
      <trkpt lat="45.53439" lon="5.94624">
        <ele>400.05</ele>
        <time>2014-03-12T16:12:25Z</time>
      </trkpt>
      <trkpt lat="45.5341" lon="5.9464">
        <ele>402.93</ele>
        <time>2014-03-12T16:12:42Z</time>
      </trkpt>
      <trkpt lat="45.53381" lon="5.94646">
        <ele>405.81</ele>
        <time>2014-03-12T16:12:57Z</time>
      </trkpt>
      <trkpt lat="45.53352" lon="5.94645">
        <ele>409.18</ele>
        <time>2014-03-12T16:13:13Z</time>
      </trkpt>
      <trkpt lat="45.53322" lon="5.94646">
        <ele>412.06</ele>
        <time>2014-03-12T16:13:30Z</time>
      </trkpt>
      <trkpt lat="45.53313" lon="5.94648">
        <ele>413.02</ele>
        <time>2014-03-12T16:13:35Z</time>
      </trkpt>
      <trkpt lat="45.5331" lon="5.94647">
        <ele>413.02</ele>
        <time>2014-03-12T16:13:36Z</time>
      </trkpt>
      <trkpt lat="45.53309" lon="5.94647">
        <ele>413.02</ele>
        <time>2014-03-12T16:13:37Z</time>
      </trkpt>
      <trkpt lat="45.53291" lon="5.94629">
        <ele>416.39</ele>
        <time>2014-03-12T16:13:52Z</time>
      </trkpt>
      <trkpt lat="45.53313" lon="5.94618">
        <ele>418.31</ele>
        <time>2014-03-12T16:14:05Z</time>
      </trkpt>
      <trkpt lat="45.53342" lon="5.94594">
        <ele>421.19</ele>
        <time>2014-03-12T16:14:23Z</time>
      </trkpt>
      <trkpt lat="45.53366" lon="5.94567">
        <ele>424.08</ele>
        <time>2014-03-12T16:14:40Z</time>
      </trkpt>
      <trkpt lat="45.53391" lon="5.94536">
        <ele>426</ele>
        <time>2014-03-12T16:14:57Z</time>
      </trkpt>
      <trkpt lat="45.53413" lon="5.94511">
        <ele>428.89</ele>
        <time>2014-03-12T16:15:13Z</time>
      </trkpt>
      <trkpt lat="45.53424" lon="5.94471">
        <ele>432.25</ele>
        <time>2014-03-12T16:15:29Z</time>
      </trkpt>
      <trkpt lat="45.53439" lon="5.94463">
        <ele>433.69</ele>
        <time>2014-03-12T16:15:39Z</time>
      </trkpt>
      <trkpt lat="45.53441" lon="5.94463">
        <ele>433.69</ele>
        <time>2014-03-12T16:15:40Z</time>
      </trkpt>
      <trkpt lat="45.53442" lon="5.94462">
        <ele>434.17</ele>
        <time>2014-03-12T16:15:41Z</time>
      </trkpt>
      <trkpt lat="45.53444" lon="5.94462">
        <ele>434.17</ele>
        <time>2014-03-12T16:15:42Z</time>
      </trkpt>
      <trkpt lat="45.53446" lon="5.94463">
        <ele>434.17</ele>
        <time>2014-03-12T16:15:43Z</time>
      </trkpt>
      <trkpt lat="45.53448" lon="5.94465">
        <ele>434.65</ele>
        <time>2014-03-12T16:15:44Z</time>
      </trkpt>
      <trkpt lat="45.5345" lon="5.94465">
        <ele>435.13</ele>
        <time>2014-03-12T16:15:45Z</time>
      </trkpt>
      <trkpt lat="45.53452" lon="5.94465">
        <ele>435.13</ele>
        <time>2014-03-12T16:15:46Z</time>
      </trkpt>
      <trkpt lat="45.53453" lon="5.94465">
        <ele>435.61</ele>
        <time>2014-03-12T16:15:47Z</time>
      </trkpt>
      <trkpt lat="45.53472" lon="5.94441">
        <ele>437.06</ele>
        <time>2014-03-12T16:16:02Z</time>
      </trkpt>
      <trkpt lat="45.53453" lon="5.94424">
        <ele>438.98</ele>
        <time>2014-03-12T16:16:15Z</time>
      </trkpt>
      <trkpt lat="45.53426" lon="5.94429">
        <ele>440.9</ele>
        <time>2014-03-12T16:16:29Z</time>
      </trkpt>
      <trkpt lat="45.53394" lon="5.94438">
        <ele>443.79</ele>
        <time>2014-03-12T16:16:45Z</time>
      </trkpt>
      <trkpt lat="45.5336" lon="5.94448">
        <ele>445.71</ele>
        <time>2014-03-12T16:17:02Z</time>
      </trkpt>
      <trkpt lat="45.53321" lon="5.94442">
        <ele>447.15</ele>
        <time>2014-03-12T16:17:18Z</time>
      </trkpt>
      <trkpt lat="45.53289" lon="5.94464">
        <ele>447.63</ele>
        <time>2014-03-12T16:17:32Z</time>
      </trkpt>
      <trkpt lat="45.53255" lon="5.94488">
        <ele>449.07</ele>
        <time>2014-03-12T16:17:48Z</time>
      </trkpt>
      <trkpt lat="45.53252" lon="5.94484">
        <ele>450.03</ele>
        <time>2014-03-12T16:17:50Z</time>
      </trkpt>
      <trkpt lat="45.53252" lon="5.94481">
        <ele>450.03</ele>
        <time>2014-03-12T16:17:51Z</time>
      </trkpt>
      <trkpt lat="45.53252" lon="5.94479">
        <ele>450.52</ele>
        <time>2014-03-12T16:17:52Z</time>
      </trkpt>
      <trkpt lat="45.53252" lon="5.94476">
        <ele>451.48</ele>
        <time>2014-03-12T16:17:53Z</time>
      </trkpt>
      <trkpt lat="45.53253" lon="5.94473">
        <ele>451.48</ele>
        <time>2014-03-12T16:17:54Z</time>
      </trkpt>
      <trkpt lat="45.53254" lon="5.94471">
        <ele>451.48</ele>
        <time>2014-03-12T16:17:55Z</time>
      </trkpt>
      <trkpt lat="45.53255" lon="5.94468">
        <ele>451.48</ele>
        <time>2014-03-12T16:17:56Z</time>
      </trkpt>
      <trkpt lat="45.53256" lon="5.94466">
        <ele>451</ele>
        <time>2014-03-12T16:17:57Z</time>
      </trkpt>
      <trkpt lat="45.53257" lon="5.94464">
        <ele>451.96</ele>
        <time>2014-03-12T16:17:58Z</time>
      </trkpt>
      <trkpt lat="45.53279" lon="5.94431">
        <ele>453.88</ele>
        <time>2014-03-12T16:18:14Z</time>
      </trkpt>
      <trkpt lat="45.53297" lon="5.94412">
        <ele>451.48</ele>
        <time>2014-03-12T16:18:26Z</time>
      </trkpt>
      <trkpt lat="45.53306" lon="5.94407">
        <ele>456.76</ele>
        <time>2014-03-12T16:18:31Z</time>
      </trkpt>
      <trkpt lat="45.53308" lon="5.94406">
        <ele>456.76</ele>
        <time>2014-03-12T16:18:32Z</time>
      </trkpt>
      <trkpt lat="45.53339" lon="5.94398">
        <ele>459.65</ele>
        <time>2014-03-12T16:18:49Z</time>
      </trkpt>
      <trkpt lat="45.53356" lon="5.94363">
        <ele>462.05</ele>
        <time>2014-03-12T16:19:05Z</time>
      </trkpt>
      <trkpt lat="45.53364" lon="5.94327">
        <ele>464.45</ele>
        <time>2014-03-12T16:19:19Z</time>
      </trkpt>
      <trkpt lat="45.53375" lon="5.94294">
        <ele>467.34</ele>
        <time>2014-03-12T16:19:33Z</time>
      </trkpt>
      <trkpt lat="45.53397" lon="5.94264">
        <ele>470.22</ele>
        <time>2014-03-12T16:19:50Z</time>
      </trkpt>
      <trkpt lat="45.53416" lon="5.94239">
        <ele>472.63</ele>
        <time>2014-03-12T16:20:05Z</time>
      </trkpt>
      <trkpt lat="45.53429" lon="5.94201">
        <ele>475.51</ele>
        <time>2014-03-12T16:20:22Z</time>
      </trkpt>
      <trkpt lat="45.53448" lon="5.94172">
        <ele>478.87</ele>
        <time>2014-03-12T16:20:38Z</time>
      </trkpt>
      <trkpt lat="45.53474" lon="5.9416">
        <ele>482.24</ele>
        <time>2014-03-12T16:20:55Z</time>
      </trkpt>
      <trkpt lat="45.53498" lon="5.94153">
        <ele>484.16</ele>
        <time>2014-03-12T16:21:10Z</time>
      </trkpt>
      <trkpt lat="45.53517" lon="5.94154">
        <ele>486.56</ele>
        <time>2014-03-12T16:21:23Z</time>
      </trkpt>
      <trkpt lat="45.53531" lon="5.94154">
        <ele>487.53</ele>
        <time>2014-03-12T16:21:32Z</time>
      </trkpt>
      <trkpt lat="45.53556" lon="5.94147">
        <ele>490.89</ele>
        <time>2014-03-12T16:21:48Z</time>
      </trkpt>
      <trkpt lat="45.5357" lon="5.94118">
        <ele>493.29</ele>
        <time>2014-03-12T16:22:04Z</time>
      </trkpt>
      <trkpt lat="45.53579" lon="5.94088">
        <ele>495.7</ele>
        <time>2014-03-12T16:22:19Z</time>
      </trkpt>
      <trkpt lat="45.53603" lon="5.94074">
        <ele>499.06</ele>
        <time>2014-03-12T16:22:35Z</time>
      </trkpt>
      <trkpt lat="45.53626" lon="5.94065">
        <ele>501.95</ele>
        <time>2014-03-12T16:22:51Z</time>
      </trkpt>
      <trkpt lat="45.53652" lon="5.94052">
        <ele>504.35</ele>
        <time>2014-03-12T16:23:08Z</time>
      </trkpt>
      <trkpt lat="45.53671" lon="5.94034">
        <ele>506.75</ele>
        <time>2014-03-12T16:23:22Z</time>
      </trkpt>
      <trkpt lat="45.53671" lon="5.94029">
        <ele>507.23</ele>
        <time>2014-03-12T16:23:24Z</time>
      </trkpt>
      <trkpt lat="45.5365" lon="5.94019">
        <ele>509.16</ele>
        <time>2014-03-12T16:23:38Z</time>
      </trkpt>
      <trkpt lat="45.53623" lon="5.94012">
        <ele>512.04</ele>
        <time>2014-03-12T16:23:54Z</time>
      </trkpt>
      <trkpt lat="45.53599" lon="5.94001">
        <ele>514.44</ele>
        <time>2014-03-12T16:24:09Z</time>
      </trkpt>
      <trkpt lat="45.53576" lon="5.93994">
        <ele>517.81</ele>
        <time>2014-03-12T16:24:22Z</time>
      </trkpt>
      <trkpt lat="45.53548" lon="5.93986">
        <ele>520.21</ele>
        <time>2014-03-12T16:24:38Z</time>
      </trkpt>
      <trkpt lat="45.53519" lon="5.93977">
        <ele>523.09</ele>
        <time>2014-03-12T16:24:54Z</time>
      </trkpt>
      <trkpt lat="45.53494" lon="5.93974">
        <ele>525.98</ele>
        <time>2014-03-12T16:25:09Z</time>
      </trkpt>
      <trkpt lat="45.53484" lon="5.93975">
        <ele>527.9</ele>
        <time>2014-03-12T16:25:17Z</time>
      </trkpt>
      <trkpt lat="45.53483" lon="5.93974">
        <ele>527.42</ele>
        <time>2014-03-12T16:25:18Z</time>
      </trkpt>
      <trkpt lat="45.53482" lon="5.93971">
        <ele>528.38</ele>
        <time>2014-03-12T16:25:19Z</time>
      </trkpt>
      <trkpt lat="45.53482" lon="5.9397">
        <ele>528.38</ele>
        <time>2014-03-12T16:25:20Z</time>
      </trkpt>
      <trkpt lat="45.53485" lon="5.93967">
        <ele>528.86</ele>
        <time>2014-03-12T16:25:22Z</time>
      </trkpt>
      <trkpt lat="45.53499" lon="5.93952">
        <ele>531.27</ele>
        <time>2014-03-12T16:25:33Z</time>
      </trkpt>
      <trkpt lat="45.53501" lon="5.93953">
        <ele>531.27</ele>
        <time>2014-03-12T16:25:48Z</time>
      </trkpt>
      <trkpt lat="45.53502" lon="5.93954">
        <ele>530.79</ele>
        <time>2014-03-12T16:26:09Z</time>
      </trkpt>
      <trkpt lat="45.53503" lon="5.93954">
        <ele>530.79</ele>
        <time>2014-03-12T16:26:41Z</time>
      </trkpt>
      <trkpt lat="45.53503" lon="5.93954">
        <ele>529.34</ele>
        <time>2014-03-12T16:26:58Z</time>
      </trkpt>
      <trkpt lat="45.53503" lon="5.93954">
        <ele>530.79</ele>
        <time>2014-03-12T16:27:07Z</time>
      </trkpt>
      <trkpt lat="45.53507" lon="5.93949">
        <ele>531.27</ele>
        <time>2014-03-12T16:30:41Z</time>
      </trkpt>
      <trkpt lat="45.53507" lon="5.9395">
        <ele>530.3</ele>
        <time>2014-03-12T16:30:42Z</time>
      </trkpt>
      <trkpt lat="45.53503" lon="5.93952">
        <ele>533.19</ele>
        <time>2014-03-12T16:30:51Z</time>
      </trkpt>
      <trkpt lat="45.53501" lon="5.93955">
        <ele>536.55</ele>
        <time>2014-03-12T16:31:01Z</time>
      </trkpt>
      <trkpt lat="45.53503" lon="5.93957">
        <ele>539.44</ele>
        <time>2014-03-12T16:31:21Z</time>
      </trkpt>
      <trkpt lat="45.53501" lon="5.9396">
        <ele>540.88</ele>
        <time>2014-03-12T16:31:54Z</time>
      </trkpt>
      <trkpt lat="45.53503" lon="5.9396">
        <ele>541.36</ele>
        <time>2014-03-12T16:32:25Z</time>
      </trkpt>
      <trkpt lat="45.53503" lon="5.93957">
        <ele>541.36</ele>
        <time>2014-03-12T16:32:38Z</time>
      </trkpt>
      <trkpt lat="45.53503" lon="5.93957">
        <ele>541.36</ele>
        <time>2014-03-12T16:32:55Z</time>
      </trkpt>
      <trkpt lat="45.53503" lon="5.93956">
        <ele>541.36</ele>
        <time>2014-03-12T16:33:12Z</time>
      </trkpt>
      <trkpt lat="45.53504" lon="5.93955">
        <ele>541.36</ele>
        <time>2014-03-12T16:33:14Z</time>
      </trkpt>
      <trkpt lat="45.53513" lon="5.93927">
        <ele>544.24</ele>
        <time>2014-03-12T16:33:29Z</time>
      </trkpt>
      <trkpt lat="45.53527" lon="5.93909">
        <ele>546.65</ele>
        <time>2014-03-12T16:33:44Z</time>
      </trkpt>
      <trkpt lat="45.53528" lon="5.93908">
        <ele>546.65</ele>
        <time>2014-03-12T16:33:45Z</time>
      </trkpt>
      <trkpt lat="45.53536" lon="5.93902">
        <ele>548.57</ele>
        <time>2014-03-12T16:33:53Z</time>
      </trkpt>
      <trkpt lat="45.53553" lon="5.93886">
        <ele>551.93</ele>
        <time>2014-03-12T16:34:11Z</time>
      </trkpt>
      <trkpt lat="45.53563" lon="5.93877">
        <ele>552.9</ele>
        <time>2014-03-12T16:34:20Z</time>
      </trkpt>
      <trkpt lat="45.53572" lon="5.93869">
        <ele>554.34</ele>
        <time>2014-03-12T16:34:29Z</time>
      </trkpt>
      <trkpt lat="45.53588" lon="5.93859">
        <ele>557.7</ele>
        <time>2014-03-12T16:34:45Z</time>
      </trkpt>
      <trkpt lat="45.53596" lon="5.93852">
        <ele>559.14</ele>
        <time>2014-03-12T16:34:56Z</time>
      </trkpt>
      <trkpt lat="45.536" lon="5.93845">
        <ele>561.07</ele>
        <time>2014-03-12T16:35:10Z</time>
      </trkpt>
      <trkpt lat="45.53593" lon="5.93835">
        <ele>562.51</ele>
        <time>2014-03-12T16:35:24Z</time>
      </trkpt>
      <trkpt lat="45.5359" lon="5.93835">
        <ele>562.99</ele>
        <time>2014-03-12T16:35:38Z</time>
      </trkpt>
      <trkpt lat="45.53587" lon="5.93834">
        <ele>563.95</ele>
        <time>2014-03-12T16:35:43Z</time>
      </trkpt>
      <trkpt lat="45.53581" lon="5.93831">
        <ele>564.43</ele>
        <time>2014-03-12T16:35:48Z</time>
      </trkpt>
      <trkpt lat="45.53572" lon="5.93826">
        <ele>565.87</ele>
        <time>2014-03-12T16:35:56Z</time>
      </trkpt>
      <trkpt lat="45.53558" lon="5.93821">
        <ele>567.8</ele>
        <time>2014-03-12T16:36:07Z</time>
      </trkpt>
      <trkpt lat="45.5355" lon="5.93815">
        <ele>569.72</ele>
        <time>2014-03-12T16:36:20Z</time>
      </trkpt>
      <trkpt lat="45.53545" lon="5.93808">
        <ele>572.12</ele>
        <time>2014-03-12T16:36:34Z</time>
      </trkpt>
      <trkpt lat="45.53544" lon="5.93799">
        <ele>574.53</ele>
        <time>2014-03-12T16:36:49Z</time>
      </trkpt>
      <trkpt lat="45.53548" lon="5.93786">
        <ele>577.41</ele>
        <time>2014-03-12T16:37:04Z</time>
      </trkpt>
      <trkpt lat="45.53555" lon="5.93774">
        <ele>579.81</ele>
        <time>2014-03-12T16:37:20Z</time>
      </trkpt>
      <trkpt lat="45.53556" lon="5.93773">
        <ele>579.33</ele>
        <time>2014-03-12T16:37:46Z</time>
      </trkpt>
      <trkpt lat="45.53557" lon="5.93772">
        <ele>580.29</ele>
        <time>2014-03-12T16:37:55Z</time>
      </trkpt>
      <trkpt lat="45.53565" lon="5.93764">
        <ele>581.25</ele>
        <time>2014-03-12T16:38:02Z</time>
      </trkpt>
      <trkpt lat="45.53582" lon="5.93751">
        <ele>584.62</ele>
        <time>2014-03-12T16:38:17Z</time>
      </trkpt>
      <trkpt lat="45.53591" lon="5.93736">
        <ele>587.98</ele>
        <time>2014-03-12T16:38:31Z</time>
      </trkpt>
      <trkpt lat="45.536" lon="5.93728">
        <ele>589.43</ele>
        <time>2014-03-12T16:38:46Z</time>
      </trkpt>
      <trkpt lat="45.5361" lon="5.93715">
        <ele>592.79</ele>
        <time>2014-03-12T16:39:02Z</time>
      </trkpt>
      <trkpt lat="45.53615" lon="5.93709">
        <ele>593.27</ele>
        <time>2014-03-12T16:39:19Z</time>
      </trkpt>
      <trkpt lat="45.53626" lon="5.937">
        <ele>595.67</ele>
        <time>2014-03-12T16:39:34Z</time>
      </trkpt>
      <trkpt lat="45.5363" lon="5.93697">
        <ele>596.64</ele>
        <time>2014-03-12T16:39:46Z</time>
      </trkpt>
      <trkpt lat="45.53631" lon="5.93696">
        <ele>597.12</ele>
        <time>2014-03-12T16:39:47Z</time>
      </trkpt>
      <trkpt lat="45.53639" lon="5.93687">
        <ele>598.56</ele>
        <time>2014-03-12T16:39:54Z</time>
      </trkpt>
      <trkpt lat="45.53649" lon="5.93673">
        <ele>602.4</ele>
        <time>2014-03-12T16:40:05Z</time>
      </trkpt>
      <trkpt lat="45.5366" lon="5.93658">
        <ele>605.77</ele>
        <time>2014-03-12T16:40:19Z</time>
      </trkpt>
      <trkpt lat="45.53672" lon="5.93644">
        <ele>608.17</ele>
        <time>2014-03-12T16:40:34Z</time>
      </trkpt>
      <trkpt lat="45.53677" lon="5.93636">
        <ele>610.09</ele>
        <time>2014-03-12T16:40:40Z</time>
      </trkpt>
      <trkpt lat="45.53682" lon="5.93615">
        <ele>612.5</ele>
        <time>2014-03-12T16:40:52Z</time>
      </trkpt>
      <trkpt lat="45.53692" lon="5.93597">
        <ele>615.86</ele>
        <time>2014-03-12T16:41:05Z</time>
      </trkpt>
      <trkpt lat="45.53696" lon="5.93576">
        <ele>619.23</ele>
        <time>2014-03-12T16:41:18Z</time>
      </trkpt>
      <trkpt lat="45.53699" lon="5.93567">
        <ele>620.67</ele>
        <time>2014-03-12T16:41:25Z</time>
      </trkpt>
      <trkpt lat="45.53696" lon="5.9355">
        <ele>622.59</ele>
        <time>2014-03-12T16:41:38Z</time>
      </trkpt>
      <trkpt lat="45.53692" lon="5.9354">
        <ele>624.03</ele>
        <time>2014-03-12T16:41:49Z</time>
      </trkpt>
      <trkpt lat="45.53697" lon="5.9354">
        <ele>624.99</ele>
        <time>2014-03-12T16:41:53Z</time>
      </trkpt>
      <trkpt lat="45.53707" lon="5.93541">
        <ele>625.47</ele>
        <time>2014-03-12T16:42:02Z</time>
      </trkpt>
      <trkpt lat="45.53716" lon="5.93542">
        <ele>626.92</ele>
        <time>2014-03-12T16:42:16Z</time>
      </trkpt>
      <trkpt lat="45.53722" lon="5.93553">
        <ele>629.32</ele>
        <time>2014-03-12T16:42:33Z</time>
      </trkpt>
      <trkpt lat="45.53722" lon="5.93562">
        <ele>630.76</ele>
        <time>2014-03-12T16:42:48Z</time>
      </trkpt>
      <trkpt lat="45.53727" lon="5.93561">
        <ele>633.17</ele>
        <time>2014-03-12T16:43:02Z</time>
      </trkpt>
      <trkpt lat="45.53737" lon="5.93558">
        <ele>634.61</ele>
        <time>2014-03-12T16:43:16Z</time>
      </trkpt>
      <trkpt lat="45.53737" lon="5.93558">
        <ele>635.09</ele>
        <time>2014-03-12T16:43:35Z</time>
      </trkpt>
      <trkpt lat="45.53737" lon="5.93559">
        <ele>634.61</ele>
        <time>2014-03-12T16:43:55Z</time>
      </trkpt>
      <trkpt lat="45.53748" lon="5.93566">
        <ele>631.72</ele>
        <time>2014-03-12T16:44:02Z</time>
      </trkpt>
      <trkpt lat="45.53756" lon="5.93574">
        <ele>628.36</ele>
        <time>2014-03-12T16:44:07Z</time>
      </trkpt>
      <trkpt lat="45.53758" lon="5.93575">
        <ele>627.88</ele>
        <time>2014-03-12T16:44:08Z</time>
      </trkpt>
      <trkpt lat="45.5377" lon="5.93583">
        <ele>624.03</ele>
        <time>2014-03-12T16:44:13Z</time>
      </trkpt>
      <trkpt lat="45.53772" lon="5.93585">
        <ele>623.55</ele>
        <time>2014-03-12T16:44:14Z</time>
      </trkpt>
      <trkpt lat="45.5378" lon="5.93607">
        <ele>624.51</ele>
        <time>2014-03-12T16:44:21Z</time>
      </trkpt>
      <trkpt lat="45.53783" lon="5.93633">
        <ele>627.4</ele>
        <time>2014-03-12T16:44:36Z</time>
      </trkpt>
      <trkpt lat="45.53786" lon="5.9364">
        <ele>629.32</ele>
        <time>2014-03-12T16:44:42Z</time>
      </trkpt>
      <trkpt lat="45.53794" lon="5.93634">
        <ele>632.2</ele>
        <time>2014-03-12T16:44:54Z</time>
      </trkpt>
      <trkpt lat="45.53798" lon="5.93624">
        <ele>634.13</ele>
        <time>2014-03-12T16:45:08Z</time>
      </trkpt>
      <trkpt lat="45.53805" lon="5.93629">
        <ele>633.65</ele>
        <time>2014-03-12T16:45:21Z</time>
      </trkpt>
      <trkpt lat="45.53806" lon="5.93629">
        <ele>633.17</ele>
        <time>2014-03-12T16:45:23Z</time>
      </trkpt>
      <trkpt lat="45.5382" lon="5.93638">
        <ele>630.28</ele>
        <time>2014-03-12T16:45:31Z</time>
      </trkpt>
      <trkpt lat="45.53835" lon="5.93651">
        <ele>627.4</ele>
        <time>2014-03-12T16:45:38Z</time>
      </trkpt>
      <trkpt lat="45.53845" lon="5.9368">
        <ele>629.8</ele>
        <time>2014-03-12T16:45:50Z</time>
      </trkpt>
      <trkpt lat="45.53846" lon="5.93682">
        <ele>629.8</ele>
        <time>2014-03-12T16:45:52Z</time>
      </trkpt>
      <trkpt lat="45.53856" lon="5.93692">
        <ele>632.68</ele>
        <time>2014-03-12T16:46:07Z</time>
      </trkpt>
      <trkpt lat="45.53862" lon="5.93697">
        <ele>635.09</ele>
        <time>2014-03-12T16:46:23Z</time>
      </trkpt>
      <trkpt lat="45.53864" lon="5.93705">
        <ele>637.97</ele>
        <time>2014-03-12T16:46:37Z</time>
      </trkpt>
      <trkpt lat="45.53867" lon="5.93713">
        <ele>640.38</ele>
        <time>2014-03-12T16:46:53Z</time>
      </trkpt>
      <trkpt lat="45.53868" lon="5.93717">
        <ele>641.34</ele>
        <time>2014-03-12T16:47:04Z</time>
      </trkpt>
      <trkpt lat="45.53896" lon="5.93716">
        <ele>640.38</ele>
        <time>2014-03-12T16:47:17Z</time>
      </trkpt>
      <trkpt lat="45.53897" lon="5.93717">
        <ele>640.86</ele>
        <time>2014-03-12T16:47:18Z</time>
      </trkpt>
      <trkpt lat="45.53921" lon="5.93725">
        <ele>639.41</ele>
        <time>2014-03-12T16:47:31Z</time>
      </trkpt>
      <trkpt lat="45.53929" lon="5.93728">
        <ele>639.41</ele>
        <time>2014-03-12T16:47:41Z</time>
      </trkpt>
      <trkpt lat="45.5393" lon="5.93729">
        <ele>639.41</ele>
        <time>2014-03-12T16:47:42Z</time>
      </trkpt>
      <trkpt lat="45.5393" lon="5.93745">
        <ele>639.41</ele>
        <time>2014-03-12T16:47:50Z</time>
      </trkpt>
      <trkpt lat="45.53931" lon="5.93748">
        <ele>640.38</ele>
        <time>2014-03-12T16:47:52Z</time>
      </trkpt>
      <trkpt lat="45.53939" lon="5.93761">
        <ele>641.34</ele>
        <time>2014-03-12T16:48:07Z</time>
      </trkpt>
      <trkpt lat="45.53947" lon="5.93775">
        <ele>639.89</ele>
        <time>2014-03-12T16:48:12Z</time>
      </trkpt>
      <trkpt lat="45.53958" lon="5.93786">
        <ele>637.49</ele>
        <time>2014-03-12T16:48:17Z</time>
      </trkpt>
      <trkpt lat="45.53988" lon="5.93808">
        <ele>634.61</ele>
        <time>2014-03-12T16:48:27Z</time>
      </trkpt>
      <trkpt lat="45.54001" lon="5.93823">
        <ele>632.2</ele>
        <time>2014-03-12T16:48:33Z</time>
      </trkpt>
      <trkpt lat="45.54016" lon="5.93835">
        <ele>628.84</ele>
        <time>2014-03-12T16:48:40Z</time>
      </trkpt>
      <trkpt lat="45.54019" lon="5.93839">
        <ele>628.84</ele>
        <time>2014-03-12T16:48:42Z</time>
      </trkpt>
      <trkpt lat="45.54025" lon="5.93851">
        <ele>626.92</ele>
        <time>2014-03-12T16:48:47Z</time>
      </trkpt>
      <trkpt lat="45.54038" lon="5.9386">
        <ele>623.07</ele>
        <time>2014-03-12T16:48:54Z</time>
      </trkpt>
      <trkpt lat="45.54052" lon="5.93877">
        <ele>620.19</ele>
        <time>2014-03-12T16:49:01Z</time>
      </trkpt>
      <trkpt lat="45.54051" lon="5.9388">
        <ele>619.71</ele>
        <time>2014-03-12T16:49:02Z</time>
      </trkpt>
      <trkpt lat="45.5405" lon="5.93889">
        <ele>618.26</ele>
        <time>2014-03-12T16:49:05Z</time>
      </trkpt>
      <trkpt lat="45.54051" lon="5.93897">
        <ele>616.82</ele>
        <time>2014-03-12T16:49:08Z</time>
      </trkpt>
      <trkpt lat="45.54048" lon="5.93901">
        <ele>615.86</ele>
        <time>2014-03-12T16:49:11Z</time>
      </trkpt>
      <trkpt lat="45.54049" lon="5.93906">
        <ele>614.42</ele>
        <time>2014-03-12T16:49:15Z</time>
      </trkpt>
      <trkpt lat="45.54055" lon="5.93915">
        <ele>612.02</ele>
        <time>2014-03-12T16:49:21Z</time>
      </trkpt>
      <trkpt lat="45.54058" lon="5.93919">
        <ele>611.06</ele>
        <time>2014-03-12T16:49:24Z</time>
      </trkpt>
      <trkpt lat="45.54063" lon="5.93924">
        <ele>609.13</ele>
        <time>2014-03-12T16:49:29Z</time>
      </trkpt>
      <trkpt lat="45.5407" lon="5.93926">
        <ele>607.69</ele>
        <time>2014-03-12T16:49:36Z</time>
      </trkpt>
      <trkpt lat="45.54076" lon="5.93926">
        <ele>605.29</ele>
        <time>2014-03-12T16:49:42Z</time>
      </trkpt>
      <trkpt lat="45.54086" lon="5.93931">
        <ele>602.4</ele>
        <time>2014-03-12T16:49:48Z</time>
      </trkpt>
      <trkpt lat="45.5409" lon="5.9393">
        <ele>600</ele>
        <time>2014-03-12T16:49:56Z</time>
      </trkpt>
      <trkpt lat="45.54096" lon="5.93931">
        <ele>598.08</ele>
        <time>2014-03-12T16:50:00Z</time>
      </trkpt>
      <trkpt lat="45.54102" lon="5.93936">
        <ele>596.64</ele>
        <time>2014-03-12T16:50:03Z</time>
      </trkpt>
      <trkpt lat="45.54116" lon="5.93954">
        <ele>592.31</ele>
        <time>2014-03-12T16:50:11Z</time>
      </trkpt>
      <trkpt lat="45.5413" lon="5.93963">
        <ele>589.43</ele>
        <time>2014-03-12T16:50:18Z</time>
      </trkpt>
      <trkpt lat="45.54145" lon="5.93968">
        <ele>586.54</ele>
        <time>2014-03-12T16:50:25Z</time>
      </trkpt>
      <trkpt lat="45.54175" lon="5.93978">
        <ele>585.58</ele>
        <time>2014-03-12T16:50:37Z</time>
      </trkpt>
      <trkpt lat="45.54181" lon="5.93985">
        <ele>583.66</ele>
        <time>2014-03-12T16:50:41Z</time>
      </trkpt>
      <trkpt lat="45.54185" lon="5.93992">
        <ele>581.73</ele>
        <time>2014-03-12T16:50:44Z</time>
      </trkpt>
      <trkpt lat="45.5419" lon="5.93994">
        <ele>577.89</ele>
        <time>2014-03-12T16:50:53Z</time>
      </trkpt>
      <trkpt lat="45.54197" lon="5.93996">
        <ele>575.01</ele>
        <time>2014-03-12T16:51:05Z</time>
      </trkpt>
      <trkpt lat="45.54199" lon="5.94">
        <ele>571.64</ele>
        <time>2014-03-12T16:51:10Z</time>
      </trkpt>
      <trkpt lat="45.542" lon="5.94001">
        <ele>571.64</ele>
        <time>2014-03-12T16:51:11Z</time>
      </trkpt>
      <trkpt lat="45.54207" lon="5.94008">
        <ele>571.64</ele>
        <time>2014-03-12T16:51:15Z</time>
      </trkpt>
      <trkpt lat="45.54244" lon="5.94031">
        <ele>569.24</ele>
        <time>2014-03-12T16:51:28Z</time>
      </trkpt>
      <trkpt lat="45.5425" lon="5.94039">
        <ele>567.8</ele>
        <time>2014-03-12T16:51:31Z</time>
      </trkpt>
      <trkpt lat="45.54265" lon="5.9405">
        <ele>563.95</ele>
        <time>2014-03-12T16:51:38Z</time>
      </trkpt>
      <trkpt lat="45.54267" lon="5.94052">
        <ele>563.95</ele>
        <time>2014-03-12T16:51:39Z</time>
      </trkpt>
      <trkpt lat="45.54272" lon="5.94055">
        <ele>562.51</ele>
        <time>2014-03-12T16:51:42Z</time>
      </trkpt>
      <trkpt lat="45.5428" lon="5.94058">
        <ele>558.66</ele>
        <time>2014-03-12T16:51:47Z</time>
      </trkpt>
      <trkpt lat="45.54284" lon="5.94059">
        <ele>558.66</ele>
        <time>2014-03-12T16:51:48Z</time>
      </trkpt>
      <trkpt lat="45.54303" lon="5.94073">
        <ele>555.3</ele>
        <time>2014-03-12T16:51:54Z</time>
      </trkpt>
      <trkpt lat="45.54313" lon="5.94084">
        <ele>551.93</ele>
        <time>2014-03-12T16:52:00Z</time>
      </trkpt>
      <trkpt lat="45.54319" lon="5.94098">
        <ele>548.57</ele>
        <time>2014-03-12T16:52:06Z</time>
      </trkpt>
      <trkpt lat="45.54325" lon="5.94121">
        <ele>545.69</ele>
        <time>2014-03-12T16:52:12Z</time>
      </trkpt>
      <trkpt lat="45.54332" lon="5.94129">
        <ele>544.24</ele>
        <time>2014-03-12T16:52:16Z</time>
      </trkpt>
      <trkpt lat="45.54369" lon="5.94123">
        <ele>540.4</ele>
        <time>2014-03-12T16:52:27Z</time>
      </trkpt>
      <trkpt lat="45.54374" lon="5.9412">
        <ele>539.44</ele>
        <time>2014-03-12T16:52:29Z</time>
      </trkpt>
      <trkpt lat="45.54383" lon="5.9412">
        <ele>536.07</ele>
        <time>2014-03-12T16:52:34Z</time>
      </trkpt>
      <trkpt lat="45.54397" lon="5.94121">
        <ele>533.19</ele>
        <time>2014-03-12T16:52:40Z</time>
      </trkpt>
      <trkpt lat="45.54416" lon="5.94127">
        <ele>529.82</ele>
        <time>2014-03-12T16:52:46Z</time>
      </trkpt>
      <trkpt lat="45.54426" lon="5.94132">
        <ele>526.94</ele>
        <time>2014-03-12T16:52:51Z</time>
      </trkpt>
      <trkpt lat="45.54427" lon="5.94133">
        <ele>523.58</ele>
        <time>2014-03-12T16:52:54Z</time>
      </trkpt>
      <trkpt lat="45.54428" lon="5.94133">
        <ele>521.65</ele>
        <time>2014-03-12T16:52:57Z</time>
      </trkpt>
      <trkpt lat="45.54422" lon="5.94165">
        <ele>518.29</ele>
        <time>2014-03-12T16:53:06Z</time>
      </trkpt>
      <trkpt lat="45.54422" lon="5.94165">
        <ele>517.81</ele>
        <time>2014-03-12T16:53:07Z</time>
      </trkpt>
      <trkpt lat="45.54425" lon="5.94197">
        <ele>516.37</ele>
        <time>2014-03-12T16:53:11Z</time>
      </trkpt>
      <trkpt lat="45.54444" lon="5.9422">
        <ele>515.88</ele>
        <time>2014-03-12T16:53:18Z</time>
      </trkpt>
      <trkpt lat="45.54486" lon="5.94226">
        <ele>512.52</ele>
        <time>2014-03-12T16:53:24Z</time>
      </trkpt>
      <trkpt lat="45.54517" lon="5.94237">
        <ele>510.12</ele>
        <time>2014-03-12T16:53:30Z</time>
      </trkpt>
      <trkpt lat="45.54537" lon="5.94233">
        <ele>506.75</ele>
        <time>2014-03-12T16:53:35Z</time>
      </trkpt>
      <trkpt lat="45.54558" lon="5.94244">
        <ele>503.87</ele>
        <time>2014-03-12T16:53:40Z</time>
      </trkpt>
      <trkpt lat="45.54578" lon="5.94255">
        <ele>501.46</ele>
        <time>2014-03-12T16:53:45Z</time>
      </trkpt>
      <trkpt lat="45.54577" lon="5.94263">
        <ele>498.1</ele>
        <time>2014-03-12T16:53:52Z</time>
      </trkpt>
      <trkpt lat="45.54578" lon="5.94265">
        <ele>496.66</ele>
        <time>2014-03-12T16:53:54Z</time>
      </trkpt>
      <trkpt lat="45.5457" lon="5.94264">
        <ele>493.77</ele>
        <time>2014-03-12T16:53:58Z</time>
      </trkpt>
      <trkpt lat="45.54562" lon="5.94274">
        <ele>493.29</ele>
        <time>2014-03-12T16:53:59Z</time>
      </trkpt>
      <trkpt lat="45.54563" lon="5.94276">
        <ele>493.29</ele>
        <time>2014-03-12T16:54:00Z</time>
      </trkpt>
      <trkpt lat="45.5457" lon="5.94294">
        <ele>489.93</ele>
        <time>2014-03-12T16:54:06Z</time>
      </trkpt>
      <trkpt lat="45.54583" lon="5.94302">
        <ele>486.56</ele>
        <time>2014-03-12T16:54:10Z</time>
      </trkpt>
      <trkpt lat="45.54602" lon="5.94298">
        <ele>483.2</ele>
        <time>2014-03-12T16:54:16Z</time>
      </trkpt>
      <trkpt lat="45.54615" lon="5.94298">
        <ele>479.84</ele>
        <time>2014-03-12T16:54:22Z</time>
      </trkpt>
      <trkpt lat="45.54626" lon="5.94303">
        <ele>476.95</ele>
        <time>2014-03-12T16:54:26Z</time>
      </trkpt>
      <trkpt lat="45.5463" lon="5.9431">
        <ele>475.99</ele>
        <time>2014-03-12T16:54:28Z</time>
      </trkpt>
      <trkpt lat="45.54643" lon="5.94328">
        <ele>472.63</ele>
        <time>2014-03-12T16:54:33Z</time>
      </trkpt>
      <trkpt lat="45.54653" lon="5.94339">
        <ele>470.22</ele>
        <time>2014-03-12T16:54:37Z</time>
      </trkpt>
      <trkpt lat="45.54663" lon="5.94347">
        <ele>467.82</ele>
        <time>2014-03-12T16:54:41Z</time>
      </trkpt>
      <trkpt lat="45.54671" lon="5.94359">
        <ele>464.45</ele>
        <time>2014-03-12T16:54:45Z</time>
      </trkpt>
      <trkpt lat="45.54672" lon="5.94363">
        <ele>464.45</ele>
        <time>2014-03-12T16:54:46Z</time>
      </trkpt>
      <trkpt lat="45.54676" lon="5.94382">
        <ele>462.53</ele>
        <time>2014-03-12T16:54:52Z</time>
      </trkpt>
      <trkpt lat="45.54681" lon="5.9438">
        <ele>460.61</ele>
        <time>2014-03-12T16:54:55Z</time>
      </trkpt>
      <trkpt lat="45.54691" lon="5.9439">
        <ele>457.24</ele>
        <time>2014-03-12T16:55:00Z</time>
      </trkpt>
      <trkpt lat="45.54702" lon="5.94407">
        <ele>453.88</ele>
        <time>2014-03-12T16:55:04Z</time>
      </trkpt>
      <trkpt lat="45.54705" lon="5.9441">
        <ele>453.88</ele>
        <time>2014-03-12T16:55:05Z</time>
      </trkpt>
      <trkpt lat="45.54722" lon="5.94437">
        <ele>450.52</ele>
        <time>2014-03-12T16:55:12Z</time>
      </trkpt>
      <trkpt lat="45.54729" lon="5.94457">
        <ele>446.67</ele>
        <time>2014-03-12T16:55:16Z</time>
      </trkpt>
      <trkpt lat="45.54735" lon="5.94463">
        <ele>445.23</ele>
        <time>2014-03-12T16:55:19Z</time>
      </trkpt>
      <trkpt lat="45.54745" lon="5.94466">
        <ele>441.38</ele>
        <time>2014-03-12T16:55:24Z</time>
      </trkpt>
      <trkpt lat="45.54749" lon="5.94463">
        <ele>440.9</ele>
        <time>2014-03-12T16:55:26Z</time>
      </trkpt>
      <trkpt lat="45.54759" lon="5.94448">
        <ele>437.54</ele>
        <time>2014-03-12T16:55:30Z</time>
      </trkpt>
      <trkpt lat="45.54771" lon="5.94429">
        <ele>434.65</ele>
        <time>2014-03-12T16:55:34Z</time>
      </trkpt>
      <trkpt lat="45.54775" lon="5.94426">
        <ele>434.17</ele>
        <time>2014-03-12T16:55:35Z</time>
      </trkpt>
      <trkpt lat="45.54779" lon="5.94424">
        <ele>433.21</ele>
        <time>2014-03-12T16:55:36Z</time>
      </trkpt>
      <trkpt lat="45.54783" lon="5.94425">
        <ele>432.73</ele>
        <time>2014-03-12T16:55:37Z</time>
      </trkpt>
      <trkpt lat="45.54787" lon="5.94426">
        <ele>432.25</ele>
        <time>2014-03-12T16:55:38Z</time>
      </trkpt>
      <trkpt lat="45.54791" lon="5.94427">
        <ele>431.29</ele>
        <time>2014-03-12T16:55:39Z</time>
      </trkpt>
      <trkpt lat="45.54794" lon="5.9443">
        <ele>430.81</ele>
        <time>2014-03-12T16:55:40Z</time>
      </trkpt>
      <trkpt lat="45.54798" lon="5.94433">
        <ele>429.37</ele>
        <time>2014-03-12T16:55:41Z</time>
      </trkpt>
      <trkpt lat="45.54802" lon="5.94437">
        <ele>429.37</ele>
        <time>2014-03-12T16:55:42Z</time>
      </trkpt>
      <trkpt lat="45.54806" lon="5.94443">
        <ele>428.4</ele>
        <time>2014-03-12T16:55:43Z</time>
      </trkpt>
      <trkpt lat="45.54809" lon="5.94448">
        <ele>427.44</ele>
        <time>2014-03-12T16:55:44Z</time>
      </trkpt>
      <trkpt lat="45.54813" lon="5.94454">
        <ele>426</ele>
        <time>2014-03-12T16:55:45Z</time>
      </trkpt>
      <trkpt lat="45.5482" lon="5.94472">
        <ele>423.6</ele>
        <time>2014-03-12T16:55:48Z</time>
      </trkpt>
      <trkpt lat="45.54828" lon="5.94487">
        <ele>420.23</ele>
        <time>2014-03-12T16:55:53Z</time>
      </trkpt>
      <trkpt lat="45.54841" lon="5.94477">
        <ele>416.87</ele>
        <time>2014-03-12T16:55:57Z</time>
      </trkpt>
      <trkpt lat="45.5485" lon="5.94468">
        <ele>413.5</ele>
        <time>2014-03-12T16:56:00Z</time>
      </trkpt>
      <trkpt lat="45.54857" lon="5.94448">
        <ele>409.18</ele>
        <time>2014-03-12T16:56:04Z</time>
      </trkpt>
      <trkpt lat="45.54858" lon="5.94428">
        <ele>405.81</ele>
        <time>2014-03-12T16:56:08Z</time>
      </trkpt>
      <trkpt lat="45.5485" lon="5.94369">
        <ele>402.45</ele>
        <time>2014-03-12T16:56:12Z</time>
      </trkpt>
      <trkpt lat="45.54844" lon="5.94344">
        <ele>398.6</ele>
        <time>2014-03-12T16:56:15Z</time>
      </trkpt>
      <trkpt lat="45.54834" lon="5.94311">
        <ele>395.24</ele>
        <time>2014-03-12T16:56:18Z</time>
      </trkpt>
      <trkpt lat="45.5482" lon="5.94271">
        <ele>391.87</ele>
        <time>2014-03-12T16:56:22Z</time>
      </trkpt>
      <trkpt lat="45.54818" lon="5.94248">
        <ele>388.51</ele>
        <time>2014-03-12T16:56:26Z</time>
      </trkpt>
      <trkpt lat="45.54818" lon="5.94246">
        <ele>387.07</ele>
        <time>2014-03-12T16:56:27Z</time>
      </trkpt>
      <trkpt lat="45.54848" lon="5.94247">
        <ele>383.7</ele>
        <time>2014-03-12T16:56:33Z</time>
      </trkpt>
      <trkpt lat="45.54855" lon="5.9425">
        <ele>382.74</ele>
        <time>2014-03-12T16:56:34Z</time>
      </trkpt>
      <trkpt lat="45.54863" lon="5.94251">
        <ele>382.26</ele>
        <time>2014-03-12T16:56:35Z</time>
      </trkpt>
      <trkpt lat="45.54868" lon="5.94253">
        <ele>381.3</ele>
        <time>2014-03-12T16:56:36Z</time>
      </trkpt>
      <trkpt lat="45.5487" lon="5.94252">
        <ele>380.34</ele>
        <time>2014-03-12T16:56:37Z</time>
      </trkpt>
      <trkpt lat="45.54913" lon="5.94269">
        <ele>376.49</ele>
        <time>2014-03-12T16:56:41Z</time>
      </trkpt>
      <trkpt lat="45.54922" lon="5.94269">
        <ele>376.01</ele>
        <time>2014-03-12T16:56:43Z</time>
      </trkpt>
      <trkpt lat="45.54924" lon="5.94258">
        <ele>371.69</ele>
        <time>2014-03-12T16:56:47Z</time>
      </trkpt>
      <trkpt lat="45.54921" lon="5.94253">
        <ele>370.73</ele>
        <time>2014-03-12T16:56:48Z</time>
      </trkpt>
      <trkpt lat="45.5492" lon="5.94247">
        <ele>369.28</ele>
        <time>2014-03-12T16:56:49Z</time>
      </trkpt>
      <trkpt lat="45.5492" lon="5.94244">
        <ele>368.32</ele>
        <time>2014-03-12T16:56:50Z</time>
      </trkpt>
      <trkpt lat="45.54928" lon="5.94126">
        <ele>366.4</ele>
        <time>2014-03-12T16:57:02Z</time>
      </trkpt>
      <trkpt lat="45.5496" lon="5.94145">
        <ele>363.52</ele>
        <time>2014-03-12T16:57:08Z</time>
      </trkpt>
      <trkpt lat="45.5497" lon="5.94158">
        <ele>362.07</ele>
        <time>2014-03-12T16:57:10Z</time>
      </trkpt>
      <trkpt lat="45.54975" lon="5.94163">
        <ele>361.11</ele>
        <time>2014-03-12T16:57:11Z</time>
      </trkpt>
      <trkpt lat="45.54981" lon="5.94169">
        <ele>360.63</ele>
        <time>2014-03-12T16:57:12Z</time>
      </trkpt>
      <trkpt lat="45.54987" lon="5.94173">
        <ele>360.15</ele>
        <time>2014-03-12T16:57:13Z</time>
      </trkpt>
      <trkpt lat="45.55017" lon="5.94171">
        <ele>357.75</ele>
        <time>2014-03-12T16:57:17Z</time>
      </trkpt>
      <trkpt lat="45.55026" lon="5.94164">
        <ele>357.27</ele>
        <time>2014-03-12T16:57:18Z</time>
      </trkpt>
      <trkpt lat="45.55037" lon="5.94153">
        <ele>356.31</ele>
        <time>2014-03-12T16:57:19Z</time>
      </trkpt>
      <trkpt lat="45.55046" lon="5.94144">
        <ele>355.34</ele>
        <time>2014-03-12T16:57:20Z</time>
      </trkpt>
      <trkpt lat="45.55053" lon="5.94139">
        <ele>354.86</ele>
        <time>2014-03-12T16:57:21Z</time>
      </trkpt>
      <trkpt lat="45.55059" lon="5.94138">
        <ele>353.9</ele>
        <time>2014-03-12T16:57:22Z</time>
      </trkpt>
      <trkpt lat="45.55066" lon="5.9414">
        <ele>352.94</ele>
        <time>2014-03-12T16:57:23Z</time>
      </trkpt>
      <trkpt lat="45.55072" lon="5.94148">
        <ele>351.98</ele>
        <time>2014-03-12T16:57:24Z</time>
      </trkpt>
      <trkpt lat="45.55079" lon="5.94159">
        <ele>351.02</ele>
        <time>2014-03-12T16:57:25Z</time>
      </trkpt>
      <trkpt lat="45.55085" lon="5.9417">
        <ele>349.58</ele>
        <time>2014-03-12T16:57:26Z</time>
      </trkpt>
      <trkpt lat="45.5509" lon="5.94179">
        <ele>348.62</ele>
        <time>2014-03-12T16:57:27Z</time>
      </trkpt>
      <trkpt lat="45.55094" lon="5.94188">
        <ele>348.13</ele>
        <time>2014-03-12T16:57:28Z</time>
      </trkpt>
      <trkpt lat="45.55099" lon="5.94195">
        <ele>347.65</ele>
        <time>2014-03-12T16:57:29Z</time>
      </trkpt>
      <trkpt lat="45.55106" lon="5.94204">
        <ele>347.65</ele>
        <time>2014-03-12T16:57:32Z</time>
      </trkpt>
      <trkpt lat="45.55107" lon="5.94205">
        <ele>347.17</ele>
        <time>2014-03-12T16:57:48Z</time>
      </trkpt>
      <trkpt lat="45.55107" lon="5.94204">
        <ele>347.17</ele>
        <time>2014-03-12T16:58:21Z</time>
      </trkpt>
      <trkpt lat="45.55107" lon="5.94204">
        <ele>347.65</ele>
        <time>2014-03-12T16:58:47Z</time>
      </trkpt>
      <trkpt lat="45.55107" lon="5.94204">
        <ele>347.65</ele>
        <time>2014-03-12T16:59:18Z</time>
      </trkpt>
      <trkpt lat="45.55108" lon="5.94204">
        <ele>347.65</ele>
        <time>2014-03-12T16:59:52Z</time>
      </trkpt>
      <trkpt lat="45.55108" lon="5.94203">
        <ele>347.17</ele>
        <time>2014-03-12T17:00:19Z</time>
      </trkpt>
      <trkpt lat="45.55108" lon="5.94203">
        <ele>347.17</ele>
        <time>2014-03-12T17:00:28Z</time>
      </trkpt>
      <trkpt lat="45.55109" lon="5.94203">
        <ele>347.17</ele>
        <time>2014-03-12T17:00:29Z</time>
      </trkpt>
      <trkpt lat="45.55111" lon="5.94201">
        <ele>347.65</ele>
        <time>2014-03-12T17:00:30Z</time>
      </trkpt>
      <trkpt lat="45.55111" lon="5.94198">
        <ele>347.17</ele>
        <time>2014-03-12T17:00:31Z</time>
      </trkpt>
      <trkpt lat="45.55111" lon="5.94193">
        <ele>347.17</ele>
        <time>2014-03-12T17:00:32Z</time>
      </trkpt>
      <trkpt lat="45.55111" lon="5.94188">
        <ele>347.65</ele>
        <time>2014-03-12T17:00:33Z</time>
      </trkpt>
      <trkpt lat="45.55112" lon="5.94183">
        <ele>347.17</ele>
        <time>2014-03-12T17:00:34Z</time>
      </trkpt>
      <trkpt lat="45.55113" lon="5.94177">
        <ele>347.17</ele>
        <time>2014-03-12T17:00:35Z</time>
      </trkpt>
      <trkpt lat="45.55114" lon="5.94171">
        <ele>346.69</ele>
        <time>2014-03-12T17:00:36Z</time>
      </trkpt>
      <trkpt lat="45.55119" lon="5.94154">
        <ele>346.69</ele>
        <time>2014-03-12T17:00:39Z</time>
      </trkpt>
      <trkpt lat="45.55122" lon="5.94149">
        <ele>346.69</ele>
        <time>2014-03-12T17:00:40Z</time>
      </trkpt>
      <trkpt lat="45.55126" lon="5.94144">
        <ele>346.69</ele>
        <time>2014-03-12T17:00:41Z</time>
      </trkpt>
      <trkpt lat="45.5513" lon="5.9414">
        <ele>346.69</ele>
        <time>2014-03-12T17:00:42Z</time>
      </trkpt>
      <trkpt lat="45.55134" lon="5.94138">
        <ele>346.69</ele>
        <time>2014-03-12T17:00:43Z</time>
      </trkpt>
      <trkpt lat="45.55139" lon="5.94136">
        <ele>346.69</ele>
        <time>2014-03-12T17:00:44Z</time>
      </trkpt>
      <trkpt lat="45.55144" lon="5.94135">
        <ele>346.69</ele>
        <time>2014-03-12T17:00:45Z</time>
      </trkpt>
      <trkpt lat="45.55149" lon="5.94134">
        <ele>346.69</ele>
        <time>2014-03-12T17:00:46Z</time>
      </trkpt>
      <trkpt lat="45.55154" lon="5.94134">
        <ele>346.69</ele>
        <time>2014-03-12T17:00:47Z</time>
      </trkpt>
      <trkpt lat="45.55164" lon="5.94134">
        <ele>344.77</ele>
        <time>2014-03-12T17:00:49Z</time>
      </trkpt>
      <trkpt lat="45.55184" lon="5.94135">
        <ele>342.85</ele>
        <time>2014-03-12T17:00:52Z</time>
      </trkpt>
      <trkpt lat="45.55213" lon="5.94136">
        <ele>341.89</ele>
        <time>2014-03-12T17:00:56Z</time>
      </trkpt>
      <trkpt lat="45.55229" lon="5.94138">
        <ele>341.41</ele>
        <time>2014-03-12T17:00:58Z</time>
      </trkpt>
      <trkpt lat="45.55236" lon="5.94138">
        <ele>340.92</ele>
        <time>2014-03-12T17:00:59Z</time>
      </trkpt>
      <trkpt lat="45.55244" lon="5.94136">
        <ele>340.44</ele>
        <time>2014-03-12T17:01:00Z</time>
      </trkpt>
      <trkpt lat="45.55252" lon="5.94133">
        <ele>340.44</ele>
        <time>2014-03-12T17:01:01Z</time>
      </trkpt>
      <trkpt lat="45.55259" lon="5.9413">
        <ele>339.96</ele>
        <time>2014-03-12T17:01:02Z</time>
      </trkpt>
      <trkpt lat="45.55267" lon="5.94126">
        <ele>339.48</ele>
        <time>2014-03-12T17:01:03Z</time>
      </trkpt>
      <trkpt lat="45.55336" lon="5.94098">
        <ele>336.12</ele>
        <time>2014-03-12T17:01:12Z</time>
      </trkpt>
      <trkpt lat="45.55352" lon="5.94094">
        <ele>335.64</ele>
        <time>2014-03-12T17:01:14Z</time>
      </trkpt>
      <trkpt lat="45.5536" lon="5.94094">
        <ele>335.16</ele>
        <time>2014-03-12T17:01:15Z</time>
      </trkpt>
      <trkpt lat="45.55413" lon="5.94106">
        <ele>332.27</ele>
        <time>2014-03-12T17:01:21Z</time>
      </trkpt>
      <trkpt lat="45.55431" lon="5.94108">
        <ele>331.79</ele>
        <time>2014-03-12T17:01:23Z</time>
      </trkpt>
      <trkpt lat="45.55518" lon="5.94089">
        <ele>331.79</ele>
        <time>2014-03-12T17:01:35Z</time>
      </trkpt>
      <trkpt lat="45.55616" lon="5.94065">
        <ele>331.79</ele>
        <time>2014-03-12T17:01:51Z</time>
      </trkpt>
      <trkpt lat="45.55673" lon="5.94052">
        <ele>329.39</ele>
        <time>2014-03-12T17:02:00Z</time>
      </trkpt>
      <trkpt lat="45.55721" lon="5.94031">
        <ele>325.54</ele>
        <time>2014-03-12T17:02:06Z</time>
      </trkpt>
      <trkpt lat="45.55729" lon="5.94026">
        <ele>325.54</ele>
        <time>2014-03-12T17:02:07Z</time>
      </trkpt>
      <trkpt lat="45.55782" lon="5.93987">
        <ele>322.18</ele>
        <time>2014-03-12T17:02:14Z</time>
      </trkpt>
      <trkpt lat="45.55788" lon="5.93986">
        <ele>321.7</ele>
        <time>2014-03-12T17:02:15Z</time>
      </trkpt>
      <trkpt lat="45.55793" lon="5.93988">
        <ele>321.22</ele>
        <time>2014-03-12T17:02:16Z</time>
      </trkpt>
      <trkpt lat="45.55798" lon="5.93994">
        <ele>320.74</ele>
        <time>2014-03-12T17:02:17Z</time>
      </trkpt>
      <trkpt lat="45.55801" lon="5.94002">
        <ele>320.26</ele>
        <time>2014-03-12T17:02:18Z</time>
      </trkpt>
      <trkpt lat="45.55804" lon="5.94011">
        <ele>320.26</ele>
        <time>2014-03-12T17:02:19Z</time>
      </trkpt>
      <trkpt lat="45.55819" lon="5.94053">
        <ele>315.93</ele>
        <time>2014-03-12T17:02:23Z</time>
      </trkpt>
      <trkpt lat="45.55832" lon="5.94092">
        <ele>312.57</ele>
        <time>2014-03-12T17:02:26Z</time>
      </trkpt>
      <trkpt lat="45.55842" lon="5.94116">
        <ele>311.12</ele>
        <time>2014-03-12T17:02:28Z</time>
      </trkpt>
      <trkpt lat="45.55848" lon="5.94125">
        <ele>310.16</ele>
        <time>2014-03-12T17:02:29Z</time>
      </trkpt>
      <trkpt lat="45.55856" lon="5.94133">
        <ele>309.2</ele>
        <time>2014-03-12T17:02:30Z</time>
      </trkpt>
      <trkpt lat="45.55866" lon="5.94137">
        <ele>308.24</ele>
        <time>2014-03-12T17:02:31Z</time>
      </trkpt>
      <trkpt lat="45.55876" lon="5.94139">
        <ele>307.28</ele>
        <time>2014-03-12T17:02:32Z</time>
      </trkpt>
      <trkpt lat="45.55887" lon="5.9414">
        <ele>306.32</ele>
        <time>2014-03-12T17:02:33Z</time>
      </trkpt>
      <trkpt lat="45.55898" lon="5.9414">
        <ele>305.84</ele>
        <time>2014-03-12T17:02:34Z</time>
      </trkpt>
      <trkpt lat="45.55931" lon="5.9414">
        <ele>303.43</ele>
        <time>2014-03-12T17:02:37Z</time>
      </trkpt>
      <trkpt lat="45.55959" lon="5.94143">
        <ele>301.99</ele>
        <time>2014-03-12T17:02:40Z</time>
      </trkpt>
      <trkpt lat="45.55965" lon="5.94148">
        <ele>301.03</ele>
        <time>2014-03-12T17:02:41Z</time>
      </trkpt>
      <trkpt lat="45.55972" lon="5.94156">
        <ele>300.55</ele>
        <time>2014-03-12T17:02:42Z</time>
      </trkpt>
      <trkpt lat="45.55989" lon="5.94185">
        <ele>297.18</ele>
        <time>2014-03-12T17:02:45Z</time>
      </trkpt>
      <trkpt lat="45.56002" lon="5.94205">
        <ele>295.26</ele>
        <time>2014-03-12T17:02:47Z</time>
      </trkpt>
      <trkpt lat="45.56011" lon="5.94214">
        <ele>293.82</ele>
        <time>2014-03-12T17:02:48Z</time>
      </trkpt>
      <trkpt lat="45.5602" lon="5.94222">
        <ele>292.86</ele>
        <time>2014-03-12T17:02:49Z</time>
      </trkpt>
      <trkpt lat="45.56039" lon="5.94233">
        <ele>290.94</ele>
        <time>2014-03-12T17:02:51Z</time>
      </trkpt>
      <trkpt lat="45.5605" lon="5.94237">
        <ele>289.97</ele>
        <time>2014-03-12T17:02:52Z</time>
      </trkpt>
      <trkpt lat="45.56061" lon="5.94237">
        <ele>289.01</ele>
        <time>2014-03-12T17:02:53Z</time>
      </trkpt>
      <trkpt lat="45.56071" lon="5.94234">
        <ele>288.05</ele>
        <time>2014-03-12T17:02:54Z</time>
      </trkpt>
      <trkpt lat="45.5608" lon="5.94229">
        <ele>288.05</ele>
        <time>2014-03-12T17:02:55Z</time>
      </trkpt>
      <trkpt lat="45.56088" lon="5.94223">
        <ele>288.05</ele>
        <time>2014-03-12T17:02:56Z</time>
      </trkpt>
      <trkpt lat="45.56096" lon="5.94216">
        <ele>287.09</ele>
        <time>2014-03-12T17:02:57Z</time>
      </trkpt>
      <trkpt lat="45.56114" lon="5.94198">
        <ele>287.09</ele>
        <time>2014-03-12T17:03:01Z</time>
      </trkpt>
      <trkpt lat="45.56117" lon="5.94192">
        <ele>287.09</ele>
        <time>2014-03-12T17:03:02Z</time>
      </trkpt>
      <trkpt lat="45.5612" lon="5.94186">
        <ele>286.61</ele>
        <time>2014-03-12T17:03:03Z</time>
      </trkpt>
      <trkpt lat="45.56125" lon="5.94167">
        <ele>286.61</ele>
        <time>2014-03-12T17:03:06Z</time>
      </trkpt>
      <trkpt lat="45.56127" lon="5.94162">
        <ele>287.57</ele>
        <time>2014-03-12T17:03:07Z</time>
      </trkpt>
      <trkpt lat="45.56127" lon="5.94156">
        <ele>287.57</ele>
        <time>2014-03-12T17:03:08Z</time>
      </trkpt>
      <trkpt lat="45.56127" lon="5.94151">
        <ele>287.09</ele>
        <time>2014-03-12T17:03:09Z</time>
      </trkpt>
      <trkpt lat="45.56128" lon="5.94147">
        <ele>287.57</ele>
        <time>2014-03-12T17:03:10Z</time>
      </trkpt>
    </trkseg>
  </trk>
</gpx>